[[{"header":{"parameterUnit":"m.s-1","parameterCategory":1,"la1":30.6,"la2":29.2853,"lo1":-89.7004,"lo2":-87.6739,"dy":0.0162,"dx":0.0183,"nx":112,"ny":82,"refTime":"2024-05-29T12:00:00:Z","depth":0,"parameterNumber":2,"parameterNumberName":"U-component_of_WINDS"},"data":[0.0,0.0,0.0,0.0,0.0,0.0,0.0,0.0,0.0,0.0,0.0,0.0,0.0,0.0,0.0,0.0,0.0,0.0,0.0,0.0,0.0,0.0,0.0,0.0,0.0,0.0,0.0,0.0,0.0,0.0,0.0,0.0,0.0,0.0,0.0,0.0,0.0,0.0,0.0,0.0,0.0,0.0,0.0,0.0,0.0,0.0,0.0,0.0,0.0,0.0,0.0,0.0,0.0,0.0,0.0,0.0,0.0,0.0,0.0,0.0,0.0,0.0,0.0,0.0,0.0,0.0,0.0,0.0,0.0,0.0,0.0,0.0,0.0,0.0,0.0,0.0,0.0,0.0,0.0,0.0,0.0,0.0,0.0,0.0,0.0,0.0,0.0,0.0,0.0,0.0,-3.5312,-3.8674,-4.1849,-4.4091,-4.503,-4.3338,-3.9793,-3.4087,0.0,0.0,0.0,0.0,0.0,0.0,0.0,0.0,0.0,0.0,0.0,0.0,0.0,0.0,0.0,0.0,0.0,0.0,0.0,0.0,0.0,0.0,0.0,0.0,0.0,0.0,0.0,0.0,0.0,0.0,0.0,0.0,0.0,0.0,0.0,0.0,0.0,0.0,0.0,0.0,0.0,0.0,0.0,0.0,0.0,0.0,0.0,0.0,0.0,0.0,0.0,0.0,0.0,0.0,0.0,0.0,0.0,0.0,0.0,0.0,0.0,0.0,0.0,0.0,0.0,0.0,0.0,0.0,0.0,0.0,0.0,0.0,0.0,0.0,0.0,0.0,0.0,0.0,0.0,0.0,0.0,0.0,0.0,0.0,0.0,0.0,0.0,0.0,0.0,0.0,0.0,0.0,0.0,0.0,0.0,0.0,0.0,0.0,0.0,0.0,0.0,0.0,0.0,0.0,-3.5999,-4.3392,-4.3388,-4.3751,-4.5901,-4.3201,-3.9601,-3.5435,0.0,0.0,0.0,0.0,0.0,0.0,0.0,0.0,0.0,0.0,0.0,0.0,0.0,0.0,0.0,0.0,0.0,0.0,0.0,0.0,0.0,0.0,0.0,0.0,0.0,0.0,0.0,0.0,0.0,0.0,0.0,0.0,0.0,0.0,0.0,0.0,0.0,0.0,0.0,0.0,0.0,0.0,0.0,0.0,0.0,0.0,0.0,0.0,0.0,0.0,0.0,0.0,0.0,0.0,0.0,0.0,0.0,0.0,0.0,0.0,0.0,0.0,0.0,0.0,0.0,0.0,0.0,0.0,0.0,0.0,0.0,0.0,0.0,0.0,0.0,0.0,0.0,0.0,0.0,0.0,0.0,0.0,0.0,0.0,0.0,0.0,0.0,0.0,0.0,0.0,0.0,0.0,0.0,0.0,0.0,0.0,0.0,0.0,0.0,0.0,0.0,0.0,0.0,-3.4116,-3.7819,-4.5157,-4.4419,-4.4186,-4.612,-4.3278,-3.9696,-3.5762,-3.2865,0.0,0.0,0.0,0.0,0.0,0.0,0.0,0.0,0.0,0.0,0.0,0.0,0.0,0.0,0.0,0.0,0.0,0.0,0.0,0.0,0.0,0.0,0.0,0.0,0.0,0.0,0.0,0.0,0.0,0.0,0.0,0.0,0.0,0.0,0.0,0.0,0.0,0.0,0.0,0.0,0.0,0.0,0.0,0.0,0.0,0.0,0.0,0.0,0.0,0.0,0.0,0.0,0.0,0.0,0.0,0.0,0.0,0.0,0.0,0.0,0.0,0.0,0.0,0.0,0.0,0.0,0.0,0.0,0.0,0.0,0.0,0.0,0.0,0.0,0.0,0.0,0.0,0.0,0.0,0.0,0.0,0.0,0.0,0.0,0.0,0.0,0.0,0.0,0.0,0.0,0.0,0.0,0.0,0.0,0.0,0.0,0.0,0.0,0.0,0.0,0.0,0.0,-3.7503,-3.9993,-4.5621,-4.4896,-4.4549,-4.5897,-4.2712,-3.909,-3.5471,-3.174,0.0,0.0,0.0,0.0,0.0,0.0,0.0,0.0,0.0,0.0,0.0,0.0,0.0,0.0,0.0,0.0,0.0,0.0,0.0,0.0,0.0,0.0,0.0,0.0,0.0,0.0,0.0,0.0,0.0,0.0,0.0,0.0,0.0,0.0,0.0,0.0,0.0,0.0,0.0,0.0,0.0,0.0,0.0,0.0,0.0,0.0,0.0,0.0,0.0,0.0,0.0,0.0,0.0,0.0,0.0,0.0,0.0,0.0,0.0,0.0,0.0,0.0,0.0,0.0,0.0,0.0,0.0,0.0,0.0,0.0,0.0,0.0,0.0,0.0,0.0,0.0,0.0,0.0,0.0,0.0,0.0,0.0,0.0,0.0,0.0,0.0,0.0,0.0,0.0,0.0,0.0,0.0,0.0,0.0,0.0,0.0,0.0,0.0,0.0,0.0,0.0,0.0,-3.8432,-4.2314,-4.5082,-4.4544,-4.4326,-4.5119,-4.0807,-3.7032,-3.4635,-2.935,0.0,0.0,0.0,0.0,0.0,0.0,0.0,0.0,0.0,0.0,0.0,0.0,0.0,0.0,0.0,0.0,0.0,0.0,0.0,0.0,0.0,0.0,0.0,0.0,0.0,0.0,0.0,0.0,0.0,0.0,0.0,0.0,0.0,0.0,0.0,0.0,0.0,0.0,0.0,0.0,0.0,0.0,0.0,0.0,0.0,0.0,0.0,0.0,0.0,0.0,0.0,0.0,0.0,0.0,0.0,0.0,0.0,0.0,0.0,0.0,0.0,0.0,0.0,0.0,0.0,0.0,0.0,0.0,0.0,0.0,0.0,0.0,0.0,0.0,0.0,0.0,0.0,0.0,0.0,0.0,0.0,0.0,0.0,0.0,0.0,0.0,0.0,0.0,0.0,0.0,0.0,0.0,0.0,0.0,0.0,0.0,0.0,0.0,0.0,0.0,0.0,0.0,-3.7169,-4.0828,-4.4859,-4.4525,-4.4323,-4.5145,-4.2075,-3.8494,-3.4691,0.0,0.0,0.0,0.0,0.0,0.0,0.0,0.0,0.0,0.0,0.0,0.0,0.0,0.0,0.0,0.0,0.0,0.0,0.0,0.0,0.0,0.0,0.0,0.0,0.0,0.0,0.0,0.0,0.0,0.0,0.0,0.0,0.0,0.0,0.0,0.0,0.0,0.0,0.0,0.0,0.0,0.0,0.0,0.0,0.0,0.0,0.0,0.0,0.0,0.0,0.0,0.0,0.0,0.0,0.0,0.0,0.0,0.0,0.0,0.0,0.0,0.0,0.0,0.0,0.0,0.0,0.0,0.0,0.0,0.0,0.0,0.0,0.0,0.0,0.0,0.0,0.0,0.0,0.0,0.0,0.0,0.0,0.0,0.0,0.0,0.0,0.0,0.0,0.0,0.0,0.0,0.0,0.0,0.0,0.0,0.0,0.0,0.0,0.0,0.0,0.0,0.0,-3.377,-3.7039,-4.0568,-4.4469,-4.4358,-4.4231,-4.4809,-4.1865,-3.8284,-3.434,0.0,0.0,0.0,0.0,0.0,0.0,0.0,0.0,0.0,0.0,0.0,0.0,0.0,0.0,0.0,0.0,0.0,0.0,0.0,0.0,0.0,0.0,0.0,0.0,0.0,0.0,0.0,0.0,0.0,0.0,0.0,0.0,0.0,0.0,0.0,0.0,0.0,0.0,0.0,0.0,0.0,0.0,0.0,0.0,0.0,0.0,0.0,0.0,0.0,0.0,0.0,0.0,0.0,0.0,0.0,0.0,0.0,0.0,0.0,0.0,0.0,0.0,0.0,0.0,0.0,0.0,0.0,0.0,0.0,0.0,0.0,0.0,0.0,0.0,0.0,0.0,0.0,0.0,0.0,0.0,0.0,0.0,0.0,0.0,0.0,0.0,0.0,0.0,0.0,0.0,0.0,0.0,0.0,0.0,0.0,0.0,0.0,0.0,0.0,0.0,0.0,0.0,-3.3993,-3.8525,-4.2222,-4.3838,-4.4005,-4.3974,-4.3897,-3.9505,-3.5725,0.0,0.0,0.0,0.0,0.0,0.0,0.0,0.0,0.0,0.0,0.0,0.0,0.0,0.0,0.0,0.0,0.0,0.0,0.0,0.0,0.0,0.0,0.0,0.0,0.0,0.0,0.0,0.0,0.0,0.0,0.0,0.0,0.0,0.0,0.0,0.0,0.0,0.0,0.0,0.0,0.0,0.0,0.0,0.0,0.0,0.0,0.0,0.0,0.0,0.0,0.0,0.0,0.0,0.0,0.0,0.0,0.0,0.0,0.0,0.0,0.0,0.0,0.0,0.0,0.0,0.0,0.0,0.0,0.0,0.0,0.0,0.0,0.0,0.0,0.0,0.0,0.0,0.0,0.0,0.0,0.0,0.0,0.0,0.0,0.0,0.0,0.0,0.0,0.0,0.0,0.0,0.0,0.0,0.0,0.0,0.0,0.0,0.0,0.0,0.0,0.0,0.0,0.0,-3.3993,-3.8525,-4.2222,-4.3838,-4.4005,-4.3989,-4.3974,-4.1015,-3.7562,-3.3785,0.0,0.0,0.0,0.0,0.0,0.0,0.0,0.0,0.0,0.0,0.0,0.0,0.0,0.0,0.0,0.0,0.0,0.0,0.0,0.0,0.0,0.0,0.0,0.0,0.0,0.0,0.0,0.0,0.0,0.0,0.0,0.0,0.0,0.0,0.0,0.0,0.0,0.0,0.0,0.0,0.0,0.0,0.0,0.0,0.0,0.0,0.0,0.0,0.0,0.0,0.0,0.0,0.0,0.0,0.0,0.0,0.0,0.0,0.0,0.0,0.0,0.0,0.0,0.0,0.0,0.0,0.0,0.0,0.0,0.0,0.0,0.0,0.0,0.0,0.0,0.0,0.0,0.0,0.0,0.0,0.0,0.0,0.0,0.0,0.0,0.0,0.0,0.0,0.0,0.0,0.0,0.0,0.0,0.0,0.0,0.0,0.0,0.0,0.0,0.0,0.0,0.0,-3.4506,-3.9027,-4.2575,-4.3856,-4.4005,-4.4005,-4.4005,-4.1713,-3.8543,-3.4481,0.0,0.0,0.0,0.0,0.0,0.0,0.0,0.0,0.0,0.0,0.0,0.0,0.0,0.0,0.0,0.0,0.0,0.0,0.0,0.0,0.0,0.0,0.0,0.0,0.0,0.0,0.0,0.0,0.0,0.0,0.0,0.0,0.0,0.0,0.0,0.0,0.0,0.0,0.0,0.0,0.0,0.0,0.0,0.0,0.0,0.0,0.0,0.0,0.0,0.0,0.0,0.0,0.0,0.0,0.0,0.0,0.0,0.0,0.0,0.0,0.0,0.0,0.0,0.0,0.0,0.0,0.0,0.0,0.0,0.0,0.0,0.0,0.0,0.0,0.0,0.0,0.0,0.0,0.0,0.0,0.0,0.0,0.0,0.0,0.0,0.0,0.0,0.0,0.0,0.0,0.0,0.0,0.0,0.0,0.0,0.0,0.0,0.0,0.0,0.0,0.0,0.0,-3.5287,-3.977,-4.3113,-4.3912,-4.4005,-4.4005,-4.4005,-4.185,-3.898,-3.5391,0.0,0.0,0.0,0.0,0.0,0.0,0.0,0.0,0.0,0.0,0.0,0.0,0.0,0.0,0.0,0.0,0.0,0.0,0.0,0.0,0.0,0.0,0.0,0.0,0.0,0.0,0.0,0.0,0.0,0.0,0.0,0.0,0.0,0.0,0.0,0.0,0.0,0.0,0.0,0.0,0.0,0.0,0.0,0.0,0.0,0.0,0.0,0.0,0.0,0.0,0.0,0.0,0.0,0.0,0.0,0.0,0.0,0.0,0.0,0.0,-3.247,-3.021,0.0,0.0,0.0,0.0,0.0,0.0,0.0,0.0,0.0,0.0,0.0,0.0,0.0,0.0,0.0,0.0,0.0,0.0,0.0,0.0,0.0,0.0,0.0,0.0,0.0,0.0,0.0,0.0,0.0,0.0,0.0,0.0,0.0,0.0,0.0,0.0,0.0,0.0,0.0,0.0,-3.5287,-3.977,-4.3113,-4.3912,-4.4005,-4.4005,-4.4005,-4.237,-3.989,-3.6475,-3.2889,0.0,0.0,0.0,0.0,0.0,0.0,0.0,0.0,0.0,0.0,0.0,0.0,0.0,0.0,0.0,0.0,0.0,0.0,0.0,0.0,0.0,0.0,0.0,0.0,0.0,0.0,0.0,0.0,0.0,0.0,0.0,0.0,0.0,0.0,0.0,0.0,0.0,0.0,0.0,0.0,0.0,0.0,0.0,0.0,0.0,0.0,0.0,0.0,0.0,0.0,0.0,0.0,0.0,0.0,0.0,0.0,0.0,0.0,0.0,-3.721,-3.4994,0.0,0.0,0.0,0.0,0.0,0.0,0.0,0.0,0.0,0.0,0.0,0.0,0.0,0.0,0.0,0.0,0.0,0.0,0.0,0.0,0.0,0.0,0.0,0.0,0.0,0.0,0.0,0.0,0.0,0.0,0.0,0.0,0.0,0.0,0.0,0.0,0.0,0.0,0.0,0.0,-3.6402,-4.0587,-4.354,-4.3968,-4.4005,-4.4005,-4.4005,-4.2872,-4.0921,-3.7997,-3.4947,0.0,0.0,0.0,0.0,0.0,0.0,0.0,0.0,0.0,0.0,0.0,0.0,0.0,0.0,0.0,0.0,0.0,0.0,0.0,0.0,0.0,0.0,0.0,0.0,0.0,0.0,0.0,0.0,0.0,0.0,0.0,0.0,0.0,0.0,0.0,0.0,0.0,0.0,0.0,0.0,0.0,0.0,0.0,0.0,0.0,0.0,0.0,0.0,0.0,0.0,0.0,0.0,0.0,-4.2813,-4.4034,-4.5345,-4.5412,-4.5802,-4.6262,-4.3016,-4.1197,-4.0338,-3.6873,0.0,0.0,0.0,0.0,0.0,0.0,0.0,0.0,0.0,0.0,0.0,0.0,0.0,0.0,0.0,0.0,0.0,0.0,0.0,0.0,0.0,0.0,-3.9194,-3.9194,-4.0754,-4.094,-3.6179,0.0,0.0,0.0,0.0,0.0,0.0,0.0,0.0,0.0,0.0,0.0,-3.7782,-4.1553,-4.4005,-4.4005,-4.4005,-4.4005,-4.4005,-4.3392,-4.2017,-3.9677,-3.7234,-3.4094,0.0,0.0,0.0,0.0,0.0,0.0,0.0,0.0,0.0,0.0,0.0,0.0,0.0,0.0,0.0,0.0,0.0,0.0,0.0,0.0,0.0,0.0,0.0,0.0,0.0,0.0,0.0,0.0,0.0,0.0,0.0,0.0,-2.7645,-2.9163,0.0,0.0,0.0,0.0,0.0,0.0,0.0,0.0,0.0,0.0,0.0,0.0,0.0,-4.074,-4.2894,-4.5265,-4.6876,-4.7692,-4.9972,-5.1176,-5.1454,-5.2084,-5.2474,-5.2586,-5.2067,0.0,-4.2944,-4.1697,0.0,0.0,0.0,0.0,0.0,0.0,0.0,0.0,0.0,0.0,0.0,0.0,0.0,0.0,0.0,0.0,0.0,0.0,0.0,0.0,0.0,0.0,-4.4321,-4.4321,-4.4562,-4.4599,-4.3838,-3.9765,-3.5696,-3.39,-3.2351,-3.0995,0.0,0.0,0.0,0.0,0.0,0.0,-3.8618,-4.1906,-4.4005,-4.4005,-4.4005,-4.4005,-4.4005,-4.3893,-4.3113,-4.1367,-3.9588,-3.723,-3.4243,-3.0534,0.0,0.0,0.0,0.0,0.0,0.0,0.0,0.0,0.0,0.0,0.0,0.0,0.0,0.0,0.0,0.0,0.0,0.0,0.0,0.0,0.0,0.0,0.0,0.0,0.0,0.0,0.0,0.0,0.0,-2.7955,-3.0236,-3.0887,-3.1218,-3.1032,0.0,0.0,0.0,0.0,0.0,0.0,0.0,0.0,0.0,-4.3781,-4.508,-4.6709,-4.8764,-5.0322,-5.1473,-5.2289,-5.3384,-5.4183,-5.4704,-5.486,-5.4948,-5.497,-5.4847,-5.2841,-4.9445,-4.693,-4.4391,-4.1882,0.0,0.0,0.0,0.0,-4.0105,-4.0812,-4.2546,-4.2667,-4.1955,-4.1369,0.0,0.0,0.0,0.0,0.0,0.0,0.0,-4.0271,-4.1534,-4.3893,-4.6085,-4.6531,-4.6995,-4.72,-4.6754,-4.4655,-4.185,-3.8358,-3.6705,-3.5064,-3.2407,-3.1719,0.0,0.0,0.0,-3.8247,-4.0253,-4.2556,-4.4005,-4.4005,-4.4005,-4.4005,-4.4005,-4.4005,-4.3503,-4.2352,-4.0736,-3.8846,-3.6616,-3.3395,-3.0237,0.0,0.0,0.0,0.0,0.0,0.0,0.0,0.0,0.0,0.0,0.0,0.0,0.0,0.0,0.0,0.0,0.0,0.0,0.0,0.0,0.0,0.0,0.0,0.0,0.0,0.0,0.0,0.0,-3.0942,-3.276,-3.3345,-3.4718,-3.5016,0.0,0.0,0.0,0.0,0.0,0.0,-4.2335,-4.4037,-4.6149,-4.8802,-5.0453,-5.19,-5.32,-5.4035,-5.4853,-5.5652,-5.5652,-5.6097,-5.6915,-5.6712,-5.6631,-5.661,-5.6461,-5.5914,-5.4862,-5.1315,-4.855,-4.6361,-4.4121,-4.3292,-4.3396,-4.3818,-4.4548,-4.5628,-4.7441,-4.7752,-4.7171,-4.6082,-4.4411,-4.2325,-3.988,0.0,0.0,0.0,0.0,-4.2909,-4.4525,-4.5862,-4.7014,-4.7813,-4.8463,-4.8742,-4.8147,-4.785,-4.6494,-4.2426,-4.094,-3.925,-3.5807,-3.533,0.0,-3.5739,0.0,-4.003,-4.1683,-4.3132,-4.4005,-4.4005,-4.4005,-4.4005,-4.4005,-4.4005,-4.3745,-4.3132,-4.1575,-4.0084,-3.8771,-3.598,-3.2908,-2.9638,0.0,0.0,0.0,0.0,0.0,0.0,0.0,0.0,0.0,0.0,0.0,0.0,0.0,0.0,0.0,0.0,0.0,0.0,0.0,0.0,0.0,0.0,0.0,0.0,0.0,0.0,0.0,0.0,0.0,-3.834,-3.9486,0.0,0.0,0.0,0.0,-4.1007,-4.3457,-4.5885,-4.8248,-5.0025,-5.1398,-5.2327,-5.3905,-5.4778,-5.489,-5.5744,-5.658,-5.7379,-5.7379,-5.7806,-5.8586,-5.8566,-5.8566,-5.8566,-5.8545,-5.8021,-5.6953,-5.4126,-5.2435,-5.1444,-4.9738,-4.9133,-4.9097,-4.8438,-4.879,-4.9621,-4.9806,-4.9879,-5.0024,-5.0785,-4.8853,-4.6215,-4.6048,-4.4358,0.0,0.0,-4.4413,-4.5472,-4.7107,-4.7571,-4.785,-4.8649,-4.8872,-4.889,-4.8853,-4.824,-4.7181,-4.5398,-4.4339,-4.3206,-4.146,0.0,-3.912,-3.9955,-4.0215,-4.0936,-4.2519,-4.3485,-4.4005,-4.4005,-4.4005,-4.4005,-4.4005,-4.4005,-4.3986,-4.3949,-4.2369,-4.1385,-4.1231,-3.8026,-3.5173,-3.2809,-2.9998,0.0,0.0,0.0,0.0,0.0,0.0,0.0,0.0,0.0,0.0,0.0,0.0,0.0,0.0,0.0,0.0,0.0,0.0,0.0,0.0,0.0,0.0,0.0,0.0,0.0,0.0,0.0,0.0,-4.256,-4.3722,0.0,-4.3485,-4.4122,-4.5259,-4.6908,-4.839,-5.0265,-5.2661,-5.3385,-5.4351,-5.5707,-5.632,-5.6859,-5.7379,-5.7695,-5.7992,-5.8271,-5.8271,-5.8419,-5.8696,-5.8614,-5.8553,-5.8553,-5.8526,-5.8317,-5.7941,-5.6943,-5.542,-5.3626,-5.3019,-5.2508,-5.2071,-5.1815,-5.2339,-5.3197,-5.3198,-5.2883,-5.2364,-5.1639,-5.0265,-4.8872,-4.8834,-4.8203,-4.7571,-4.7906,-4.8593,-4.9355,-4.993,-5.0079,-5.0153,-5.0432,-5.0506,-5.0358,-4.98,-4.9447,-4.8927,-4.7831,-4.6531,-4.5082,-4.3429,-4.354,-4.3596,-4.2835,-4.3633,-4.4525,-4.5101,-4.4971,-4.4841,-4.4841,-4.4321,-4.4005,-4.4005,-4.4005,-4.3782,-4.3262,-4.2173,-4.1275,-4.0648,-3.8487,-3.6287,-3.4147,-3.2028,-2.8697,0.0,0.0,0.0,0.0,0.0,0.0,0.0,0.0,0.0,0.0,0.0,0.0,0.0,0.0,0.0,0.0,0.0,0.0,0.0,0.0,0.0,0.0,0.0,0.0,0.0,-4.0193,-4.2835,-4.5278,-4.7299,-4.83,-4.7794,-4.893,-5.0248,-5.164,-5.2289,-5.3571,-5.5744,-5.5856,-5.6487,-5.7862,-5.7899,-5.8159,-5.8698,-5.8716,-5.8716,-5.8716,-5.8716,-5.8716,-5.8696,-5.8614,-5.8553,-5.8572,-5.8526,-5.8483,-5.8483,-5.8483,-5.7476,-5.5895,-5.5594,-5.5152,-5.4658,-5.4404,-5.4746,-5.533,-5.5408,-5.5094,-5.4481,-5.3404,-5.2308,-5.1416,-5.1361,-5.0971,-5.0543,-5.058,-5.0989,-5.1398,-5.1398,-5.1398,-5.1398,-5.1398,-5.1398,-5.1249,-5.0655,-5.0543,-5.0302,-4.9466,-4.8221,-4.6865,-4.5491,-4.6178,-4.6438,-4.5045,-4.5788,-4.6494,-4.6494,-4.603,-4.5602,-4.5324,-4.4785,-4.4321,-4.4023,-4.3745,-4.3485,-4.3225,-4.1895,-4.0848,-4.0233,-3.8613,-3.6709,-3.4546,-3.2382,-2.9757,-2.6609,0.0,0.0,0.0,0.0,0.0,0.0,0.0,0.0,0.0,0.0,0.0,0.0,0.0,0.0,0.0,0.0,0.0,0.0,0.0,0.0,0.0,0.0,0.0,-4.0381,-4.3259,-4.5649,-4.6605,-5.0228,-5.2048,-5.0543,-5.2512,-5.4221,-5.502,-5.5094,-5.58,-5.7453,-5.7546,-5.7899,-5.8679,-5.8716,-5.8716,-5.8754,-5.8754,-5.8754,-5.8754,-5.8754,-5.8735,-5.8716,-5.8716,-5.8716,-5.8716,-5.8716,-5.8716,-5.8716,-5.8696,-5.8614,-5.8415,-5.7568,-5.7165,-5.6967,-5.6248,-5.5974,-5.6013,-5.6258,-5.6339,-5.6339,-5.632,-5.5206,-5.3868,-5.385,-5.2754,-5.1509,-5.1472,-5.1472,-5.1472,-5.1472,-5.1472,-5.1472,-5.1472,-5.1472,-5.1472,-5.1435,-5.1435,-5.1175,-5.032,-4.9503,-4.8686,-4.7887,-4.7738,-4.746,-4.668,-4.6568,0.0,-4.6568,-4.655,-4.6234,-4.5454,-4.5324,-4.4952,-4.4116,-4.3299,-4.315,-4.3875,-4.1612,-4.0233,-4.0196,-3.8516,-3.6492,-3.4173,-3.1163,-2.938,-2.8914,0.0,0.0,0.0,0.0,0.0,0.0,0.0,0.0,0.0,0.0,0.0,0.0,0.0,0.0,0.0,0.0,0.0,0.0,0.0,0.0,0.0,-4.0888,-4.3878,-4.4676,-4.6087,-4.8204,-5.1416,-5.2791,-5.3775,-5.4556,-5.5224,-5.5949,-5.6747,-5.6822,-5.7268,-5.8308,-5.8382,-5.8475,-5.8698,-5.8716,-5.8995,-5.955,-5.9571,-5.9571,-5.9571,-5.9571,-5.9274,-5.8716,-5.8716,-5.8716,-5.8716,-5.8716,-5.8716,-5.8677,-5.8593,-5.8532,-5.8492,-5.8246,-5.8132,-5.8073,-5.7854,-5.7844,-5.7872,-5.7359,-5.7175,-5.7082,-5.6487,-5.5986,-5.5484,-5.4871,-5.437,-5.3887,-5.3311,-5.3144,-5.3144,-5.3144,-5.3144,-5.3144,-5.3144,-5.3144,-5.2977,-5.2401,-5.2271,-5.2029,-5.1193,-5.0358,-4.9522,-4.8723,-4.8574,-4.85,-4.8277,-4.824,0.0,-4.824,-4.7738,-4.7293,-4.7051,-4.5992,-4.5194,-4.4952,-4.4153,-4.3262,-4.2314,-4.1553,-4.0848,-4.0159,-3.8221,-3.6449,-3.4916,-3.2967,-3.1777,0.0,0.0,0.0,0.0,0.0,0.0,0.0,0.0,0.0,0.0,0.0,0.0,0.0,0.0,0.0,0.0,0.0,0.0,0.0,0.0,0.0,0.0,-4.4321,-4.7441,-4.9299,-4.9968,-5.1138,-5.3534,-5.4723,-5.5744,-5.671,-5.7119,-5.7509,-5.7973,-5.8011,-5.8215,-5.8679,-5.9032,-5.9218,-5.9218,-5.9571,-5.998,-6.0444,-6.0444,-6.0444,-6.0444,-6.0444,-6.0202,-5.9738,-5.9385,-5.9218,-5.9181,-5.8865,-5.8716,-5.8677,-5.8614,-5.8574,-5.8574,0.0,0.0,0.0,0.0,-5.8574,-5.8642,-5.8159,-5.8011,-5.7936,-5.7472,-5.7082,-5.671,-5.6209,-5.5819,-5.5373,-5.4537,-5.4314,-5.424,-5.3887,-5.3813,-5.3813,-5.3813,-5.3813,-5.3683,-5.32,-5.3107,-5.2865,-5.2067,-5.1491,0.0,-4.9596,-4.9132,-4.8909,-4.8909,-4.8909,-4.8909,-4.8909,-4.85,-4.8073,-4.7738,-4.6865,-4.603,-4.5361,-4.4506,0.0,0.0,0.0,-4.0952,-3.9649,-3.7945,0.0,0.0,0.0,0.0,0.0,0.0,0.0,0.0,-3.118,-3.1127,0.0,0.0,0.0,0.0,0.0,0.0,0.0,0.0,0.0,0.0,0.0,0.0,0.0,0.0,0.0,0.0,-4.7237,-5.0395,-5.3497,-5.411,-5.4221,-5.4221,-5.6172,-5.7546,-5.7639,-5.8289,-5.8716,-5.8716,-5.8791,-5.8846,-5.8846,-5.9627,0.0,0.0,0.0,-6.1243,-6.1336,-6.1354,-6.1354,-6.1354,-6.1354,-6.1298,-6.1168,-6.0407,-6.0033,-6.0017,-5.9199,-5.8846,-5.8846,-5.8714,-5.8696,-5.8656,-5.8553,-5.8486,-5.8437,-5.8508,-5.8593,-5.8716,-5.8716,0.0,0.0,-5.8716,-5.8234,-5.7621,-5.7528,-5.7008,-5.6265,-5.5391,-5.515,-5.4964,-5.4147,-5.3943,-5.3924,-5.3831,-5.3813,-5.3813,-5.3813,-5.3813,-5.359,-5.2865,-5.2661,-5.2141,-5.0636,-4.9652,-4.902,-4.8909,-4.8909,-4.8909,-4.8909,-4.8909,-4.863,-4.7906,0.0,0.0,-4.5565,-4.4636,-4.4079,-4.3875,-4.2519,-4.0896,-3.9105,-3.8133,-3.7312,-3.6648,-3.6334,-3.6669,-3.7681,-3.7655,-3.7668,-3.765,-3.3527,-3.2992,0.0,0.0,0.0,0.0,0.0,0.0,0.0,0.0,0.0,0.0,0.0,0.0,0.0,0.0,0.0,-4.7311,-5.0172,-5.2568,-5.45,-5.593,-5.6785,-5.6785,-5.7212,-5.7751,-5.8401,-5.8624,-5.8716,-5.8716,-5.9311,-5.9682,-5.9682,-6.0481,-6.0945,-6.0945,-6.1113,-6.1521,-6.2171,-6.2171,-6.2171,-6.2171,-6.2171,0.0,-6.1187,-6.1038,-6.0945,-6.0908,-6.0054,-5.9682,-5.9605,-5.8853,-5.8532,-5.8553,-5.8635,-5.8635,-5.8654,-5.8656,-5.8696,-5.8716,-5.8716,-5.8716,-5.8716,-5.8716,-5.8605,-5.8364,-5.7713,-5.7398,0.0,-5.6283,-5.606,-5.5856,-5.5001,-5.4779,-5.4611,-5.3961,-5.3813,-5.3813,-5.3813,-5.3813,-5.3757,-5.3608,-5.3051,-5.2512,-5.2178,-5.0915,-4.9707,-4.902,-4.8909,-4.8909,-4.8909,-4.8909,-4.8834,-4.8686,-4.8091,-4.7311,-4.6345,-4.5509,-4.4469,-4.3113,-4.2699,-4.1671,-3.986,-4.0491,-4.0184,-3.8669,-3.8588,-3.8646,-3.8877,-3.8569,-3.8681,-3.9232,-3.7749,-3.7081,0.0,0.0,0.0,0.0,0.0,0.0,0.0,0.0,0.0,0.0,0.0,-3.9547,0.0,0.0,-4.7571,-5.0822,-5.2735,-5.437,-5.6023,-5.697,-5.7509,-5.7509,-5.7862,-5.8271,-5.8661,-5.8716,-5.8884,-5.9274,-5.9682,-6.011,-6.0537,-6.1354,-6.18,-6.18,-6.219,-6.2599,-6.3007,-6.3007,-6.3007,-6.3007,-6.3007,-6.2803,-6.2394,-6.1986,-6.18,-6.1763,-6.0927,-6.0314,-5.9828,-5.8969,-5.8614,-5.8614,-5.8656,-5.8716,-5.8716,-5.8716,-5.8716,-5.8716,-5.8716,-5.8716,-5.8716,-5.8716,-5.8716,-5.8624,-5.8234,-5.8103,-5.7936,-5.7138,-5.6896,-5.671,-5.5874,-5.5336,-5.4909,-5.45,-5.4091,-5.3813,-5.3813,-5.3813,-5.3813,-5.3813,-5.3478,-5.307,-5.2679,-5.1936,-5.0971,-4.9689,-4.9169,-4.8909,-4.8909,-4.8909,-4.8909,-4.8909,-4.8537,-4.798,-4.7163,-4.584,-4.4467,-4.3082,-4.2804,-4.2193,-4.1089,-4.1286,-4.0999,-4.0129,-3.988,-3.9857,-4.0038,-3.9847,-3.9945,-4.0284,-3.9928,-3.9549,0.0,0.0,0.0,0.0,0.0,0.0,0.0,0.0,-3.6798,-4.0085,-4.2092,-4.4098,-4.6921,-4.9336,-5.1639,-5.3924,-5.4964,-5.6023,-5.7528,-5.7732,-5.7732,-5.7732,-5.8308,-5.8716,-5.8716,-5.8716,-5.9032,-5.9828,-6.0072,-6.0537,-6.1391,-6.2209,-6.2636,-6.2636,-6.3267,-6.3602,-6.3602,-6.3602,-6.3602,-6.3602,-6.3602,-6.3602,-6.3583,-6.2933,-6.2636,-6.2599,-6.1759,-6.0809,-5.9783,-5.9155,-5.8784,-5.8654,-5.8654,-5.8635,-5.8656,-5.8677,-5.8716,-5.8716,-5.8716,-5.8716,-5.8716,-5.8716,-5.8716,-5.8716,-5.8716,-5.8716,-5.8568,-5.7918,-5.7732,-5.7565,-5.6747,-5.6023,-5.5466,-5.5299,-5.463,-5.4035,-5.4035,-5.3924,-5.3813,-5.3813,-5.3813,-5.359,-5.294,-5.2698,-5.2029,-5.0358,-4.9559,-4.9076,-4.8927,-4.8909,-4.8909,-4.8909,-4.8909,-4.8557,-4.7672,-4.5838,-4.4361,-4.3397,-4.2936,-4.2462,-4.205,-4.1432,-4.109,-4.0988,-4.0608,-4.0582,-4.0912,-4.0912,-4.0912,-4.0912,-4.105,-4.105,-3.2415,-3.3117,-3.4309,-3.5887,-3.5751,-3.6773,0.0,0.0,-4.276,-4.6067,-4.8017,-4.9503,-5.0636,-5.2252,-5.398,-5.5726,-5.671,-5.7546,-5.8438,-5.8586,-5.8586,-5.8586,-5.8661,-5.8716,-5.8716,-5.8716,-5.9032,-5.9828,-6.063,-6.141,-6.2227,-6.3044,-6.3472,-6.3472,-6.3565,-6.3602,-6.3602,-6.3602,-6.3602,-6.3602,-6.3602,-6.3602,-6.3602,-6.3527,-6.3472,-6.3412,-6.2487,-6.1133,-5.9638,-5.9546,-5.9084,-5.8437,-5.8437,-5.8483,-5.8532,-5.8656,-5.8716,-5.8716,-5.8716,-5.8716,-5.8716,-5.8716,-5.8716,-5.8716,-5.8716,-5.8716,-5.8679,-5.8605,-5.8586,-5.8382,-5.7583,-5.7286,-5.7045,-5.632,-5.5503,-5.4871,-5.4871,-5.4314,-5.3813,-5.3813,-5.3813,-5.3775,-5.3683,-5.307,-5.2029,-5.0358,-5.0023,-4.9707,-4.9002,-4.8909,-4.8909,-4.8909,-4.8909,-4.8451,-4.7352,-4.5571,-4.4346,-4.3935,-4.3054,-4.2306,-4.1761,-4.1676,-4.1389,-4.092,-4.085,-4.0855,-4.0912,-4.0912,-4.0912,-4.0929,-4.1585,-4.1533,-3.7387,-3.8201,-3.8901,-4.055,-4.1423,-4.2612,-4.5361,-4.6178,-4.6865,-4.8723,-5.0413,-5.1806,-5.2642,-5.4147,-5.5652,0.0,-5.7676,-5.8326,-5.8661,-5.8716,-5.8531,-5.8066,-5.8419,-5.8716,-5.8716,-5.8716,-5.9255,-6.0574,-6.1001,-6.1763,-6.3044,-6.3435,-6.3602,-6.3602,-6.3602,-6.3602,-6.3602,-6.3602,-6.3602,-6.3602,-6.3602,-6.3602,-6.3602,-6.3602,-6.3602,-6.3542,-6.268,-6.1893,-6.1145,-6.0181,-5.9545,-5.9168,-5.8668,-5.8443,-5.8462,-5.8551,-5.8635,-5.8716,-5.8716,-5.8716,-5.8716,-5.8716,-5.8716,-5.8716,-5.8716,-5.8716,-5.8716,-5.8716,-5.8716,-5.8624,-5.8289,-5.7862,-5.7416,-5.7082,-5.6357,-5.5633,-5.5113,-5.4741,-5.437,-5.3887,-5.3813,-5.3813,-5.3813,-5.3534,-5.2902,-5.1732,-5.0729,-4.9986,-4.9652,-4.9187,-4.8909,-4.8909,-4.8856,-4.8381,-4.7243,-4.6133,-4.5162,-4.4402,-4.3148,-4.2445,-4.2449,-4.1668,-4.1232,-4.1237,-4.1018,-4.1119,-4.155,-4.155,-4.1792,-4.224,-4.2551,-4.2534,-4.0314,-4.1527,-4.2593,-4.4005,-4.5769,-4.7218,-4.746,-4.8779,-5.0098,-5.0673,-5.1936,-5.3181,-5.398,-5.5317,-5.6562,-5.7379,-5.8196,-5.8716,-5.8716,-5.8512,-5.8252,-5.7881,-5.8159,-5.8475,-5.8679,-5.8716,-5.9404,-6.1076,-6.1206,-6.1911,-6.3527,-6.3602,-6.3602,-6.3602,-6.3602,-6.3602,-6.3602,-6.3602,-6.3602,-6.3602,-6.3602,-6.3602,-6.3602,-6.3602,-6.3579,-6.3497,-6.2944,-6.2509,-6.2127,-6.0744,-5.9955,-5.9608,-5.8779,-5.8443,-5.844,-5.8465,-5.8551,-5.8656,-5.8696,-5.8716,-5.8716,-5.8716,-5.8716,-5.8716,-5.8716,-5.8716,-5.8716,-5.8716,-5.8716,-5.8716,-5.8716,-5.8271,-5.7843,-5.7843,-5.723,-5.6469,-5.5837,-5.5336,-5.4795,-5.4123,-5.3904,-5.3737,-5.3561,-5.36,-5.3416,-5.2764,-5.1414,-5.0435,-5.0305,-4.951,-4.8882,-4.8678,-4.8624,-4.8218,-4.729,-4.6481,-4.566,-4.4787,-4.3407,-4.2759,-4.3054,-4.2078,-4.1682,-4.1957,-4.1665,-4.1809,-4.2344,-4.2344,-4.2637,-4.3189,-4.3414,-4.35,-3.9584,-4.1497,-4.4135,-4.5026,-4.7051,-4.9057,-4.9893,-5.1323,-5.2494,-5.2512,-5.32,-5.4017,-5.4834,-5.5707,-5.6562,-5.7379,-5.8196,-5.8716,-5.8716,-5.8029,-5.7825,-5.8586,-5.8011,-5.7843,0.0,-5.8716,-5.9404,-6.1076,-6.1206,-6.1911,-6.3527,-6.3602,-6.3602,-6.3602,-6.3602,-6.3602,-6.3602,-6.3602,-6.3602,-6.3602,-6.3602,-6.3602,-6.3602,-6.3602,-6.3534,-6.3382,-6.3363,-6.2761,-6.1756,-6.1066,-6.025,-5.9324,-5.8663,-5.844,-5.8489,-5.8437,-5.8462,-5.8532,-5.8656,-5.8716,-5.8716,-5.8716,-5.8716,-5.8716,-5.8716,-5.8716,-5.8716,-5.8716,-5.8716,-5.8716,-5.8716,-5.8679,-5.8661,-5.8661,-5.8048,-5.7472,-5.7435,-5.6153,-5.4903,-5.4562,-5.4117,-5.36,-5.2937,-5.3109,-5.3196,-5.2835,-5.2021,-5.1289,-5.0847,-4.9783,-4.8814,-4.8105,-4.8032,-4.7891,-4.7518,-4.6328,-4.5478,-4.5099,-4.3875,-4.318,-4.318,-4.3162,-4.312,-4.3145,-4.312,-4.3138,-4.3155,-4.3155,-4.3172,-4.3224,-4.3931,-4.4276,-4.2498,-4.4737,-4.6643,-4.7478,-4.954,-5.1435,-5.1732,-5.2624,-5.3237,-5.2717,-5.2401,-5.2457,-5.3255,-5.3645,-5.4481,-5.6395,-5.7379,-5.8103,-5.8624,-5.8475,-5.8215,-5.7955,-5.8141,0.0,0.0,0.0,0.0,-6.0258,-6.0871,-6.167,-6.2766,-6.3323,-6.3602,-6.3602,-6.3602,-6.3602,-6.3602,-6.3602,-6.3602,-6.3602,-6.3602,-6.3602,-6.3598,-6.3511,-6.3447,-6.34,-6.3307,-6.3047,-6.2662,-6.2008,-6.1131,-6.0158,-5.9564,-5.8899,-5.8312,-5.8422,-5.8486,-5.8511,-5.8553,-5.8553,-5.8574,-5.8656,-5.8716,-5.8716,-5.8716,-5.8716,-5.8716,-5.8716,-5.8716,-5.8716,-5.8716,-5.8716,-5.8716,-5.8716,-5.8494,-5.8159,-5.7621,-5.7063,-5.622,-5.478,-5.4359,-5.3946,-5.2963,-5.2893,-5.2937,-5.2806,-5.2073,-5.1256,-5.0558,-4.9674,-4.8992,-4.8776,-4.8204,-4.7813,-4.7708,-4.6793,-4.6153,-4.6029,-4.4714,-4.3931,-4.3931,-4.3465,-4.3189,-4.3189,-4.3189,-4.3431,-4.3931,-4.3931,-4.419,-4.4682,-4.4923,-4.5044,-4.5166,-4.7057,-4.8463,-4.9875,-5.1416,-5.2605,-5.2605,-5.2995,-5.3051,-5.1936,-5.1305,-5.1008,-5.1249,-5.1528,-5.2549,-5.502,-5.6079,-5.71,-5.8512,-5.8456,-5.8196,-5.7973,-5.8141,-5.8196,0.0,0.0,0.0,-5.9828,-6.0723,-6.1558,-6.2376,-6.3175,-6.3602,-6.3602,-6.3602,-6.3602,-6.3602,-6.3602,-6.3602,-6.3602,-6.3602,-6.3579,-6.3534,-6.3447,-6.3377,-6.3331,-6.3237,-6.3165,-6.3068,-6.2415,-6.1514,-6.054,-5.9971,-5.9139,-5.8312,-5.8422,-5.8486,-5.8511,-5.8511,-5.8511,-5.8511,-5.8572,-5.8612,-5.8635,-5.8635,-5.8656,-5.8716,-5.8716,-5.8716,-5.8716,-5.8716,-5.8716,-5.8716,-5.8716,-5.8716,-5.8568,-5.8048,-5.7713,-5.7073,-5.5686,-5.5007,-5.4331,-5.3249,-5.2694,-5.2421,-5.2421,-5.1927,-5.1316,-5.0671,-5.0003,-4.9394,-4.8855,-4.8283,-4.7803,-4.741,-4.6776,-4.6352,-4.6255,-4.5265,-4.4682,-4.4682,-4.4234,-4.3975,-4.3975,-4.3975,-4.4216,-4.4682,-4.4682,-4.4941,-4.5397,-4.5397,-4.5397,-4.7311,-4.8407,-4.9652,-5.2011,-5.2605,-5.2605,-5.2605,-5.2531,-5.2011,-5.032,-4.9912,-4.9596,0.0,0.0,-5.0841,-5.3237,-5.4444,-5.593,-5.8364,-5.8048,-5.7862,0.0,0.0,0.0,0.0,0.0,0.0,-5.9924,0.0,-6.1558,-6.2376,-6.3175,-6.3602,-6.3602,-6.3602,-6.3602,-6.3602,-6.3602,-6.3602,-6.3602,-6.3579,-6.3534,-6.34,-6.34,-6.3307,-6.3189,-6.3189,-6.3117,-6.2929,-6.2311,-6.1513,-6.059,-5.9918,-5.9198,-5.8523,-5.8437,-5.844,-5.8489,-5.8489,-5.8489,-5.8489,-5.8437,-5.8462,-5.8511,-5.8489,-5.8574,-5.8696,-5.8696,-5.8696,-5.8677,-5.8716,-5.8716,-5.8716,-5.8716,-5.8716,-5.8716,-5.8677,-5.8103,-5.7443,-5.7048,-5.5849,-5.4601,-5.3644,-5.2483,-5.169,-5.169,-5.1665,-5.1547,-5.1182,-5.0773,-4.9942,-4.8461,-4.8229,-4.7761,-4.6737,-4.6368,-4.6062,-4.5811,-4.5537,-4.5397,-4.5397,-4.5397,-4.5397,-4.5397,-4.5397,-4.5397,-4.5397,-4.5397,-4.5397,-4.5397,-4.5397,-4.5397,-4.7999,-5.0098,-5.1806,-5.2438,-5.2605,-5.2605,-5.2605,-5.1639,-5.0283,-4.8649,-4.7367,-4.6085,0.0,0.0,0.0,-5.0748,-5.3813,0.0,-5.8438,-5.8531,0.0,-5.9494,0.0,-5.9627,-6.0481,-6.0574,0.0,0.0,-6.1076,-6.1558,-6.2376,-6.3175,-6.3602,-6.3602,-6.3602,-6.3602,-6.3602,-6.3602,-6.3602,-6.3602,-6.3511,-6.3424,-6.34,-6.3194,-6.3075,-6.3051,-6.2947,-6.288,-6.2855,-6.2781,-6.2186,-6.1281,-6.0725,-5.9959,-5.912,-5.8593,-5.8415,-5.8396,-5.8308,-5.8359,-5.8489,-5.8486,-5.8489,-5.8489,-5.844,-5.844,-5.8483,-5.8551,-5.8553,-5.8574,-5.8677,-5.8716,-5.8716,-5.8716,-5.8716,-5.8656,-5.8553,-5.8468,-5.8008,-5.6653,-5.4803,-5.3339,-5.3096,-5.2283,-5.164,-5.1436,-5.1384,-5.1442,-5.1529,-5.0919,-5.0278,-4.9689,-4.8582,-4.7687,-4.7171,-4.6378,-4.5887,-4.5811,-4.5537,-4.5397,-4.5397,-4.5397,-4.5397,-4.5397,-4.5397,-4.5397,-4.5397,-4.5397,-4.5397,-4.5397,-4.5397,-4.5397,-4.9968,-5.1806,-5.3144,-5.3144,-5.2865,-5.2308,-5.1231,-4.9986,-4.8277,-4.5584,-4.4302,0.0,-4.1479,-4.3559,-4.6327,0.0,0.0,0.0,-5.7843,-5.8494,-5.9014,0.0,-5.9884,0.0,-6.1131,-6.1206,-6.1354,0.0,-6.1744,-6.193,-6.2394,-6.3175,-6.3602,-6.3602,-6.3602,-6.3602,-6.3602,-6.3602,-6.3579,-6.3511,-6.3447,-6.3354,-6.3218,-6.3075,-6.2978,-6.2904,-6.283,-6.278,-6.2823,-6.288,-6.2402,-6.1545,-6.088,-6.0116,-5.9306,-5.8581,-5.8349,-5.8393,-5.8327,-5.8375,-5.8443,-5.84,-5.8425,-5.8489,-5.8443,-5.8483,-5.8526,-5.8511,-5.8511,-5.8511,-5.8569,-5.8569,-5.8569,-5.8569,-5.8569,-5.8465,-5.8127,-5.8105,-5.7712,-5.6139,-5.4733,-5.3557,-5.2862,-5.2217,-5.167,-5.1158,-5.1079,-5.1132,-5.1289,-5.0925,-5.0441,-4.9985,-4.9148,-4.8377,-4.7709,-4.7134,-4.6621,-4.6161,-4.602,-4.5759,-4.5414,-4.5397,-4.5397,-4.5397,-4.5397,-4.5397,-4.5397,-4.5397,-4.5397,-4.5397,-4.5397,-4.5587,-5.2141,-5.32,-5.3813,-5.3813,-5.3032,-5.1695,-4.9429,-4.7943,-4.5974,-4.2222,0.0,-4.0624,-3.9064,-4.0977,-4.3838,-4.7014,0.0,-5.3868,-5.7045,-5.8289,-5.9162,-5.9998,-6.0184,-6.0574,-6.1428,-6.1521,-6.1819,-6.2524,-6.2562,-6.2562,-6.2562,-6.323,-6.3602,-6.3602,-6.3579,-6.3579,-6.3579,-6.3557,-6.3488,-6.3377,-6.3354,-6.3218,-6.3002,-6.2978,-6.2904,-6.278,-6.278,-6.278,-6.278,-6.278,-6.2401,-6.1667,-6.0768,-6.005,-5.9407,-5.8506,-5.8242,-5.8349,-5.8349,-5.8371,-5.8349,-5.8242,-5.8312,-5.8468,-5.8468,-5.8551,-5.8614,-5.8532,-5.8511,-5.8489,-5.8418,-5.8353,-5.8308,-5.8286,-5.8223,-5.8006,-5.7486,-5.7321,-5.693,-5.5708,-5.5107,-5.4392,-5.2981,-5.2322,-5.1758,-5.1012,-5.0819,-5.0739,-5.0712,-5.0766,-5.0548,-4.9863,-4.9705,-4.9266,-4.829,-4.808,-4.7669,-4.6786,-4.6751,-4.6414,-4.5725,-4.5707,-4.5707,-4.5707,-4.5707,-4.5707,-4.5707,-4.5707,-4.5707,-4.5707,-4.5707,-4.6069,-5.2141,-5.32,-5.3813,-5.3813,-5.2197,-5.0302,-4.9169,-4.6178,0.0,0.0,-3.951,-3.8247,-3.7281,-4.0234,-4.3652,-4.6271,-5.058,-5.4518,-5.7138,-5.8772,-6.0017,0.0,-6.1577,-6.2301,-6.3119,-6.3193,0.0,0.0,-6.3397,-6.3397,-6.3397,-6.3527,-6.3602,-6.3602,-6.3492,-6.3424,-6.3424,-6.3331,-6.326,-6.3237,-6.3123,-6.3051,-6.3002,-6.288,-6.2805,-6.278,-6.278,0.0,-6.278,-6.278,-6.2707,-6.2456,-6.097,-6.0327,-6.0039,-5.8593,-5.8042,-5.8065,-5.8065,-5.8152,-5.8219,-5.8197,-5.8219,-5.8264,-5.8264,-5.8264,-5.8331,-5.8446,-5.8511,-5.8489,-5.8489,-5.8146,-5.7789,-5.7671,-5.7279,-5.6848,-5.6641,-5.6376,-5.613,-5.5934,-5.5094,-5.4323,-5.4042,-5.2867,-5.185,-5.144,-5.0854,-5.0387,-5.0178,-5.0537,-5.0659,-5.0307,-4.9732,-4.9177,-4.8715,-4.8118,-4.7676,-4.7527,-4.75,-4.7458,-4.7293,-4.7293,-4.7293,-4.7293,-4.7293,-4.7293,-4.7293,-4.7293,-4.7293,-4.7293,-4.7293,-4.7362,-5.2791,-5.3515,-5.3813,-5.3813,-5.1974,-4.9596,-4.7497,0.0,0.0,0.0,-3.7219,-3.6402,-3.5535,-3.8395,0.0,-4.3615,-4.7701,-5.1788,-5.5113,-5.6617,0.0,-6.089,-6.154,-6.2264,0.0,-6.3602,-6.3579,-6.3511,-6.3511,-6.3511,-6.3511,-6.3442,-6.3377,-6.3377,-6.3331,-6.3307,-6.3307,-6.3237,-6.3165,-6.3099,-6.3026,-6.2978,-6.288,-6.283,-6.278,-6.278,-6.278,-6.278,-6.278,-6.278,-6.278,-6.2695,-6.1502,-6.0768,-6.0272,-5.9061,-5.8364,-5.7997,-5.7997,-5.7821,-5.7637,-5.7637,-5.7937,-5.8286,-5.8286,-5.8286,-5.8223,-5.7964,-5.801,-5.8029,-5.7492,-5.7272,-5.7141,-5.692,-5.6412,-5.5974,-5.589,-5.5513,-5.5182,-5.5207,-5.4765,-5.4283,-5.39,-5.3222,-5.2537,-5.1956,-5.1234,-5.0708,-5.058,-5.0477,-5.0331,-5.0206,-4.9894,-4.9584,-4.9441,-4.9114,-4.8706,-4.8293,-4.8258,-4.8086,-4.7707,-4.7689,-4.7689,-4.7689,-4.7689,-4.7689,-4.7689,-4.7689,-4.7689,-4.7689,-4.7689,-4.7896,-5.3107,-5.3683,-5.3775,-5.359,-5.1676,-4.9002,-4.5751,-4.2965,0.0,0.0,-3.5343,-3.5083,-3.4581,0.0,-3.9305,0.0,-4.4989,-4.8927,0.0,0.0,0.0,0.0,0.0,0.0,-6.3472,-6.3579,0.0,-6.34,-6.3354,-6.3331,-6.3354,-6.326,-6.3213,-6.3213,-6.3165,-6.3165,-6.3165,-6.3141,-6.3051,-6.2953,-6.2953,-6.2904,-6.278,-6.278,-6.278,-6.278,-6.278,-6.278,-6.278,-6.278,-6.278,-6.2707,-6.1906,-6.1025,-6.0121,-5.9316,-5.8421,-5.7655,-5.7655,-5.7327,-5.6938,-5.6938,-5.7382,-5.7937,-5.7983,-5.7983,-5.7872,-5.7297,-5.734,-5.7358,-5.6528,-5.6394,-5.6384,-5.5999,-5.556,-5.5194,-5.5194,-5.4834,-5.4512,-5.4512,-5.4512,-5.4322,-5.3736,-5.3511,-5.3201,-5.2532,-5.1808,-5.1356,-5.1356,-5.07,-5.0252,-5.0252,-5.0097,-5.0011,-5.0011,-5.0011,-4.9735,-4.9085,-4.9051,-4.8792,-4.8234,-4.8172,-4.8172,-4.8172,-4.8172,-4.8172,-4.8172,-4.8172,-4.8172,-4.8172,-4.8172,-4.8482,-5.2271,-5.3237,-5.3627,-5.2902,-5.0859,-4.8147,-4.4878,0.0,0.0,-3.603,-3.4866,-3.4544,-3.525,-3.6216,-3.8191,0.0,0.0,-4.8296,0.0,0.0,0.0,0.0,0.0,0.0,-6.3527,-6.3488,-6.3424,-6.34,-6.3171,-6.3099,-6.3213,-6.3213,-6.3213,-6.3213,-6.3075,-6.3026,-6.3026,-6.2904,-6.283,-6.2805,-6.2805,-6.2805,-6.278,-6.278,-6.278,-6.278,-6.278,-6.278,0.0,-6.278,-6.278,-6.2707,-6.1906,-6.0809,-5.9574,-5.8704,-5.758,-5.6465,-5.6465,-5.6412,-5.6384,-5.6384,-5.6438,-5.6501,-5.658,-5.6588,-5.6615,-5.6649,-5.6693,-5.6667,-5.6456,-5.6057,-5.5513,-5.4834,-5.462,-5.4589,-5.4589,-5.4526,-5.4512,-5.4512,-5.4512,-5.4494,-5.4425,-5.3839,-5.3373,-5.3304,-5.2615,-5.2084,-5.2084,-5.1476,-5.1011,-5.1011,-5.0407,-5.0011,-5.0011,-5.0011,-4.9976,-4.9907,-4.989,-4.9873,-4.9804,-4.9804,-4.9804,-4.9804,-4.9804,-4.9804,-4.9804,-4.9804,-4.9804,-4.9804,-4.9804,-4.9821,-5.1398,-5.2828,-5.3608,-5.281,-5.0729,-4.7906,-4.4135,0.0,-3.8265,-3.5312,-3.4439,-3.4309,-3.4643,-3.5417,-3.6996,-4.0067,-4.1768,-4.4443,-4.9447,0.0,0.0,0.0,0.0,0.0,0.0,0.0,-6.3336,-6.3171,-6.2978,-6.2904,-6.2972,-6.2972,-6.2972,-6.2972,-6.2904,-6.288,-6.288,-6.2848,-6.278,-6.278,-6.278,-6.278,-6.278,-6.278,-6.278,-6.278,-6.278,-6.278,0.0,-6.278,-6.278,-6.2718,-6.2065,-6.0895,-5.9498,-5.8754,-5.7567,-5.6303,-5.6303,-5.6055,-5.5744,-5.5744,-5.5502,-5.5355,-5.6103,-5.6349,-5.6295,-5.5946,-5.6019,-5.6037,-5.5408,-5.5087,-5.4848,-5.4557,-5.4512,-5.4512,-5.4512,-5.4512,-5.4512,-5.4512,-5.4512,-5.4512,-5.4512,-5.427,-5.4063,-5.4063,-5.3425,-5.2925,-5.2925,-5.2252,-5.1584,-5.1166,-5.0442,-5.0011,-5.0011,-5.0011,-5.0011,-5.0011,-5.0011,-5.0011,-5.0011,-5.0011,-5.0011,-5.0011,-5.0011,-5.0011,-5.0011,-5.0011,-5.0011,-5.0011,-5.0011,-5.0011,-4.9989,-5.1603,-5.2494,-5.1677,-4.9988,-4.7389,0.0,-4.0531,-3.8172,-3.4884,-3.4197,-3.4197,-3.4197,-3.4915,-3.6203,-3.8368,-3.9777,-4.2245,-4.6999,-4.8526,0.0,0.0,0.0,-5.9118,0.0,-6.2928,-6.3194,-6.2953,-6.2855,-6.278,-6.278,-6.278,-6.278,-6.278,-6.278,-6.278,-6.278,-6.278,-6.278,-6.278,-6.278,-6.278,-6.278,-6.278,-6.278,-6.278,-6.278,-6.278,0.0,-6.278,-6.2705,-6.249,-6.2077,-6.0729,-5.8968,-5.8499,-5.7244,-5.5773,-5.5773,-5.5502,-5.5134,-5.5134,-5.4834,-5.4652,-5.5502,-5.5773,-5.5676,-5.5254,-5.5284,-5.5331,-5.4683,-5.4512,-5.4512,-5.4512,-5.4512,-5.4512,-5.4512,-5.4512,-5.4512,-5.4512,-5.4512,-5.4512,-5.4512,-5.4512,-5.4512,-5.4512,-5.4063,-5.3736,-5.3736,-5.3046,-5.2373,-5.1856,-5.0925,-5.0252,-5.0028,-5.0011,-5.0011,-5.0011,-5.0011,-5.0011,-5.0011,-5.0011,-5.0011,-5.0011,-5.0011,-5.0011,-5.0011,-5.0011,-5.0011,-5.0011,-5.0011,-5.0011,-4.7773,-4.9325,-4.9861,-4.9027,-4.823,-4.6357,-4.152,-3.9733,-3.8172,-3.4884,-3.4197,-3.4197,-3.4197,-3.4915,-3.6023,-3.7562,-3.9882,-4.2915,-4.7024,-4.8918,0.0,0.0,0.0,-5.7064,-5.9413,-6.1674,-6.2953,-6.2805,-6.278,0.0,-6.278,-6.278,-6.278,-6.278,-6.278,-6.278,-6.278,-6.278,-6.278,-6.278,-6.278,-6.278,-6.278,-6.278,-6.278,-6.278,-6.278,-6.278,0.0,-6.278,-6.2438,-6.1897,-6.1897,-6.0189,-5.7715,-5.7715,-5.6338,-5.4512,-5.4512,-5.4512,-5.4512,-5.4512,-5.4512,-5.4512,-5.4512,-5.4512,-5.4512,-5.4512,-5.4512,-5.4512,-5.4512,-5.4512,-5.4512,-5.4512,-5.4512,-5.4512,-5.4512,-5.4512,-5.4512,-5.4512,-5.4512,-5.4512,-5.4512,-5.4512,-5.4512,-5.4512,-5.4494,-5.4494,-5.4494,-5.3839,-5.3391,-5.3391,-5.2011,-5.0804,-5.0062,-5.0011,-5.0011,-5.0011,-5.0011,-5.0011,-5.0011,-5.0011,-5.0011,-5.0011,-5.0011,-5.0011,-5.0011,-5.0011,-5.0011,-5.0011,-5.0011,-5.0011,-4.356,-4.5499,-4.694,-4.5033,-4.4367,-4.3183,-3.9423,-3.8349,-3.7373,-3.4635,-3.4099,-3.4136,-3.4136,-3.4358,-3.581,-3.9645,-4.0849,0.0,0.0,0.0,0.0,-5.4627,-5.859,-6.1314,0.0,0.0,-6.2953,-6.2805,-6.278,-6.278,-6.278,-6.278,-6.278,-6.278,-6.278,-6.278,-6.278,-6.278,-6.278,-6.278,-6.278,-6.278,-6.278,-6.278,-6.278,-6.278,-6.236,-6.2184,-6.2157,-6.1677,-6.1379,-6.1178,-6.0772,-5.9408,-5.7653,-5.7254,-5.5998,-5.4512,-5.4512,-5.4512,-5.4512,-5.4512,-5.4512,-5.4512,-5.4512,-5.4512,-5.4512,-5.4512,-5.4512,-5.4512,-5.4512,-5.4512,-5.4512,-5.4512,-5.4512,-5.4512,-5.4512,-5.4512,-5.4512,-5.4512,-5.4512,-5.4512,-5.4512,-5.4512,-5.4512,-5.4512,-5.4512,-5.4512,-5.4512,-5.4305,-5.396,-5.346,-5.2959,-5.2166,-5.0873,-5.0304,-5.0011,-5.0011,-5.0011,-5.0011,-5.0011,-5.0011,-5.0011,-5.0011,-5.0011,-5.0011,-5.0011,-5.0011,-5.0011,-5.0011,-5.0011,-5.0011,0.0,-4.2332,-4.3492,-4.1994,-4.1625,-4.0849,-3.7909,-3.7244,-3.662,-3.4441,-3.4036,-3.4061,-3.4061,-3.432,-3.5639,-3.898,-4.0231,0.0,0.0,0.0,0.0,-5.4937,0.0,0.0,0.0,-6.2604,-6.288,-6.2823,-6.278,-6.278,-6.278,-6.278,-6.278,-6.278,-6.278,-6.278,-6.278,-6.278,-6.278,-6.278,-6.278,-6.278,-6.278,-6.278,-6.2679,-6.2438,-6.2059,-6.1769,0.0,-6.1073,-6.0766,-6.0506,-5.9843,-5.8668,-5.7297,-5.6606,-5.5563,-5.4512,-5.4512,-5.4512,-5.4512,-5.4512,-5.4512,-5.4512,-5.4512,-5.4512,-5.4512,-5.4512,-5.4512,-5.4512,-5.4512,-5.4512,-5.4512,-5.4512,-5.4512,-5.4512,-5.4512,-5.4512,-5.4512,-5.4512,-5.4512,-5.4512,-5.4512,-5.4512,-5.4512,-5.4512,-5.4512,-5.4512,-5.4512,-5.4512,-5.4322,-5.3873,-5.358,-5.3011,-5.2063,-5.1269,-5.0838,-5.0838,-5.0838,-5.0718,-5.0442,-5.0424,-5.0287,-5.0011,-5.0011,-5.0011,-5.0011,-5.0011,-5.0011,-5.0011,-5.0011,-5.0011,0.0,-3.9467,0.0,-3.958,-3.9599,-3.9061,-3.6828,-3.6343,0.0,-3.4317,-3.3985,-3.4035,-3.4151,-3.4792,-3.5665,-3.6744,-3.8833,0.0,0.0,-4.7481,0.0,0.0,-5.7434,0.0,-6.058,-6.1992,-6.278,-6.278,-6.278,-6.278,-6.278,-6.278,-6.278,-6.278,-6.278,-6.278,-6.278,-6.278,-6.278,-6.278,-6.2755,-6.273,-6.273,-6.2705,-6.2342,0.0,-6.1769,-6.1397,-6.0838,-6.0778,-6.045,-5.9853,-5.9131,-5.7997,-5.6702,-5.5908,-5.515,-5.4512,-5.4512,-5.4512,-5.4512,-5.4512,-5.4512,-5.4512,-5.4512,-5.4512,-5.4512,-5.4512,-5.4512,-5.4512,-5.4512,-5.4512,-5.4512,-5.4512,-5.4512,-5.4512,-5.4512,-5.4512,-5.4512,-5.4512,-5.4512,-5.4512,-5.4512,-5.4512,-5.4512,-5.4512,-5.4512,-5.4512,-5.4512,-5.4512,-5.4512,-5.4512,-5.3891,-5.3477,-5.3477,-5.2701,-5.2188,-5.2188,-5.2188,-5.1877,-5.1218,-5.1183,-5.0873,-5.0183,-5.0166,-5.0166,-5.0166,-5.0166,-5.0166,-5.0166,-5.0166,-5.0166,-3.2963,0.0,-3.6038,-3.5413,-3.5725,-3.5872,0.0,-3.4908,-3.506,-3.4062,-3.3881,-3.4326,-3.5597,-3.5505,-3.6689,-4.1169,0.0,0.0,-4.8016,0.0,0.0,-5.9071,-6.0328,-6.1274,-6.2194,-6.2603,-6.278,-6.278,-6.278,-6.278,-6.278,-6.278,-6.278,-6.278,-6.278,-6.278,-6.278,-6.278,-6.278,-6.278,-6.2334,-6.2104,-6.2086,-6.1594,-6.1265,-6.112,-6.0651,-6.0362,-6.0174,-5.9646,-5.9366,-5.9164,-5.8402,-5.7576,-5.6702,-5.5908,-5.515,-5.4512,-5.4512,-5.4512,-5.4512,-5.4512,-5.4512,-5.4512,-5.4512,-5.4512,-5.4512,-5.4512,-5.4512,-5.4512,-5.4512,-5.4512,-5.4512,-5.4512,-5.4512,-5.4512,-5.4512,-5.4512,-5.4512,-5.4512,-5.4512,-5.4512,-5.4512,-5.4512,-5.4512,-5.4512,-5.4512,-5.4512,-5.4512,-5.4512,-5.4512,-5.4512,-5.4356,-5.4253,-5.4253,-5.3011,-5.2188,-5.2188,-5.2188,-5.2101,-5.1929,-5.1929,-5.1873,-5.1701,-5.1671,-5.1671,-5.1671,-5.1671,-5.1671,-5.1671,-5.1671,-5.1671,-3.0632,-3.2876,-3.4912,-3.4454,-3.4968,-3.5481,-3.5055,0.0,0.0,0.0,0.0,0.0,-3.6048,-3.6035,0.0,0.0,-4.3122,0.0,0.0,0.0,-5.724,-5.9743,-6.0396,-6.0927,0.0,-6.1511,-6.136,-6.1407,-6.1363,-6.1335,-6.1335,-6.158,-6.1869,-6.2236,-6.1985,-6.2168,-6.278,-6.2534,-6.2386,-6.2386,-6.1751,-6.1454,-6.1425,-6.1091,-6.0766,-6.0481,-6.0143,-5.9826,-5.9516,-5.9132,-5.8806,-5.8426,-5.7685,-5.6926,-5.6167,-5.5391,-5.4856,-5.4512,-5.4512,-5.4512,-5.4512,-5.4512,-5.4512,-5.4512,-5.4512,-5.4512,-5.4512,-5.4512,-5.4512,-5.4512,-5.4512,-5.4512,-5.4512,-5.4512,-5.4512,-5.4512,-5.4512,-5.4512,-5.4512,-5.4512,-5.4512,-5.4512,-5.4512,-5.4512,-5.4512,-5.4512,-5.4512,-5.4512,-5.4512,-5.4512,-5.4512,-5.4512,-5.4512,-5.4512,-5.4512,-5.3753,-5.327,-5.327,-5.327,-5.3115,-5.277,-5.277,-5.2597,-5.2188,-5.2188,-5.2188,-5.2188,-5.2188,-5.2188,-5.2188,-5.2188,-5.2188,-3.0271,-3.2821,-3.5151,-3.4876,-3.5661,-3.645,-3.6321,0.0,0.0,0.0,0.0,0.0,0.0,-3.7,0.0,0.0,0.0,0.0,-5.2996,-5.5536,-5.7455,-5.9145,-5.9189,0.0,-6.0438,-5.9888,-5.9502,-5.9609,-5.9528,-5.9455,-5.9455,-5.9896,-6.0456,-6.1133,-6.0671,-6.0971,-6.215,-6.1878,-6.1741,-6.1741,-6.1062,-6.0748,-6.0748,-6.0658,-6.0326,-5.9858,-5.9736,0.0,-5.8823,-5.8719,-5.8305,-5.7667,-5.6909,-5.6202,-5.5529,-5.4787,-5.4512,-5.4512,-5.4512,-5.4512,-5.4512,-5.4512,-5.4512,-5.4512,-5.4512,-5.4512,-5.4512,-5.4512,-5.4512,-5.4512,-5.4512,-5.4512,-5.4512,-5.4512,-5.4512,-5.4512,-5.4512,-5.4512,-5.4512,-5.4512,-5.4512,-5.4512,-5.4512,-5.4512,-5.4512,-5.4512,-5.4512,-5.4512,-5.4512,-5.4512,-5.4512,-5.4512,-5.4512,-5.4512,-5.4512,-5.4512,-5.4512,-5.4512,-5.4512,-5.4236,-5.3598,-5.358,-5.3253,-5.255,-5.2532,-5.2532,-5.2532,-5.2532,-5.2532,-5.2532,-5.2532,-5.2532,-3.1647,-3.4137,-3.5752,-3.4339,-3.5661,-3.7144,-3.645,0.0,0.0,0.0,0.0,0.0,0.0,-3.9916,-4.144,0.0,0.0,-5.1797,0.0,0.0,-5.7409,-5.9048,0.0,-5.8776,-5.9677,-5.9204,-5.8836,-5.8859,-5.8854,-5.8856,-5.8856,-5.8922,-5.9003,-5.9157,-5.9046,-5.9099,-5.9336,-6.0486,-6.1044,-6.1062,-6.0437,-6.016,-6.0129,-5.9565,-5.9249,-5.9131,0.0,-5.8165,-5.803,-5.7391,-5.7064,-5.6891,-5.6098,-5.5719,-5.5529,-5.4787,-5.4512,-5.4512,-5.4512,-5.4512,-5.4512,-5.4512,-5.4512,-5.4512,-5.4512,-5.4512,-5.4512,-5.4512,-5.4512,-5.4512,-5.4512,-5.4512,-5.4512,-5.4512,-5.4512,-5.4512,-5.4512,-5.4512,-5.4512,-5.4512,-5.4512,-5.4512,-5.4512,-5.4512,-5.4512,-5.4512,-5.4512,-5.4512,-5.4512,-5.4512,-5.4512,-5.4512,-5.4512,-5.4512,-5.4512,-5.4512,-5.4512,-5.4512,-5.4512,-5.446,-5.4339,-5.4339,-5.4287,-5.4167,-5.4167,-5.4167,-5.4167,-5.4167,-5.4167,-5.4167,-5.4167,-5.4167,-3.0344,-3.306,-3.5408,-3.4637,-3.6982,-3.935,-3.8982,-3.823,0.0,0.0,0.0,0.0,0.0,0.0,-4.3952,-4.8511,0.0,-5.4367,-5.5577,-5.6754,-5.7476,0.0,0.0,-5.7716,-5.7899,-5.7313,-5.6952,-5.7035,-5.6964,-5.6921,-5.6921,-5.7234,-5.7598,-5.8045,-5.7686,-5.7724,-5.8149,-5.851,-5.8844,-5.9163,-5.8552,-5.8283,-5.8251,-5.7939,-5.7823,-5.7788,0.0,-5.7305,-5.7288,-5.6943,-5.6546,-5.6115,-5.5753,-5.5374,-5.4977,-5.4632,-5.4512,-5.4512,-5.4512,-5.4512,-5.4512,-5.4512,-5.4512,-5.4512,-5.4512,-5.4512,-5.4512,-5.4512,-5.4512,-5.4512,-5.4512,-5.4512,-5.4512,-5.4512,-5.4512,-5.4512,-5.4512,-5.4512,-5.4512,-5.4512,-5.4512,-5.4512,-5.4512,-5.4512,-5.4512,-5.4512,-5.4512,-5.4512,-5.4512,-5.4512,-5.4512,-5.4512,-5.4512,-5.4512,-5.4512,-5.4512,-5.4512,-5.4512,-5.4512,-5.4512,-5.4512,-5.4512,-5.4512,-5.4512,-5.4512,-5.4512,-5.4512,-5.4512,-5.4512,-5.4512,-5.4512,-5.4512,-2.9977,-3.2362,-3.4857,-3.5445,0.0,-4.0728,-4.148,-4.0432,0.0,0.0,0.0,0.0,0.0,-4.3916,0.0,-5.184,-5.4442,-5.5967,-5.6157,-5.7235,-5.7565,-5.6438,-5.666,-5.6734,-5.6281,-5.5587,-5.5244,-5.5337,-5.5239,-5.5194,-5.5194,-5.5647,-5.617,-5.6772,-5.6292,-5.6318,-5.6943,-5.6478,-5.6651,-5.7485,-5.7015,-5.6805,-5.6805,-5.6805,-5.6805,-5.6788,-5.6598,-5.6529,-5.6512,-5.634,-5.5908,-5.5357,-5.5357,-5.5012,-5.4512,-5.4512,-5.4512,-5.4512,-5.4512,-5.4512,-5.4512,-5.4512,-5.4512,-5.4512,-5.4512,-5.4512,-5.4512,-5.4512,-5.4512,-5.4512,-5.4512,-5.4512,-5.4512,-5.4512,-5.4512,-5.4512,-5.4512,-5.4512,-5.4512,-5.4512,-5.4512,-5.4512,-5.4512,-5.4512,-5.4512,-5.4512,-5.4512,-5.4512,-5.4512,-5.4512,-5.4512,-5.4512,-5.4512,-5.4512,-5.4512,-5.4512,-5.4512,-5.4512,-5.4512,-5.4512,-5.4512,-5.4512,-5.4512,-5.4512,-5.4512,-5.4512,-5.4512,-5.4512,-5.4512,-5.4512,-5.4512,-5.4512,-3.2852,-3.3678,-3.4431,-3.674,-3.8102,-3.9662,-4.2635,-4.2084,0.0,-4.4764,0.0,0.0,0.0,-4.8141,-5.1151,-5.3794,-5.5629,-5.6786,-5.6992,0.0,-5.7565,-5.6438,-5.633,-5.6128,-5.5561,-5.493,-5.456,-5.4581,-5.456,-5.4557,-5.4557,-5.462,-5.4637,-5.4689,-5.4675,-5.4661,-5.473,-5.4698,-5.5423,-5.6854,-5.6821,-5.6805,-5.6805,-5.6805,-5.6805,-5.6753,-5.6029,-5.5701,-5.565,-5.496,-5.4632,-5.4581,-5.4581,-5.4563,-5.4512,-5.4512,-5.4512,-5.4512,-5.4512,-5.4512,-5.4512,-5.4512,-5.4512,-5.4512,-5.4512,-5.4512,-5.4512,-5.4512,-5.4512,-5.4512,-5.4512,-5.4512,-5.4512,-5.4512,-5.4512,-5.4512,-5.4512,-5.4512,-5.4512,-5.4512,-5.4512,-5.4512,-5.4512,-5.4512,-5.4512,-5.4512,-5.4512,-5.4512,-5.4512,-5.4512,-5.4512,-5.4512,-5.4512,-5.4512,-5.4512,-5.4512,-5.4512,-5.4512,-5.4512,-5.4512,-5.4512,-5.4512,-5.4512,-5.4512,-5.4512,-5.4512,-5.4512,-5.4512,-5.4512,-5.4512,-5.4512,-5.4512,-3.1311,-3.3421,-3.5569,-3.6505,-3.8487,0.0,0.0,-4.4195,-4.5461,-4.7737,-4.7957,0.0,0.0,0.0,-5.1591,-5.4014,-5.5432,-5.6327,-5.6552,-5.6809,-5.6501,-5.5313,-5.5502,-5.5502,-5.4896,-5.4652,-5.4512,-5.4512,-5.4512,-5.4512,-5.4512,-5.4512,-5.4512,-5.4512,-5.4512,-5.4512,-5.4512,-5.4512,-5.4805,-5.5374,-5.5374,-5.5374,-5.5374,-5.5374,-5.5374,-5.5357,-5.5063,-5.4925,-5.4908,-5.4615,-5.4512,-5.4512,-5.4512,-5.4512,-5.4512,-5.4512,-5.4512,-5.4512,-5.4512,-5.4512,-5.4512,-5.4512,-5.4512,-5.4512,-5.4512,-5.4512,-5.4512,-5.4512,-5.4512,-5.4512,-5.4512,-5.4512,-5.4512,-5.4512,-5.4512,-5.4512,-5.4512,-5.4512,-5.4512,-5.4512,-5.4512,-5.4512,-5.4512,-5.4512,-5.4512,-5.4512,-5.4512,-5.4512,-5.4512,-5.4512,-5.4512,-5.4512,-5.4512,-5.4512,-5.4512,-5.4512,-5.4512,-5.4512,-5.4512,-5.4512,-5.4512,-5.4512,-5.4512,-5.4512,-5.4512,-5.4512,-5.4512,-5.4512,-5.4512,-5.4512,-5.4512,-5.4512,-3.1035,-3.3366,-3.5954,-3.6229,0.0,0.0,-4.3773,-4.5535,-4.7572,-5.0508,-5.0712,-5.0363,-5.0363,0.0,0.0,0.0,-5.534,-5.6212,-5.6022,-5.6193,-5.5858,-5.4652,-5.5031,-5.5164,-5.4557,-5.4512,-5.4512,-5.4512,-5.4512,-5.4512,-5.4512,-5.4512,-5.4512,-5.4512,-5.4512,-5.4512,-5.4512,-5.4512,-5.4512,-5.4512,-5.4512,-5.4512,-5.4512,-5.4512,-5.4512,-5.4512,-5.4512,-5.4512,-5.4512,-5.4512,-5.4512,-5.4512,-5.4512,-5.4512,-5.4512,-5.4512,-5.4512,-5.4512,-5.4512,-5.4512,-5.4512,-5.4512,-5.4512,-5.4512,-5.4512,-5.4512,-5.4512,-5.4512,-5.4512,-5.4512,-5.4512,-5.4512,-5.4512,-5.4512,-5.4512,-5.4512,-5.4512,-5.4512,-5.4512,-5.4512,-5.4512,-5.4512,-5.4512,-5.4512,-5.4512,-5.4512,-5.4512,-5.4512,-5.4512,-5.4512,-5.4512,-5.4512,-5.4512,-5.4512,-5.4512,-5.4512,-5.4512,-5.4512,-5.4512,-5.4512,-5.4512,-5.4512,-5.4512,-5.4512,-5.4512,-5.4512,-5.4512,-5.4512,-5.4512,-5.4512,-5.4512,-5.4512,-3.2821,-3.3793,-3.5243,0.0,0.0,0.0,-4.5204,-4.5938,-4.7553,-5.3243,-5.3133,-5.2013,-5.2013,-5.2674,0.0,-5.3481,-5.5509,-5.6695,-5.556,-5.5915,-5.583,-5.4652,-5.5031,-5.5152,-5.4557,-5.4512,-5.4512,-5.4512,-5.4512,-5.4512,-5.4512,-5.4512,-5.4512,-5.4512,-5.4512,-5.4512,-5.4512,-5.4512,-5.4512,-5.4512,-5.4512,-5.4512,-5.4512,-5.4512,-5.4512,-5.4512,-5.4512,-5.4512,-5.4512,-5.4512,-5.4512,-5.4512,-5.4512,-5.4512,-5.4512,-5.4512,-5.4512,-5.4512,-5.4512,-5.4512,-5.4512,-5.4512,-5.4512,-5.4512,-5.4512,-5.4512,-5.4512,-5.4512,-5.4512,-5.4512,-5.4512,-5.4512,-5.4512,-5.4512,-5.4512,-5.4512,-5.4512,-5.4512,-5.4512,-5.4512,-5.4512,-5.4512,-5.4512,-5.4512,-5.4512,-5.4512,-5.4512,-5.4512,-5.4512,-5.4512,-5.4512,-5.4512,-5.4512,-5.4512,-5.4512,-5.4512,-5.4512,-5.4512,-5.4512,-5.4512,-5.4512,-5.4512,-5.4512,-5.4512,-5.4512,-5.4512,-5.4512,-5.4512,-5.4512,-5.4512,-5.4512,-5.4512,-3.2821,-3.5041,0.0,-3.8634,0.0,0.0,0.0,-4.893,0.0,0.0,-5.4858,-5.4344,-5.3794,-5.3885,0.0,-5.432,-5.5101,-5.5606,-5.5432,-5.5194,-5.4896,-5.4526,-5.4652,-5.4697,-5.4512,-5.4512,-5.4512,-5.4512,-5.4512,-5.4512,-5.4512,-5.4512,-5.4512,-5.4512,-5.4512,-5.4512,-5.4512,-5.4512,-5.4512,-5.4512,-5.4512,-5.4512,-5.4512,-5.4512,-5.4512,-5.4512,-5.4512,-5.4512,-5.4512,-5.4512,-5.4512,-5.4512,-5.4512,-5.4512,-5.4512,-5.4512,-5.4512,-5.4512,-5.4512,-5.4512,-5.4512,-5.4512,-5.4512,-5.4512,-5.4512,-5.4512,-5.4512,-5.4512,-5.4512,-5.4512,-5.4512,-5.4512,-5.4512,-5.4512,-5.4512,-5.4512,-5.4512,-5.4512,-5.4512,-5.4512,-5.4512,-5.4512,-5.4512,-5.4512,-5.4512,-5.4512,-5.4512,-5.4512,-5.4512,-5.4512,-5.4512,-5.4512,-5.4512,-5.4512,-5.4512,-5.4512,-5.4512,-5.4512,-5.4512,-5.4512,-5.4512,-5.4512,-5.4512,-5.4512,-5.4512,-5.4512,-5.4512,-5.4512,-5.4512,-5.4512,-5.4512,-5.4512,-3.4412,-3.7055,0.0,-4.1038,-4.425,-4.77,-5.0013,0.0,0.0,0.0,-5.5162,-5.4889,-5.5273,-5.4688,0.0,-5.4792,-5.5062,-5.5175,-5.5052,-5.4728,-5.4512,-5.4512,-5.4512,-5.4512,-5.4512,-5.4512,-5.4512,-5.4512,-5.4512,-5.4512,-5.4512,-5.4512,-5.4512,-5.4512,-5.4512,-5.4512,-5.4512,-5.4512,-5.4512,-5.4512,-5.4512,-5.4512,-5.4512,-5.4512,-5.4512,-5.4512,-5.4512,-5.4512,-5.4512,-5.4512,-5.4512,-5.4512,-5.4512,-5.4512,-5.4512,-5.4512,-5.4512,-5.4512,-5.4512,-5.4512,-5.4512,-5.4512,-5.4512,-5.4512,-5.4512,-5.4512,-5.4512,-5.4512,-5.4512,-5.4512,-5.4512,-5.4512,-5.4512,-5.4512,-5.4512,-5.4512,-5.4512,-5.4512,-5.4512,-5.4512,-5.4512,-5.4512,-5.4512,-5.4512,-5.4512,-5.4512,-5.4512,-5.4512,-5.4512,-5.4512,-5.4512,-5.4512,-5.4512,-5.4512,-5.4512,-5.4512,-5.4512,-5.4512,-5.4512,-5.4512,-5.4512,-5.4512,-5.4512,-5.4512,-5.4512,-5.4512,-5.4512,-5.4512,-5.4512,-5.4512,-5.4512,-5.4512,-3.6648,0.0,0.0,-4.3277,-4.5645,0.0,-5.1408,-5.3203,-5.4444,-5.5255,0.0,-5.4379,-5.6287,-5.5248,-5.4322,-5.5035,-5.5274,-5.5194,-5.4589,-5.4512,-5.4512,-5.4512,-5.4512,-5.4512,-5.4512,-5.4512,-5.4512,-5.4512,-5.4512,-5.4512,-5.4512,-5.4512,-5.4512,-5.4512,-5.4512,-5.4512,-5.4512,-5.4512,-5.4512,-5.4512,-5.4512,-5.4512,-5.4512,-5.4512,-5.4512,-5.4512,-5.4512,-5.4512,-5.4512,-5.4512,-5.4512,-5.4512,-5.4512,-5.4512,-5.4512,-5.4512,-5.4512,-5.4512,-5.4512,-5.4512,-5.4512,-5.4512,-5.4512,-5.4512,-5.4512,-5.4512,-5.4512,-5.4512,-5.4512,-5.4512,-5.4512,-5.4512,-5.4512,-5.4512,-5.4512,-5.4512,-5.4512,-5.4512,-5.4512,-5.4512,-5.4512,-5.4512,-5.4512,-5.4512,-5.4512,-5.4512,-5.4512,-5.4512,-5.4512,-5.4512,-5.4512,-5.4512,-5.4512,-5.4512,-5.4512,-5.4512,-5.4512,-5.4512,-5.4512,-5.4512,-5.4512,-5.4512,-5.4512,-5.4512,-5.4512,-5.4512,-5.4512,-5.4512,-5.4512,-5.4512,-5.4512,-5.4512,-3.5224,-3.8251,0.0,0.0,-4.8196,-5.1298,-5.2637,-5.289,-5.3058,-5.3862,-5.5144,-5.596,-5.553,-5.5962,-5.6159,-5.5451,-5.5367,-5.5194,-5.4589,-5.4512,-5.4512,-5.4512,-5.4512,-5.4512,-5.4512,-5.4512,-5.4512,-5.4512,-5.4512,-5.4512,-5.4512,-5.4512,-5.4512,-5.4512,-5.4512,-5.4512,-5.4512,-5.4512,-5.4512,-5.4512,-5.4512,-5.4512,-5.4512,-5.4512,-5.4512,-5.4512,-5.4512,-5.4512,-5.4512,-5.4512,-5.4512,-5.4512,-5.4512,-5.4512,-5.4512,-5.4512,-5.4512,-5.4512,-5.4512,-5.4512,-5.4512,-5.4512,-5.4512,-5.4512,-5.4512,-5.4512,-5.4512,-5.4512,-5.4512,-5.4512,-5.4512,-5.4512,-5.4512,-5.4512,-5.4512,-5.4512,-5.4512,-5.4512,-5.4512,-5.4512,-5.4512,-5.4512,-5.4512,-5.4512,-5.4512,-5.4512,-5.4512,-5.4512,-5.4512,-5.4512,-5.4512,-5.4512,-5.4512,-5.4512,-5.4512,-5.4512,-5.4512,-5.4512,-5.4512,-5.4512,-5.4512,-5.4512,-5.4512,-5.4512,-5.4512,-5.4512,-5.4512,-5.4512,-5.4512,-5.4512,-5.4512,-5.4512,-3.5221,0.0,0.0,-4.6544,0.0,-5.1096,-5.2807,-5.2586,-5.212,-5.2558,-5.3608,-5.4486,-5.4569,-5.5008,-5.5207,-5.4881,-5.4919,-5.4865,-5.4526,-5.4512,-5.4512,-5.4512,-5.4512,-5.4512,-5.4512,-5.4512,-5.4512,-5.4512,-5.4512,-5.4512,-5.4512,-5.4512,-5.4512,-5.4512,-5.4512,-5.4512,-5.4512,-5.4512,-5.4512,-5.4512,-5.4512,-5.4512,-5.4512,-5.4512,-5.4512,-5.4512,-5.4512,-5.4512,-5.4512,-5.4512,-5.4512,-5.4512,-5.4512,-5.4512,-5.4512,-5.4512,-5.4512,-5.4512,-5.4512,-5.4512,-5.4512,-5.4512,-5.4512,-5.4512,-5.4512,-5.4512,-5.4512,-5.4512,-5.4512,-5.4512,-5.4512,-5.4512,-5.4512,-5.4512,-5.4512,-5.4512,-5.4512,-5.4512,-5.4512,-5.4512,-5.4512,-5.4512,-5.4512,-5.4512,-5.4512,-5.4512,-5.4512,-5.4512,-5.4512,-5.4512,-5.4512,-5.4512,-5.4512,-5.4512,-5.4512,-5.4512,-5.4512,-5.4512,-5.4512,-5.4512,-5.4512,-5.4512,-5.4512,-5.4512,-5.4512,-5.4512,-5.4512,-5.4512,-5.4512,-5.4512,-5.4512,-5.4512,0.0,0.0,-4.1923,-4.7803,-4.9159,0.0,-5.2284,-5.2028,-5.1289,-5.1432,-5.1785,-5.2366,-5.3336,-5.3427,-5.3454,-5.3813,-5.397,-5.4167,-5.4305,-5.4322,-5.4374,-5.4494,-5.4512,-5.4512,-5.4512,-5.4512,-5.4512,-5.4512,-5.4512,-5.4512,-5.4512,-5.4512,-5.4512,-5.4512,-5.4512,-5.4512,-5.4512,-5.4512,-5.4512,-5.4512,-5.4512,-5.4512,-5.4512,-5.4512,-5.4512,-5.4512,-5.4512,-5.4512,-5.4512,-5.4512,-5.4512,-5.4512,-5.4512,-5.4512,-5.4512,-5.4512,-5.4512,-5.4512,-5.4512,-5.4512,-5.4512,-5.4512,-5.4512,-5.4512,-5.4512,-5.4512,-5.4512,-5.4512,-5.4512,-5.4512,-5.4512,-5.4512,-5.4512,-5.4512,-5.4512,-5.4512,-5.4512,-5.4512,-5.4512,-5.4512,-5.4512,-5.4512,-5.4512,-5.4512,-5.4512,-5.4512,-5.4512,-5.4512,-5.4512,-5.4512,-5.4512,-5.4512,-5.4512,-5.4512,-5.4512,-5.4512,-5.4512,-5.4512,-5.4512,-5.4512,-5.4512,-5.4512,-5.4512,-5.4512,-5.4512,-5.4512,-5.4512,-5.4512,-5.4512,-5.4512,-5.4512,-5.4512,0.0,0.0,0.0,0.0,-4.8153,-4.8895,0.0,0.0,-5.0066,0.0,-5.1838,-5.2431,-5.1622,-5.2393,-5.2985,-5.255,-5.2473,-5.277,-5.346,-5.3546,-5.3787,-5.4425,-5.4512,-5.4512,-5.4512,-5.4512,-5.4512,-5.4512,-5.4512,-5.4512,-5.4512,-5.4512,-5.4512,-5.4512,-5.4512,-5.4512,-5.4512,-5.4512,-5.4512,-5.4512,-5.4512,-5.4512,-5.4512,-5.4512,-5.4512,-5.4512,-5.4512,-5.4512,-5.4512,-5.4512,-5.4512,-5.4512,-5.4512,-5.4512,-5.4512,-5.4512,-5.4512,-5.4512,-5.4512,-5.4512,-5.4512,-5.4512,-5.4512,-5.4512,-5.4512,-5.4512,-5.4512,-5.4512,-5.4512,-5.4512,-5.4512,-5.4512,-5.4512,-5.4512,-5.4512,-5.4512,-5.4512,-5.4512,-5.4512,-5.4512,-5.4512,-5.4512,-5.4512,-5.4512,-5.4512,-5.4512,-5.4512,-5.4512,-5.4512,-5.4512,-5.4512,-5.4512,-5.4512,-5.4512,-5.4512,-5.4512,-5.4512,-5.4512,-5.4512,-5.4512,-5.4512,-5.4512,-5.4512,-5.4512,-5.4512,-5.4512,-5.4512,-5.4512,-5.4512,-5.4512,-5.4512,-5.4512,-3.1326,0.0,0.0,0.0,0.0,0.0,0.0,0.0,-4.8702,-4.9381,-5.0074,-5.054,-5.0477,-5.1298,-5.1888,-5.1627,-5.1912,-5.2308,-5.2684,-5.2735,-5.2856,-5.3153,-5.3187,-5.3408,-5.3839,-5.3891,-5.4063,-5.4477,-5.4512,-5.4512,-5.4512,-5.4512,-5.4512,-5.4512,-5.4512,-5.4512,-5.4512,-5.4512,-5.4512,-5.4512,-5.4512,-5.4512,-5.4512,-5.4512,-5.4512,-5.4512,-5.4512,-5.4512,-5.4512,-5.4512,-5.4512,-5.4512,-5.4512,-5.4512,-5.4512,-5.4512,-5.4512,-5.4512,-5.4512,-5.4512,-5.4512,-5.4512,-5.4512,-5.4512,-5.4512,-5.4512,-5.4512,-5.4512,-5.4512,-5.4512,-5.4512,-5.4512,-5.4512,-5.4512,-5.4512,-5.4512,-5.4512,-5.4512,-5.4512,-5.4512,-5.4512,-5.4512,-5.4512,-5.4512,-5.4512,-5.4512,-5.4512,-5.4512,-5.4512,-5.4512,-5.4512,-5.4512,-5.4512,-5.4512,-5.4512,-5.4512,-5.4512,-5.4512,-5.4512,-5.4512,-5.4512,-5.4512,-5.4512,-5.4512,-5.4512,-5.4512,-5.4512,-5.4512,-5.4512,-5.4512,-5.4512,-5.4512,0.0,0.0,0.0,0.0,0.0,0.0,0.0,0.0,-4.7343,0.0,-4.8417,-4.8689,-4.9304,-5.02,-5.0838,-5.0838,-5.1287,-5.1718,-5.1877,-5.1912,-5.1981,-5.217,-5.2188,-5.2429,-5.3046,-5.3115,-5.3322,-5.3873,-5.3925,-5.4011,-5.4218,-5.4236,-5.4322,-5.4494,-5.4512,-5.4512,-5.4512,-5.4512,-5.4512,-5.4512,-5.4512,-5.4512,-5.4512,-5.4512,-5.4512,-5.4512,-5.4512,-5.4512,-5.4512,-5.4512,-5.4512,-5.4512,-5.4512,-5.4512,-5.4512,-5.4512,-5.4512,-5.4512,-5.4512,-5.4512,-5.4512,-5.4512,-5.4512,-5.4512,-5.4512,-5.4512,-5.4512,-5.4512,-5.4512,-5.4512,-5.4512,-5.4512,-5.4512,-5.4512,-5.4512,-5.4512,-5.4512,-5.4512,-5.4512,-5.4512,-5.4512,-5.4512,-5.4512,-5.4512,-5.4512,-5.4512,-5.4512,-5.4512,-5.4512,-5.4512,-5.4512,-5.4512,-5.4512,-5.4512,-5.4512,-5.4512,-5.4512,-5.4512,-5.4512,-5.4512,-5.4512,-5.4512,-5.4512,-5.4512,-5.4512,-5.4512,-5.4512,-5.4512,-5.4512,-5.4512,-5.4512,-5.4512,0.0,0.0,0.0,0.0,0.0,0.0,0.0,0.0,0.0,-4.7434,-4.7734,-4.7758,-4.7793,-4.9062,-5.0062,-5.0062,-5.0097,-5.0373,-5.108,-5.1166,-5.1425,-5.2101,-5.2188,-5.2205,-5.2239,-5.2239,-5.2274,-5.2308,-5.2308,-5.2666,-5.3425,-5.346,-5.3787,-5.4494,-5.4512,-5.4512,-5.4512,-5.4512,-5.4512,-5.4512,-5.4512,-5.4512,-5.4512,-5.4512,-5.4512,-5.4512,-5.4512,-5.4512,-5.4512,-5.4512,-5.4512,-5.4512,-5.4512,-5.4512,-5.4512,-5.4512,-5.4512,-5.4512,-5.4512,-5.4512,-5.4512,-5.4512,-5.4512,-5.4512,-5.4512,-5.4512,-5.4512,-5.4512,-5.4512,-5.4512,-5.4512,-5.4512,-5.4512,-5.4512,-5.4512,-5.4512,-5.4512,-5.4512,-5.4512,-5.4512,-5.4512,-5.4512,-5.4512,-5.4512,-5.4512,-5.4512,-5.4512,-5.4512,-5.4512,-5.4512,-5.4512,-5.4512,-5.4512,-5.4512,-5.4512,-5.4512,-5.4512,-5.4512,-5.4512,-5.4512,-5.4512,-5.4512,-5.4512,-5.4512,-5.4512,-5.4512,-5.4512,-5.4512,-5.4512,-5.4512,-5.4512,-5.4512,0.0,0.0,0.0,0.0,0.0,0.0,0.0,-4.3037,-4.4268,-4.5303,-4.5906,-4.6379,-4.6879,-4.8234,-4.9252,-4.9252,-4.9666,-5.0097,-5.0373,-5.039,-5.0493,-5.0769,-5.0804,-5.0976,-5.1459,-5.1511,-5.1701,-5.2153,-5.2188,-5.2339,-5.2632,-5.2649,-5.277,-5.2998,-5.3529,-5.4029,-5.4512,-5.4512,-5.4512,-5.4512,-5.4512,-5.4512,-5.4512,-5.4512,-5.4512,-5.4512,-5.4512,-5.4512,-5.4512,-5.4512,-5.4512,-5.4512,-5.4512,-5.4512,-5.4512,-5.4512,-5.4512,-5.4512,-5.4512,-5.4512,-5.4512,-5.4512,-5.4512,-5.4512,-5.4512,-5.4512,-5.4512,-5.4512,-5.4512,-5.4512,-5.4512,-5.4512,-5.4512,-5.4512,-5.4512,-5.4512,-5.4512,-5.4512,-5.4512,-5.4512,-5.4512,-5.4512,-5.4512,-5.4512,-5.4512,-5.4512,-5.4512,-5.4512,-5.4512,-5.4512,-5.4512,-5.4512,-5.4512,-5.4512,-5.4512,-5.4512,-5.4512,-5.4512,-5.4512,-5.4512,-5.4512,-5.4512,-5.4512,-5.4512,-5.4512,-5.4512,-5.4512,-5.4512,-5.4512,-5.4512,-5.4512,-5.4512,-2.585,0.0,0.0,0.0,0.0,0.0,0.0,0.0,-4.2085,-4.3621,-4.4509,-4.5199,-4.5734,-4.7062,-4.8137,-4.8379,-4.9085,-4.9614,-4.9614,-4.9838,-5.0011,-5.0011,-5.0011,-5.02,-5.0683,-5.0735,-5.0942,-5.1412,-5.1447,0.0,-5.1808,-5.1808,-5.1929,-5.2188,-5.2735,-5.3373,-5.4132,-5.4132,-5.427,-5.4512,-5.4512,-5.4512,-5.4512,-5.4512,-5.4512,-5.4512,-5.4512,-5.4512,-5.4512,-5.4512,-5.4512,-5.4512,-5.4512,-5.4512,-5.4512,-5.4512,-5.4512,-5.4512,-5.4512,-5.4512,-5.4512,-5.4512,-5.4512,-5.4512,-5.4512,-5.4512,-5.4512,-5.4512,-5.4512,-5.4512,-5.4512,-5.4512,-5.4512,-5.4512,-5.4512,-5.4512,-5.4512,-5.4512,-5.4512,-5.4512,-5.4512,-5.4512,-5.4512,-5.4512,-5.4512,-5.4512,-5.4512,-5.4512,-5.4512,-5.4512,-5.4512,-5.4512,-5.4512,-5.4512,-5.4512,-5.4512,-5.4512,-5.4512,-5.4512,-5.4512,-5.4512,-5.4512,-5.4512,-5.4512,-5.4512,-5.4512,-5.4512,-5.4512,-5.4512,-5.4512,-5.4512,-5.4512,0.0,0.0,0.0,0.0,0.0,0.0,0.0,0.0,-3.9324,-4.2447,-4.3655,-4.4173,-4.4259,-4.5475,-4.6751,-4.7465,-4.8241,-4.8758,-4.8758,-4.9476,-4.9959,-4.9959,-4.9993,-5.0011,-5.0011,-5.0011,-5.0011,-5.0011,-5.0011,-5.0321,-5.1045,-5.108,-5.1425,-5.2136,-5.2153,-5.2532,-5.3356,-5.3391,-5.377,-5.4477,-5.4494,-5.4512,-5.4512,-5.4512,-5.4512,-5.4512,-5.4512,-5.4512,-5.4512,-5.4512,-5.4512,-5.4512,-5.4512,-5.4512,-5.4512,-5.4512,-5.4512,-5.4512,-5.4512,-5.4512,-5.4512,-5.4512,-5.4512,-5.4512,-5.4512,-5.4512,-5.4512,-5.4512,-5.4512,-5.4512,-5.4512,-5.4512,-5.4512,-5.4512,-5.4512,-5.4512,-5.4512,-5.4512,-5.4512,-5.4512,-5.4512,-5.4512,-5.4512,-5.4512,-5.4512,-5.4512,-5.4512,-5.4512,-5.4512,-5.4512,-5.4512,-5.4512,-5.4512,-5.4512,-5.4512,-5.4512,-5.4512,-5.4512,-5.4512,-5.4512,-5.4512,-5.4512,-5.4512,-5.4512,-5.448,-5.448,-5.448,-5.4512,-5.4512,-5.4512,-5.4512,-5.4512,-2.4971,0.0,0.0,0.0,0.0,0.0,0.0,0.0,0.0,-3.9802,-4.0405,-4.0877,-4.3086,-4.3845,-4.4397,-4.5113,-4.6803,-4.8,-4.8,-4.8654,-4.912,-4.912,-4.9666,-5.0011,-5.0011,-5.0011,-5.0011,0.0,-5.0011,-5.0097,-5.0304,-5.0304,-5.0649,-5.139,-5.1395,-5.1787,-5.2528,-5.3115,-5.3511,-5.3718,-5.4253,-5.4512,-5.4512,-5.4512,-5.4512,-5.4512,-5.4512,-5.4512,-5.4512,-5.4512,-5.4512,-5.4512,-5.4512,-5.4512,-5.4512,-5.4512,-5.4512,-5.4512,-5.4512,-5.4512,-5.4512,-5.4512,-5.4512,-5.4512,-5.4512,-5.4512,-5.4512,-5.4512,-5.4512,-5.4512,-5.4512,-5.4512,-5.4512,-5.4512,-5.4512,-5.4512,-5.4512,-5.4512,-5.4512,-5.4512,-5.4512,-5.4512,-5.4512,-5.4512,-5.4512,-5.4512,-5.4512,-5.4512,-5.4512,-5.4512,-5.4512,-5.4512,-5.4512,-5.4512,-5.4512,-5.4512,-5.4512,-5.4512,-5.4512,-5.4512,-5.4512,-5.4512,-5.4512,-5.4512,-5.411,-5.3898,-5.3898,-5.4303,-5.4512,-5.4512,-5.4512,-5.4512,0.0,0.0,0.0,0.0,0.0,0.0,-3.2507,-3.2817,0.0,0.0,-3.8681,-3.9359,-4.1792,-4.2499,-4.2948,-4.3724,-4.4967,-4.6148,-4.7113,-4.7862,-4.8327,-4.8327,-4.8769,-4.9166,-4.9476,-4.951,-4.9648,-4.9976,-5.0011,-5.0011,-5.0011,-5.0011,-5.02,-5.0631,-5.0649,-5.1011,-5.1722,-5.2218,-5.2597,-5.2925,-5.3684,-5.4046,-5.4063,-5.4374,-5.4512,-5.4512,-5.4512,-5.4512,-5.4512,-5.4512,-5.4512,-5.4512,-5.4512,-5.4512,-5.4512,-5.4512,-5.4512,-5.4512,-5.4512,-5.4512,-5.4512,-5.4512,-5.4512,-5.4512,-5.4512,-5.4512,-5.4512,-5.4512,-5.4512,-5.4512,-5.4512,-5.4512,-5.4512,-5.4512,-5.4512,-5.4512,-5.4512,-5.4512,-5.4512,-5.4512,-5.4512,-5.4512,-5.4512,-5.4512,-5.4512,-5.4512,-5.4512,-5.4512,-5.4512,-5.4512,-5.4512,-5.4512,-5.4512,-5.4512,-5.4512,-5.4512,-5.4512,-5.4512,-5.4512,-5.4512,-5.4512,-5.4512,-5.4399,-5.4175,-5.3882,-5.3567,-5.3349,-5.365,-5.3913,-5.4175,-5.4416,-5.4512,0.0,0.0,0.0,0.0,0.0,0.0,-3.3438,-3.2938,-3.2559,0.0,-3.7318,-3.8232,-3.9963,-4.0877,-4.1636,-4.243,-4.2775,-4.3741,-4.6027,-4.6993,-4.7465,-4.7551,-4.7638,-4.7948,-4.8603,-4.8672,-4.8965,-4.97,-4.9821,-4.9907,-5.0011,-5.0011,-5.0011,-5.0011,-5.0011,-5.0321,-5.0976,-5.108,-5.1442,-5.2084,-5.2891,-5.3322,-5.3425,-5.408,-5.4425,-5.4512,-5.4512,-5.4512,-5.4512,-5.4512,-5.4512,-5.4512,-5.4512,-5.4512,-5.4512,-5.4512,-5.4512,-5.4512,-5.4512,-5.4512,-5.4512,-5.4512,-5.4512,-5.4512,-5.4512,-5.4512,-5.4512,-5.4512,-5.4512,-5.4512,-5.4512,-5.4512,-5.4512,-5.4512,-5.4512,-5.4512,-5.4512,-5.4512,-5.4512,-5.4512,-5.4512,-5.4512,-5.4512,-5.4512,-5.4512,-5.4512,-5.4512,-5.4512,-5.4512,-5.4512,-5.4512,-5.4512,-5.4512,-5.4512,-5.4512,-5.4512,-5.4512,-5.4512,-5.4512,-5.448,-5.4399,-5.4416,-5.4143,-5.36,-5.3534,-5.3213,-5.2627,-5.2732,-5.3094,-5.36,-5.4175,-5.4416,-3.3214,0.0,0.0,0.0,0.0,0.0,-3.0041,-2.9834,-3.0506,0.0,-3.2541,-3.3095,-3.5801,-3.6904,-3.768,-3.8479,-4.0152,-4.2137,-4.4432,-4.5389,-4.6086,-4.6751,-4.7355,-4.7741,-4.7896,-4.7896,-4.7965,-4.8148,-4.8689,-4.9309,-4.9976,-5.0011,-5.0011,-5.0011,-5.0011,-5.008,-5.0218,-5.0804,-5.1183,-5.1338,-5.2097,-5.2787,-5.3408,-5.3546,-5.3942,-5.4512,-5.4512,-5.4512,-5.4512,-5.4512,-5.4512,-5.4512,-5.4512,-5.4512,-5.4512,-5.4512,-5.4512,-5.4512,-5.4512,-5.4512,-5.4512,-5.4512,-5.4512,-5.4512,-5.4512,-5.4512,-5.4512,-5.4512,-5.4512,-5.4512,-5.4512,-5.4512,-5.4512,-5.4512,-5.4512,-5.4512,-5.4512,-5.4512,-5.4512,-5.4512,-5.4512,-5.4512,-5.4512,-5.4512,-5.4512,-5.4512,-5.4512,-5.4512,-5.4512,-5.4512,-5.4512,-5.4512,-5.4512,-5.4512,-5.4512,-5.4512,-5.4512,-5.4512,-5.4512,-5.4321,-5.3865,-5.3849,-5.3583,-5.2991,-5.2557,-5.2076,-5.1524,-5.2381,-5.2871,-5.2974,-5.3583,-5.3849,-3.6115,0.0,0.0,-3.3869,0.0,0.0,0.0,-3.0351,-3.0731,-3.3024,-3.23,-3.2162,-3.518,-3.5749,-3.599,-3.6766,-3.8491,-4.0152,-4.1309,-4.3095,-4.444,-4.4854,-4.5216,-4.5734,-4.6466,-4.6535,-4.6862,-4.762,-4.8034,-4.8586,-4.9344,-4.9407,-4.9597,-4.9993,-5.0011,-5.0011,-5.0011,-5.0373,-5.0562,-5.0562,-5.1321,-5.1873,-5.2287,-5.3063,-5.3598,-5.3977,-5.4339,-5.4512,-5.4512,-5.4512,-5.4512,-5.4512,-5.4512,-5.4512,-5.4512,-5.4512,-5.4512,-5.4512,-5.4512,-5.4512,-5.4512,-5.4512,-5.4512,-5.4512,-5.4512,-5.4512,-5.4512,-5.4512,-5.4512,-5.4512,-5.4512,-5.4512,-5.4512,-5.4512,-5.4512,-5.4512,-5.4512,-5.4512,-5.4512,-5.4512,-5.4512,-5.4512,-5.4512,-5.4512,-5.4512,-5.4512,-5.4512,-5.4512,-5.4512,-5.4512,-5.4416,-5.4143,-5.411,-5.3963,-5.3683,-5.3633,-5.3633,-5.3633,-5.3633,-5.3533,-5.3264,-5.323,-5.2974,-5.2416,-5.1858,-5.145,-5.1183,-5.1492,-5.1898,-5.2416,-5.2991,-5.3145,0.0,0.0,0.0,0.0,0.0,-3.3904,0.0,0.0,0.0,-3.368,-3.2645,0.0,0.0,0.0,0.0,0.0,0.0,0.0,0.0,-4.017,0.0,-4.2482,-4.2792,-4.3448,-4.4621,-4.4604,-4.5251,-4.6924,-4.6924,-4.7286,-4.831,-4.8637,-4.9085,-4.9752,-4.9924,-5.0011,-5.0011,-5.0011,-5.0011,-5.0011,-5.0614,-5.0976,-5.1166,-5.2546,-5.3253,-5.3442,-5.4184,-5.4512,-5.4512,-5.4512,-5.4512,-5.4512,-5.4512,-5.4512,-5.4512,-5.4512,-5.4512,-5.4512,-5.4512,-5.4512,-5.4512,-5.4512,-5.4512,-5.4512,-5.4512,-5.4512,-5.4512,-5.4512,-5.4512,-5.4512,-5.4512,-5.4512,-5.4512,-5.4512,-5.4512,-5.4512,-5.4512,-5.4512,-5.4512,-5.4512,-5.4512,-5.4512,-5.4512,-5.4512,-5.4512,-5.4512,-5.4512,-5.448,-5.4353,-5.4353,-5.4143,-5.36,-5.3534,-5.3349,-5.2836,-5.2802,-5.2802,-5.2802,-5.2802,-5.2767,-5.2662,-5.2557,-5.2274,-5.1858,-5.1413,-5.1183,-5.1183,-5.0733,-5.093,-5.1733,-5.217,-5.2224,0.0,0.0,0.0,0.0,-3.7611,0.0,0.0,0.0,-3.2179,-3.0489,0.0,0.0,0.0,0.0,0.0,0.0,0.0,0.0,-3.3749,-3.6197,-3.8634,-3.9939,-4.1309,-4.2181,-4.2354,-4.1809,-4.2327,-4.4535,-4.4087,-4.4613,-4.6751,-4.8086,-4.8827,-4.893,-4.9631,-5.0011,-5.0011,-5.0011,-5.0011,-5.0011,-5.0097,-5.0476,-5.1149,-5.1977,-5.2735,-5.3442,-5.4184,-5.4512,-5.4512,-5.4512,-5.4512,-5.4512,-5.4512,-5.4512,-5.4512,-5.4512,-5.4512,-5.4512,-5.4512,-5.4512,-5.4512,-5.4512,-5.4512,-5.4512,-5.4512,-5.4512,-5.4512,-5.4512,-5.4512,-5.4512,-5.4512,-5.4512,-5.4512,-5.4512,-5.4512,-5.4512,-5.4512,-5.4512,-5.4512,-5.4512,-5.4512,-5.4512,-5.4512,-5.4512,-5.4512,-5.4512,-5.4512,-5.4335,-5.3832,-5.3766,-5.355,-5.2974,-5.2905,-5.2871,-5.2802,-5.2802,-5.2802,-5.2802,-5.2802,-5.2592,-5.2095,-5.1619,-5.1355,-5.128,-5.1221,-5.1183,-5.1183,-5.0733,-5.0547,-5.0663,-5.0865,-5.0908,0.0,0.0,0.0,0.0,0.0,0.0,-3.3561,0.0,-3.2231,0.0,0.0,0.0,0.0,0.0,0.0,0.0,-3.211,0.0,0.0,0.0,-3.5059,0.0,0.0,0.0,-4.0526,-4.0825,-4.1671,-4.3517,-4.2551,-4.3044,-4.5742,-4.6483,-4.7431,-4.8758,-4.912,-4.9545,-5.0011,-5.0011,-5.0011,-5.0011,-5.0011,-5.0166,-5.0493,-5.1235,-5.1994,-5.2753,-5.3529,-5.4098,-5.4512,-5.4512,-5.4512,-5.4512,-5.4512,-5.4512,-5.4512,-5.4512,-5.4512,-5.4512,-5.4512,-5.4512,-5.4512,-5.4512,-5.4512,-5.4512,-5.4512,-5.4512,-5.4512,-5.4512,-5.4512,-5.4512,-5.4512,-5.4512,-5.4512,-5.4512,-5.4512,-5.4512,-5.4512,-5.4512,-5.4512,-5.4512,-5.4512,-5.4512,-5.4512,-5.4512,-5.4399,-5.4078,-5.4045,-5.3832,-5.3264,-5.3162,-5.2957,-5.2416,-5.2345,-5.2203,-5.1911,-5.1875,-5.1875,-5.1875,-5.1875,-5.1765,-5.1561,-5.1317,-5.1183,-5.1183,-5.1183,-5.1054,-5.081,-5.0386,-5.0018,-4.9821,-5.0104,-5.0104,-4.1464,0.0,0.0,0.0,0.0,0.0,0.0,0.0,0.0,0.0,0.0,0.0,0.0,0.0,0.0,0.0,0.0,0.0,0.0,0.0,0.0,0.0,0.0,0.0,0.0,-3.8945,-3.9842,-4.1792,-4.0722,-4.1267,-4.432,-4.5052,-4.6155,-4.781,-4.8465,-4.9068,-4.9683,-4.989,-5.0011,-5.0011,-5.0011,-5.0011,-5.0028,-5.0769,-5.1481,-5.2222,-5.3063,-5.3822,-5.4512,-5.4512,-5.4512,-5.4512,-5.4512,-5.4512,-5.4512,-5.4512,-5.4512,-5.4512,-5.4512,-5.4512,-5.4512,-5.4512,-5.4512,-5.4512,-5.4512,-5.4512,-5.4512,-5.4512,-5.4512,-5.4512,-5.4512,-5.4512,-5.4512,-5.4512,-5.4512,-5.4512,-5.4512,-5.4512,-5.4512,-5.4512,-5.4367,-5.4271,-5.4271,-5.4271,-5.4143,-5.375,-5.3567,-5.323,-5.2662,-5.2592,-5.2381,-5.1822,-5.1786,-5.1619,-5.1221,-5.1183,-5.1183,-5.1183,-5.1183,-5.1183,-5.1183,-5.1183,-5.1183,-5.1183,-5.1183,-5.0978,-5.0525,-5.0113,-4.9677,-4.9316,-4.9477,-4.9396,0.0,0.0,0.0,-3.7508,0.0,0.0,0.0,0.0,-3.4887,0.0,0.0,0.0,0.0,0.0,0.0,0.0,0.0,0.0,0.0,0.0,0.0,0.0,0.0,0.0,0.0,-3.5128,-3.5563,0.0,-3.8047,-3.8945,-4.1964,-4.4216,-4.5432,-4.5518,-4.7638,-4.881,-4.8827,-4.9631,-5.0011,-5.0011,-5.0011,-5.0011,-5.0028,-5.0769,-5.1481,-5.2222,-5.3063,-5.3822,-5.4512,-5.4512,-5.4512,-5.4512,-5.4512,-5.4512,-5.4512,-5.4512,-5.4512,-5.4512,-5.4512,-5.4512,-5.4512,-5.4512,-5.4512,-5.4512,-5.4512,-5.4512,-5.4512,-5.4512,-5.4512,-5.4512,-5.4512,-5.4512,-5.4512,-5.4512,-5.4512,-5.4512,-5.4512,-5.4512,-5.4512,-5.4512,-5.4078,-5.375,-5.375,-5.375,-5.3717,-5.37,-5.3196,-5.2627,-5.2095,-5.2023,-5.1822,-5.128,-5.1221,-5.1221,-5.1183,-5.1183,-5.1183,-5.1183,-5.1183,-5.1183,-5.1183,-5.1183,-5.1183,-5.1183,-5.1183,-5.0978,-5.0525,-5.0113,-4.9677,-4.9275,-4.8867,-4.8646,0.0,0.0,-4.3069,-3.9439,0.0,0.0,0.0,0.0,0.0,0.0,0.0,0.0,0.0,0.0,0.0,0.0,0.0,0.0,0.0,0.0,0.0,0.0,0.0,0.0,0.0,0.0,0.0,0.0,-3.7146,0.0,-4.1826,-4.3258,-4.4389,-4.5363,-4.6655,-4.7793,-4.8775,-4.9051,-4.9465,-5.0011,-5.0011,-5.0011,-5.0011,-5.0269,-5.0787,-5.1498,-5.2287,-5.3063,-5.3822,-5.4305,-5.4512,-5.4512,-5.4512,-5.4512,-5.4512,-5.4512,-5.4512,-5.4512,-5.4512,-5.4512,-5.4512,-5.4512,-5.4512,-5.4512,-5.4512,-5.4512,-5.4512,-5.4512,-5.4512,-5.4512,-5.4512,-5.4512,-5.4512,-5.4512,-5.4512,-5.4512,-5.4512,-5.4512,-5.4416,-5.4045,-5.3799,-5.3567,-5.3162,-5.2802,-5.2557,-5.2557,-5.2416,-5.2059,-5.1561,-5.145,-5.1392,-5.1221,-5.1183,-5.1183,-5.1183,-5.1183,-5.1183,-5.1183,-5.1183,-5.1183,-5.1183,-5.1183,-5.1183,-5.1183,-5.1183,-5.0826,-5.0113,-4.9955,-4.9517,-4.8826,-4.8646,-4.862,-4.3741,-4.3931,0.0,-4.0843,-3.9767,0.0,-3.5942,0.0,-3.7012,0.0,0.0,0.0,0.0,0.0,0.0,0.0,0.0,0.0,0.0,-2.823,0.0,0.0,0.0,0.0,0.0,0.0,-3.3335,-3.646,-3.5956,0.0,0.0,-4.2465,-4.3655,-4.4596,-4.5924,-4.7172,-4.8396,-4.8654,-4.9189,-5.0011,-5.0011,-5.0011,-5.0011,-5.0011,-5.0407,-5.1149,-5.186,-5.2666,-5.346,-5.4201,-5.4512,-5.4512,-5.4512,-5.4512,-5.4512,-5.4512,-5.4512,-5.4512,-5.4512,-5.4512,-5.4512,-5.4512,-5.4512,-5.4512,-5.4512,-5.4512,-5.4512,-5.4512,-5.4512,-5.448,-5.4399,-5.4448,-5.448,-5.4399,-5.4303,-5.4207,-5.4207,-5.4061,-5.3782,-5.345,-5.3247,-5.2991,-5.2592,-5.2059,-5.1786,-5.1951,-5.1858,-5.1545,-5.1,-5.094,-5.0902,-5.0749,-5.0749,-5.0749,-5.0749,-5.0864,-5.0902,-5.0749,-5.0864,-5.0902,-5.0749,-5.0749,-5.0788,-5.094,-5.0826,-5.0464,-4.9876,-4.9757,-4.9316,-4.862,-4.862,-4.862]},{"header":{"parameterUnit":"m.s-1","parameterCategory":1,"la1":30.6,"la2":29.2853,"lo1":-89.7004,"lo2":-87.6739,"dy":0.0162,"dx":0.0183,"nx":112,"ny":82,"refTime":"2024-05-29T12:00:00:Z","depth":0,"parameterNumber":3,"parameterNumberName":"V-component_of_WINDS"},"data":[0.0,0.0,0.0,0.0,0.0,0.0,0.0,0.0,0.0,0.0,0.0,0.0,0.0,0.0,0.0,0.0,0.0,0.0,0.0,0.0,0.0,0.0,0.0,0.0,0.0,0.0,0.0,0.0,0.0,0.0,0.0,0.0,0.0,0.0,0.0,0.0,0.0,0.0,0.0,0.0,0.0,0.0,0.0,0.0,0.0,0.0,0.0,0.0,0.0,0.0,0.0,0.0,0.0,0.0,0.0,0.0,0.0,0.0,0.0,0.0,0.0,0.0,0.0,0.0,0.0,0.0,0.0,0.0,0.0,0.0,0.0,0.0,0.0,0.0,0.0,0.0,0.0,0.0,0.0,0.0,0.0,0.0,0.0,0.0,0.0,0.0,0.0,0.0,0.0,0.0,1.1473,1.2566,1.3851,1.4967,1.578,1.5293,1.4532,1.3599,0.0,0.0,0.0,0.0,0.0,0.0,0.0,0.0,0.0,0.0,0.0,0.0,0.0,0.0,0.0,0.0,0.0,0.0,0.0,0.0,0.0,0.0,0.0,0.0,0.0,0.0,0.0,0.0,0.0,0.0,0.0,0.0,0.0,0.0,0.0,0.0,0.0,0.0,0.0,0.0,0.0,0.0,0.0,0.0,0.0,0.0,0.0,0.0,0.0,0.0,0.0,0.0,0.0,0.0,0.0,0.0,0.0,0.0,0.0,0.0,0.0,0.0,0.0,0.0,0.0,0.0,0.0,0.0,0.0,0.0,0.0,0.0,0.0,0.0,0.0,0.0,0.0,0.0,0.0,0.0,0.0,0.0,0.0,0.0,0.0,0.0,0.0,0.0,0.0,0.0,0.0,0.0,0.0,0.0,0.0,0.0,0.0,0.0,0.0,0.0,0.0,0.0,0.0,0.0,1.1697,1.4099,1.436,1.4692,1.547,1.5034,1.4659,1.4587,0.0,0.0,0.0,0.0,0.0,0.0,0.0,0.0,0.0,0.0,0.0,0.0,0.0,0.0,0.0,0.0,0.0,0.0,0.0,0.0,0.0,0.0,0.0,0.0,0.0,0.0,0.0,0.0,0.0,0.0,0.0,0.0,0.0,0.0,0.0,0.0,0.0,0.0,0.0,0.0,0.0,0.0,0.0,0.0,0.0,0.0,0.0,0.0,0.0,0.0,0.0,0.0,0.0,0.0,0.0,0.0,0.0,0.0,0.0,0.0,0.0,0.0,0.0,0.0,0.0,0.0,0.0,0.0,0.0,0.0,0.0,0.0,0.0,0.0,0.0,0.0,0.0,0.0,0.0,0.0,0.0,0.0,0.0,0.0,0.0,0.0,0.0,0.0,0.0,0.0,0.0,0.0,0.0,0.0,0.0,0.0,0.0,0.0,0.0,0.0,0.0,0.0,0.0,1.1044,1.2288,1.4672,1.454,1.4624,1.5431,1.4691,1.4399,1.4768,1.3697,0.0,0.0,0.0,0.0,0.0,0.0,0.0,0.0,0.0,0.0,0.0,0.0,0.0,0.0,0.0,0.0,0.0,0.0,0.0,0.0,0.0,0.0,0.0,0.0,0.0,0.0,0.0,0.0,0.0,0.0,0.0,0.0,0.0,0.0,0.0,0.0,0.0,0.0,0.0,0.0,0.0,0.0,0.0,0.0,0.0,0.0,0.0,0.0,0.0,0.0,0.0,0.0,0.0,0.0,0.0,0.0,0.0,0.0,0.0,0.0,0.0,0.0,0.0,0.0,0.0,0.0,0.0,0.0,0.0,0.0,0.0,0.0,0.0,0.0,0.0,0.0,0.0,0.0,0.0,0.0,0.0,0.0,0.0,0.0,0.0,0.0,0.0,0.0,0.0,0.0,0.0,0.0,0.0,0.0,0.0,0.0,0.0,0.0,0.0,0.0,0.0,0.0,1.2186,1.2994,1.4823,1.4588,1.4582,1.5357,1.4291,1.389,1.4602,1.3147,0.0,0.0,0.0,0.0,0.0,0.0,0.0,0.0,0.0,0.0,0.0,0.0,0.0,0.0,0.0,0.0,0.0,0.0,0.0,0.0,0.0,0.0,0.0,0.0,0.0,0.0,0.0,0.0,0.0,0.0,0.0,0.0,0.0,0.0,0.0,0.0,0.0,0.0,0.0,0.0,0.0,0.0,0.0,0.0,0.0,0.0,0.0,0.0,0.0,0.0,0.0,0.0,0.0,0.0,0.0,0.0,0.0,0.0,0.0,0.0,0.0,0.0,0.0,0.0,0.0,0.0,0.0,0.0,0.0,0.0,0.0,0.0,0.0,0.0,0.0,0.0,0.0,0.0,0.0,0.0,0.0,0.0,0.0,0.0,0.0,0.0,0.0,0.0,0.0,0.0,0.0,0.0,0.0,0.0,0.0,0.0,0.0,0.0,0.0,0.0,0.0,0.0,1.2487,1.3749,1.4648,1.4473,1.4509,1.5097,1.3703,1.3205,1.417,1.2232,0.0,0.0,0.0,0.0,0.0,0.0,0.0,0.0,0.0,0.0,0.0,0.0,0.0,0.0,0.0,0.0,0.0,0.0,0.0,0.0,0.0,0.0,0.0,0.0,0.0,0.0,0.0,0.0,0.0,0.0,0.0,0.0,0.0,0.0,0.0,0.0,0.0,0.0,0.0,0.0,0.0,0.0,0.0,0.0,0.0,0.0,0.0,0.0,0.0,0.0,0.0,0.0,0.0,0.0,0.0,0.0,0.0,0.0,0.0,0.0,0.0,0.0,0.0,0.0,0.0,0.0,0.0,0.0,0.0,0.0,0.0,0.0,0.0,0.0,0.0,0.0,0.0,0.0,0.0,0.0,0.0,0.0,0.0,0.0,0.0,0.0,0.0,0.0,0.0,0.0,0.0,0.0,0.0,0.0,0.0,0.0,0.0,0.0,0.0,0.0,0.0,0.0,1.2077,1.3266,1.4576,1.4467,1.4455,1.4832,1.3976,1.3584,1.3928,0.0,0.0,0.0,0.0,0.0,0.0,0.0,0.0,0.0,0.0,0.0,0.0,0.0,0.0,0.0,0.0,0.0,0.0,0.0,0.0,0.0,0.0,0.0,0.0,0.0,0.0,0.0,0.0,0.0,0.0,0.0,0.0,0.0,0.0,0.0,0.0,0.0,0.0,0.0,0.0,0.0,0.0,0.0,0.0,0.0,0.0,0.0,0.0,0.0,0.0,0.0,0.0,0.0,0.0,0.0,0.0,0.0,0.0,0.0,0.0,0.0,0.0,0.0,0.0,0.0,0.0,0.0,0.0,0.0,0.0,0.0,0.0,0.0,0.0,0.0,0.0,0.0,0.0,0.0,0.0,0.0,0.0,0.0,0.0,0.0,0.0,0.0,0.0,0.0,0.0,0.0,0.0,0.0,0.0,0.0,0.0,0.0,0.0,0.0,0.0,0.0,0.0,1.0972,1.2035,1.3181,1.4449,1.4413,1.4425,1.4667,1.3805,1.3416,1.37,0.0,0.0,0.0,0.0,0.0,0.0,0.0,0.0,0.0,0.0,0.0,0.0,0.0,0.0,0.0,0.0,0.0,0.0,0.0,0.0,0.0,0.0,0.0,0.0,0.0,0.0,0.0,0.0,0.0,0.0,0.0,0.0,0.0,0.0,0.0,0.0,0.0,0.0,0.0,0.0,0.0,0.0,0.0,0.0,0.0,0.0,0.0,0.0,0.0,0.0,0.0,0.0,0.0,0.0,0.0,0.0,0.0,0.0,0.0,0.0,0.0,0.0,0.0,0.0,0.0,0.0,0.0,0.0,0.0,0.0,0.0,0.0,0.0,0.0,0.0,0.0,0.0,0.0,0.0,0.0,0.0,0.0,0.0,0.0,0.0,0.0,0.0,0.0,0.0,0.0,0.0,0.0,0.0,0.0,0.0,0.0,0.0,0.0,0.0,0.0,0.0,0.0,1.1045,1.2518,1.3719,1.4244,1.4298,1.4394,1.4688,1.2979,1.2388,0.0,0.0,0.0,0.0,0.0,0.0,0.0,0.0,0.0,0.0,0.0,0.0,0.0,0.0,0.0,0.0,0.0,0.0,0.0,0.0,0.0,0.0,0.0,0.0,0.0,0.0,0.0,0.0,0.0,0.0,0.0,0.0,0.0,0.0,0.0,0.0,0.0,0.0,0.0,0.0,0.0,0.0,0.0,0.0,0.0,0.0,0.0,0.0,0.0,0.0,0.0,0.0,0.0,0.0,0.0,0.0,0.0,0.0,0.0,0.0,0.0,0.0,0.0,0.0,0.0,0.0,0.0,0.0,0.0,0.0,0.0,0.0,0.0,0.0,0.0,0.0,0.0,0.0,0.0,0.0,0.0,0.0,0.0,0.0,0.0,0.0,0.0,0.0,0.0,0.0,0.0,0.0,0.0,0.0,0.0,0.0,0.0,0.0,0.0,0.0,0.0,0.0,0.0,1.1045,1.2518,1.3719,1.4244,1.4298,1.4346,1.4394,1.3574,1.2934,1.2758,0.0,0.0,0.0,0.0,0.0,0.0,0.0,0.0,0.0,0.0,0.0,0.0,0.0,0.0,0.0,0.0,0.0,0.0,0.0,0.0,0.0,0.0,0.0,0.0,0.0,0.0,0.0,0.0,0.0,0.0,0.0,0.0,0.0,0.0,0.0,0.0,0.0,0.0,0.0,0.0,0.0,0.0,0.0,0.0,0.0,0.0,0.0,0.0,0.0,0.0,0.0,0.0,0.0,0.0,0.0,0.0,0.0,0.0,0.0,0.0,0.0,0.0,0.0,0.0,0.0,0.0,0.0,0.0,0.0,0.0,0.0,0.0,0.0,0.0,0.0,0.0,0.0,0.0,0.0,0.0,0.0,0.0,0.0,0.0,0.0,0.0,0.0,0.0,0.0,0.0,0.0,0.0,0.0,0.0,0.0,0.0,0.0,0.0,0.0,0.0,0.0,0.0,1.117,1.2681,1.3833,1.425,1.4298,1.4298,1.4298,1.3704,1.3084,1.2508,0.0,0.0,0.0,0.0,0.0,0.0,0.0,0.0,0.0,0.0,0.0,0.0,0.0,0.0,0.0,0.0,0.0,0.0,0.0,0.0,0.0,0.0,0.0,0.0,0.0,0.0,0.0,0.0,0.0,0.0,0.0,0.0,0.0,0.0,0.0,0.0,0.0,0.0,0.0,0.0,0.0,0.0,0.0,0.0,0.0,0.0,0.0,0.0,0.0,0.0,0.0,0.0,0.0,0.0,0.0,0.0,0.0,0.0,0.0,0.0,0.0,0.0,0.0,0.0,0.0,0.0,0.0,0.0,0.0,0.0,0.0,0.0,0.0,0.0,0.0,0.0,0.0,0.0,0.0,0.0,0.0,0.0,0.0,0.0,0.0,0.0,0.0,0.0,0.0,0.0,0.0,0.0,0.0,0.0,0.0,0.0,0.0,0.0,0.0,0.0,0.0,0.0,1.1423,1.2922,1.4008,1.4268,1.4298,1.4298,1.4298,1.3598,1.2948,1.2576,0.0,0.0,0.0,0.0,0.0,0.0,0.0,0.0,0.0,0.0,0.0,0.0,0.0,0.0,0.0,0.0,0.0,0.0,0.0,0.0,0.0,0.0,0.0,0.0,0.0,0.0,0.0,0.0,0.0,0.0,0.0,0.0,0.0,0.0,0.0,0.0,0.0,0.0,0.0,0.0,0.0,0.0,0.0,0.0,0.0,0.0,0.0,0.0,0.0,0.0,0.0,0.0,0.0,0.0,0.0,0.0,0.0,0.0,0.0,0.0,1.1578,1.0995,0.0,0.0,0.0,0.0,0.0,0.0,0.0,0.0,0.0,0.0,0.0,0.0,0.0,0.0,0.0,0.0,0.0,0.0,0.0,0.0,0.0,0.0,0.0,0.0,0.0,0.0,0.0,0.0,0.0,0.0,0.0,0.0,0.0,0.0,0.0,0.0,0.0,0.0,0.0,0.0,1.1423,1.2922,1.4008,1.4268,1.4298,1.4298,1.4298,1.3767,1.3057,1.2249,1.1566,0.0,0.0,0.0,0.0,0.0,0.0,0.0,0.0,0.0,0.0,0.0,0.0,0.0,0.0,0.0,0.0,0.0,0.0,0.0,0.0,0.0,0.0,0.0,0.0,0.0,0.0,0.0,0.0,0.0,0.0,0.0,0.0,0.0,0.0,0.0,0.0,0.0,0.0,0.0,0.0,0.0,0.0,0.0,0.0,0.0,0.0,0.0,0.0,0.0,0.0,0.0,0.0,0.0,0.0,0.0,0.0,0.0,0.0,0.0,1.2994,1.2349,0.0,0.0,0.0,0.0,0.0,0.0,0.0,0.0,0.0,0.0,0.0,0.0,0.0,0.0,0.0,0.0,0.0,0.0,0.0,0.0,0.0,0.0,0.0,0.0,0.0,0.0,0.0,0.0,0.0,0.0,0.0,0.0,0.0,0.0,0.0,0.0,0.0,0.0,0.0,0.0,1.1784,1.3188,1.4147,1.4286,1.4298,1.4298,1.4298,1.393,1.3296,1.2438,1.1948,0.0,0.0,0.0,0.0,0.0,0.0,0.0,0.0,0.0,0.0,0.0,0.0,0.0,0.0,0.0,0.0,0.0,0.0,0.0,0.0,0.0,0.0,0.0,0.0,0.0,0.0,0.0,0.0,0.0,0.0,0.0,0.0,0.0,0.0,0.0,0.0,0.0,0.0,0.0,0.0,0.0,0.0,0.0,0.0,0.0,0.0,0.0,0.0,0.0,0.0,0.0,0.0,0.0,1.4481,1.4894,1.5282,1.5692,1.5939,1.6042,1.455,1.4135,1.4285,1.3012,0.0,0.0,0.0,0.0,0.0,0.0,0.0,0.0,0.0,0.0,0.0,0.0,0.0,0.0,0.0,0.0,0.0,0.0,0.0,0.0,0.0,0.0,1.2735,1.2735,1.3242,1.3302,1.1712,0.0,0.0,0.0,0.0,0.0,0.0,0.0,0.0,0.0,0.0,0.0,1.2276,1.3501,1.4298,1.4298,1.4298,1.4298,1.4298,1.4099,1.3652,1.2892,1.2503,1.1906,0.0,0.0,0.0,0.0,0.0,0.0,0.0,0.0,0.0,0.0,0.0,0.0,0.0,0.0,0.0,0.0,0.0,0.0,0.0,0.0,0.0,0.0,0.0,0.0,0.0,0.0,0.0,0.0,0.0,0.0,0.0,0.0,0.9756,1.0327,0.0,0.0,0.0,0.0,0.0,0.0,0.0,0.0,0.0,0.0,0.0,0.0,0.0,1.378,1.43,1.5091,1.5571,1.5842,1.666,1.6999,1.6843,1.7364,1.743,1.7277,1.7043,0.0,1.5524,1.5125,0.0,0.0,0.0,0.0,0.0,0.0,0.0,0.0,0.0,0.0,0.0,0.0,0.0,0.0,0.0,0.0,0.0,0.0,0.0,0.0,0.0,0.0,1.4401,1.4401,1.4479,1.4491,1.4244,1.2873,1.1555,1.1015,1.0472,1.0033,0.0,0.0,0.0,0.0,0.0,0.0,1.2548,1.3616,1.4298,1.4298,1.4298,1.4298,1.4298,1.4262,1.4008,1.3441,1.2911,1.2638,1.259,1.1302,0.0,0.0,0.0,0.0,0.0,0.0,0.0,0.0,0.0,0.0,0.0,0.0,0.0,0.0,0.0,0.0,0.0,0.0,0.0,0.0,0.0,0.0,0.0,0.0,0.0,0.0,0.0,0.0,0.0,0.9934,1.0633,1.09,1.0902,1.0723,0.0,0.0,0.0,0.0,0.0,0.0,0.0,0.0,0.0,1.4543,1.5029,1.5515,1.6021,1.6472,1.6911,1.7179,1.7539,1.7736,1.7774,1.8423,1.8652,1.8526,1.8885,1.8647,1.7935,1.6676,1.5829,1.5244,0.0,0.0,0.0,0.0,1.4005,1.4053,1.4598,1.4484,1.4089,1.3993,0.0,0.0,0.0,0.0,0.0,0.0,0.0,1.3085,1.3495,1.4262,1.4974,1.5119,1.527,1.5336,1.5191,1.4509,1.3598,1.2463,1.1926,1.1351,1.0491,1.0268,0.0,0.0,0.0,1.2427,1.3079,1.3827,1.4298,1.4298,1.4298,1.4298,1.4298,1.4298,1.4135,1.3761,1.3236,1.2856,1.2742,1.1949,1.1645,0.0,0.0,0.0,0.0,0.0,0.0,0.0,0.0,0.0,0.0,0.0,0.0,0.0,0.0,0.0,0.0,0.0,0.0,0.0,0.0,0.0,0.0,0.0,0.0,0.0,0.0,0.0,0.0,1.0919,1.14,1.1563,1.1954,1.1929,0.0,0.0,0.0,0.0,0.0,0.0,1.4062,1.4575,1.5218,1.6092,1.6637,1.7051,1.7286,1.7557,1.7823,1.8082,1.8082,1.8227,1.8493,1.9044,1.9224,1.9285,1.9717,1.98,1.9495,1.7983,1.7192,1.6874,1.6059,1.5597,1.5421,1.5517,1.5502,1.5544,1.6219,1.6093,1.5612,1.5419,1.4752,1.3905,1.315,0.0,0.0,0.0,0.0,1.3942,1.4467,1.4902,1.5276,1.5535,1.5747,1.5837,1.5644,1.5547,1.5107,1.3785,1.3302,1.2753,1.1591,1.1479,0.0,1.1612,0.0,1.3006,1.3544,1.4014,1.4298,1.4298,1.4298,1.4298,1.4298,1.4298,1.4214,1.4014,1.3559,1.3218,1.302,1.2609,1.2427,1.2504,0.0,0.0,0.0,0.0,0.0,0.0,0.0,0.0,0.0,0.0,0.0,0.0,0.0,0.0,0.0,0.0,0.0,0.0,0.0,0.0,0.0,0.0,0.0,0.0,0.0,0.0,0.0,0.0,0.0,1.2828,1.2973,0.0,0.0,0.0,0.0,1.3721,1.4277,1.502,1.6026,1.6375,1.67,1.7002,1.758,1.7864,1.7835,1.8112,1.8384,1.8644,1.8644,1.8782,1.9036,1.91,1.91,1.91,1.9164,1.9132,1.9125,1.9233,1.9085,1.8724,1.8103,1.7822,1.7749,1.7272,1.7038,1.6965,1.6846,1.6568,1.6314,1.6501,1.5873,1.5016,1.4962,1.4413,0.0,0.0,1.4431,1.4775,1.5306,1.5457,1.5547,1.5807,1.5879,1.5885,1.5873,1.5674,1.533,1.4751,1.4407,1.4039,1.3471,0.0,1.2711,1.2982,1.3067,1.3252,1.3815,1.4129,1.4298,1.4298,1.4298,1.4298,1.4298,1.4298,1.4292,1.428,1.4022,1.3948,1.4096,1.3326,1.3282,1.4181,1.2196,0.0,0.0,0.0,0.0,0.0,0.0,0.0,0.0,0.0,0.0,0.0,0.0,0.0,0.0,0.0,0.0,0.0,0.0,0.0,0.0,0.0,0.0,0.0,0.0,0.0,0.0,0.0,0.0,1.4189,1.447,0.0,1.4129,1.4443,1.4924,1.5411,1.5781,1.6393,1.7238,1.741,1.766,1.81,1.83,1.8475,1.8644,1.8746,1.8843,1.8933,1.8933,1.8982,1.9142,1.9328,1.945,1.945,1.9654,1.9725,1.9739,1.9816,1.9557,1.9122,1.8905,1.8594,1.8248,1.8031,1.783,1.7606,1.7542,1.731,1.7014,1.6779,1.6332,1.5879,1.5867,1.5662,1.5457,1.5565,1.5789,1.6036,1.6223,1.6272,1.6296,1.6386,1.641,1.6362,1.6181,1.6066,1.5897,1.5541,1.5119,1.4648,1.4111,1.4147,1.4165,1.3918,1.4177,1.4467,1.4654,1.4612,1.457,1.457,1.4401,1.4298,1.4298,1.4298,1.4226,1.4057,1.3805,1.366,1.3749,1.3065,1.3028,1.371,1.2697,1.2071,0.0,0.0,0.0,0.0,0.0,0.0,0.0,0.0,0.0,0.0,0.0,0.0,0.0,0.0,0.0,0.0,0.0,0.0,0.0,0.0,0.0,0.0,0.0,0.0,0.0,1.3448,1.4229,1.493,1.5597,1.5868,1.5529,1.6016,1.6509,1.6841,1.699,1.7406,1.8112,1.8149,1.8354,1.8801,1.8813,1.8897,1.9072,1.9078,1.9078,1.9078,1.9078,1.9078,1.9142,1.9328,1.945,1.9456,1.9654,1.9781,1.9781,1.9781,1.965,1.9383,1.9414,1.926,1.8954,1.8733,1.8517,1.8312,1.8137,1.7901,1.7702,1.7352,1.6996,1.6706,1.6688,1.6561,1.6423,1.6435,1.6567,1.67,1.67,1.67,1.67,1.67,1.67,1.6652,1.6459,1.6423,1.6344,1.6072,1.5668,1.5228,1.4781,1.5004,1.5089,1.4636,1.4877,1.5107,1.5107,1.4956,1.4817,1.4727,1.4552,1.4401,1.4304,1.4214,1.4129,1.4045,1.3713,1.3519,1.3511,1.306,1.318,1.387,1.3787,1.3404,1.2763,0.0,0.0,0.0,0.0,0.0,0.0,0.0,0.0,0.0,0.0,0.0,0.0,0.0,0.0,0.0,0.0,0.0,0.0,0.0,0.0,0.0,0.0,0.0,1.3316,1.4317,1.5053,1.5143,1.632,1.6911,1.6423,1.7062,1.7618,1.7877,1.7901,1.8131,1.8668,1.8698,1.8813,1.9066,1.9078,1.9078,1.909,1.909,1.909,1.909,1.909,1.9084,1.9078,1.9078,1.9078,1.9078,1.9078,1.9078,1.9078,1.9142,1.9328,1.9616,1.9682,1.9893,2.0103,1.9436,1.9273,1.9219,1.8551,1.8306,1.8306,1.83,1.7937,1.7503,1.7497,1.7141,1.6736,1.6724,1.6724,1.6724,1.6724,1.6724,1.6724,1.6724,1.6724,1.6724,1.6712,1.6712,1.6628,1.635,1.6085,1.5819,1.5559,1.5511,1.5421,1.5167,1.5131,0.0,1.5131,1.5125,1.5022,1.4769,1.4727,1.4606,1.4334,1.4069,1.402,1.4256,1.3822,1.3511,1.3498,1.3403,1.3826,1.4815,1.5368,1.5172,1.4142,0.0,0.0,0.0,0.0,0.0,0.0,0.0,0.0,0.0,0.0,0.0,0.0,0.0,0.0,0.0,0.0,0.0,0.0,0.0,0.0,0.0,1.3335,1.431,1.457,1.503,1.5721,1.6706,1.7153,1.7473,1.7726,1.7943,1.8179,1.8438,1.8463,1.8607,1.8945,1.8969,1.9,1.9072,1.9078,1.9169,1.9421,1.9356,1.9356,1.9356,1.9356,1.9259,1.9078,1.9078,1.9078,1.9078,1.9078,1.9078,1.9136,1.9392,1.9514,1.9571,1.963,1.9662,1.9713,1.9569,1.9354,1.9083,1.8706,1.8577,1.8547,1.8354,1.8191,1.8028,1.7829,1.7666,1.7509,1.7322,1.7267,1.7267,1.7267,1.7267,1.7267,1.7267,1.7267,1.7213,1.7026,1.6984,1.6905,1.6634,1.6362,1.6091,1.5831,1.5783,1.5759,1.5686,1.5674,0.0,1.5674,1.5511,1.5366,1.5288,1.4944,1.4684,1.4606,1.4346,1.4057,1.3749,1.3752,1.3767,1.373,1.4053,1.4634,1.5454,1.498,1.4902,0.0,0.0,0.0,0.0,0.0,0.0,0.0,0.0,0.0,0.0,0.0,0.0,0.0,0.0,0.0,0.0,0.0,0.0,0.0,0.0,0.0,0.0,1.4401,1.5415,1.6018,1.6235,1.6616,1.7394,1.7781,1.8112,1.8426,1.8559,1.8686,1.8837,1.8849,1.8915,1.9066,1.9181,1.9241,1.9241,1.9356,1.9489,1.9639,1.9639,1.9639,1.9639,1.9639,1.9561,1.941,1.9295,1.9241,1.9229,1.9126,1.9078,1.9136,1.9328,1.9386,1.9386,0.0,0.0,0.0,0.0,1.9386,1.9054,1.8897,1.8849,1.8825,1.8674,1.8547,1.8426,1.8263,1.8137,1.7992,1.772,1.7648,1.7624,1.7509,1.7485,1.7485,1.7485,1.7485,1.7443,1.7286,1.7255,1.7177,1.6917,1.673,0.0,1.6115,1.5964,1.5891,1.5891,1.5891,1.5891,1.5891,1.5759,1.562,1.5511,1.5228,1.4956,1.4739,1.4461,0.0,0.0,0.0,1.3702,1.3652,1.4234,0.0,0.0,0.0,0.0,0.0,0.0,0.0,0.0,1.6535,1.6551,0.0,0.0,0.0,0.0,0.0,0.0,0.0,0.0,0.0,0.0,0.0,0.0,0.0,0.0,0.0,0.0,1.5348,1.6374,1.7382,1.7581,1.7618,1.7618,1.8251,1.8698,1.8728,1.8939,1.9078,1.9078,1.9102,1.912,1.912,1.9374,0.0,0.0,0.0,1.9899,1.9929,1.9935,1.9935,1.9935,1.9935,1.9917,1.9875,1.9627,1.9578,1.9501,1.9235,1.912,1.912,1.9148,1.9142,1.92,1.945,1.9711,1.9979,1.9647,1.9392,1.9078,1.9078,0.0,0.0,1.9078,1.8921,1.8722,1.8692,1.8523,1.8281,1.7998,1.7919,1.7859,1.7593,1.7527,1.7521,1.7491,1.7485,1.7485,1.7485,1.7485,1.7412,1.7177,1.7111,1.6942,1.6453,1.6133,1.5928,1.5891,1.5891,1.5891,1.5891,1.5891,1.5801,1.5565,0.0,0.0,1.4805,1.4503,1.4322,1.4256,1.3815,1.3684,1.3848,1.44,1.5312,1.6605,1.7282,1.8332,1.9825,1.9916,1.9976,1.9966,1.7779,1.7496,0.0,0.0,0.0,0.0,0.0,0.0,0.0,0.0,0.0,0.0,0.0,0.0,0.0,0.0,0.0,1.5372,1.6302,1.708,1.7708,1.8173,1.845,1.845,1.8589,1.8764,1.8976,1.9048,1.9078,1.9078,1.9271,1.9392,1.9392,1.9652,1.9802,1.9802,1.9857,1.9989,2.0201,2.0201,2.0201,2.0201,2.0201,0.0,1.9881,1.9833,1.9802,1.979,1.9513,1.9392,1.9439,1.9478,1.9514,1.945,1.9264,1.9264,1.927,1.92,1.9142,1.9078,1.9078,1.9078,1.9078,1.9078,1.9042,1.8963,1.8752,1.865,0.0,1.8287,1.8215,1.8149,1.7871,1.7799,1.7744,1.7533,1.7485,1.7485,1.7485,1.7485,1.7467,1.7418,1.7237,1.7062,1.6954,1.6543,1.6151,1.5928,1.5891,1.5891,1.5891,1.5891,1.5867,1.5819,1.5626,1.5372,1.5059,1.4787,1.4449,1.4008,1.408,1.491,1.6562,1.6308,1.6902,1.86,1.8768,1.9006,1.9331,2.0024,2.0567,2.086,2.0072,1.9664,0.0,0.0,0.0,0.0,0.0,0.0,0.0,0.0,0.0,0.0,0.0,1.285,0.0,0.0,1.5457,1.6513,1.7135,1.7666,1.8203,1.8511,1.8686,1.8686,1.8801,1.8933,1.906,1.9078,1.9132,1.9259,1.9392,1.9531,1.967,1.9935,2.008,2.008,2.0207,2.034,2.0472,2.0472,2.0472,2.0472,2.0472,2.0406,2.0273,2.014,2.008,2.0068,1.9796,1.9597,1.9512,1.9374,1.9328,1.9328,1.92,1.9078,1.9078,1.9078,1.9078,1.9078,1.9078,1.9078,1.9078,1.9078,1.9078,1.9048,1.8921,1.8879,1.8825,1.8565,1.8487,1.8426,1.8155,1.798,1.7841,1.7708,1.7575,1.7485,1.7485,1.7485,1.7485,1.7485,1.7376,1.7243,1.7117,1.6875,1.6561,1.6145,1.5976,1.5891,1.5891,1.5891,1.5891,1.5891,1.5771,1.559,1.5324,1.5282,1.5257,1.5256,1.5738,1.6197,1.6601,1.7101,1.7827,1.8712,1.9236,1.9818,2.0455,2.0909,2.1183,2.142,2.1174,2.0973,0.0,0.0,0.0,0.0,0.0,0.0,0.0,0.0,1.1956,1.3025,1.3676,1.4328,1.5246,1.603,1.6779,1.7521,1.7859,1.8203,1.8692,1.8758,1.8758,1.8758,1.8945,1.9078,1.9078,1.9078,1.9181,1.9512,1.9519,1.967,1.9947,2.0213,2.0352,2.0352,2.0557,2.0665,2.0665,2.0665,2.0665,2.0665,2.0665,2.0665,2.0659,2.0448,2.0352,2.034,2.0141,1.9905,1.9713,1.9435,1.9313,1.927,1.927,1.9264,1.92,1.9136,1.9078,1.9078,1.9078,1.9078,1.9078,1.9078,1.9078,1.9078,1.9078,1.9078,1.903,1.8819,1.8758,1.8704,1.8438,1.8203,1.8022,1.7968,1.775,1.7557,1.7557,1.7521,1.7485,1.7485,1.7485,1.7412,1.7201,1.7123,1.6905,1.6362,1.6103,1.5946,1.5897,1.5891,1.5891,1.5891,1.5891,1.5836,1.5777,1.5895,1.6201,1.6822,1.7402,1.7426,1.6617,1.7908,1.8726,1.895,1.9751,2.0678,2.1696,2.1696,2.1696,2.1696,2.1769,2.1769,1.0964,1.1081,1.1272,1.1661,1.1573,1.1904,0.0,0.0,1.3894,1.4968,1.5602,1.6085,1.6453,1.6978,1.7539,1.8106,1.8426,1.8698,1.8988,1.9036,1.9036,1.9036,1.906,1.9078,1.9078,1.9078,1.9181,1.9512,1.97,1.9953,2.0219,2.0484,2.0623,2.0623,2.0653,2.0665,2.0665,2.0665,2.0665,2.0665,2.0665,2.0665,2.0665,2.0641,2.0623,2.068,2.0681,2.0603,2.039,2.0358,2.02,1.9979,1.9979,1.9781,1.9514,1.92,1.9078,1.9078,1.9078,1.9078,1.9078,1.9078,1.9078,1.9078,1.9078,1.9078,1.9066,1.9042,1.9036,1.8969,1.871,1.8613,1.8535,1.83,1.8034,1.7829,1.7829,1.7648,1.7485,1.7485,1.7485,1.7473,1.7443,1.7243,1.6905,1.6362,1.6254,1.6151,1.5922,1.5891,1.5891,1.5891,1.5891,1.6094,1.6594,1.6587,1.6856,1.7639,1.7834,1.8395,1.9418,1.96,2.0243,2.1302,2.1436,2.1552,2.1696,2.1696,2.1696,2.1705,2.2053,2.2025,1.26,1.2689,1.2687,1.3175,1.3459,1.3845,1.4739,1.5004,1.5228,1.5831,1.638,1.6833,1.7105,1.7593,1.8082,0.0,1.874,1.8951,1.906,1.9078,1.9018,1.8867,1.8982,1.9078,1.9078,1.9078,1.9253,1.9682,1.982,2.0068,2.0484,2.0611,2.0665,2.0665,2.0665,2.0665,2.0665,2.0665,2.0665,2.0665,2.0665,2.0665,2.0665,2.0665,2.0665,2.0723,2.0593,2.0484,2.0385,2.0063,1.9996,2.0013,1.9844,1.9839,1.9845,1.952,1.9264,1.9078,1.9078,1.9078,1.9078,1.9078,1.9078,1.9078,1.9078,1.9078,1.9078,1.9078,1.9078,1.9048,1.8939,1.8801,1.8656,1.8547,1.8312,1.8076,1.7907,1.7787,1.7666,1.7509,1.7485,1.7485,1.7485,1.7394,1.7189,1.6809,1.6483,1.6241,1.6133,1.5982,1.5891,1.5891,1.6051,1.6364,1.6904,1.7651,1.8304,1.8962,1.9721,2.0075,2.002,2.0605,2.0952,2.0898,2.141,2.1806,2.2034,2.2034,2.2163,2.24,2.2565,2.2556,1.3391,1.3643,1.3839,1.4298,1.4871,1.5342,1.5421,1.5849,1.6278,1.6465,1.6875,1.728,1.7539,1.7974,1.8378,1.8644,1.8909,1.9078,1.9078,1.9012,1.8927,1.8807,1.8897,1.9,1.9066,1.9078,1.9301,1.9845,1.9887,2.0116,2.0641,2.0665,2.0665,2.0665,2.0665,2.0665,2.0665,2.0665,2.0665,2.0665,2.0665,2.0665,2.0665,2.0665,2.0735,2.0861,2.0604,2.0612,2.0712,2.0104,2.0061,2.0234,1.9881,1.9839,1.9909,1.9775,1.952,1.92,1.9142,1.9078,1.9078,1.9078,1.9078,1.9078,1.9078,1.9078,1.9078,1.9078,1.9078,1.9078,1.9078,1.8933,1.8794,1.8794,1.8595,1.8348,1.8143,1.798,1.7936,1.7978,1.771,1.7655,1.8181,1.8064,1.7938,1.7975,1.7578,1.7182,1.6832,1.6746,1.6712,1.6583,1.6743,1.7134,1.774,1.8898,1.9794,2.0411,2.1406,2.1611,2.0883,2.1614,2.1699,2.1033,2.169,2.2172,2.2455,2.2455,2.2611,2.2904,2.3023,2.3068,1.2862,1.3483,1.434,1.463,1.5288,1.594,1.6211,1.6676,1.7056,1.7062,1.7286,1.7551,1.7817,1.81,1.8378,1.8644,1.8909,1.9078,1.9078,1.8855,1.8788,1.9036,1.8849,1.8794,0.0,1.9078,1.9301,1.9845,1.9887,2.0116,2.0641,2.0665,2.0665,2.0665,2.0665,2.0665,2.0665,2.0665,2.0665,2.0665,2.0665,2.0665,2.0665,2.0665,2.0873,2.1207,2.1201,2.1457,2.1793,2.1101,2.0893,2.0935,2.0342,1.9909,1.9641,1.9979,1.9845,1.9514,1.92,1.9078,1.9078,1.9078,1.9078,1.9078,1.9078,1.9078,1.9078,1.9078,1.9078,1.9078,1.9078,1.9066,1.906,1.906,1.8861,1.8674,1.8662,1.8245,1.8171,1.9054,1.8304,1.8064,1.9924,1.9461,1.9165,2.0083,1.9969,1.9368,1.8193,1.8489,1.8677,1.8345,1.8318,1.8684,1.9561,2.0264,2.0966,2.1814,2.2476,2.2838,2.2838,2.2829,2.2867,2.282,2.2867,2.2876,2.2885,2.2885,2.2895,2.2922,2.3297,2.348,1.4065,1.4698,1.5155,1.5427,1.6097,1.6712,1.6809,1.7098,1.7298,1.7129,1.7026,1.7044,1.7304,1.743,1.7702,1.8324,1.8644,1.8879,1.9048,1.9,1.8915,1.8831,1.8891,0.0,0.0,0.0,0.0,1.9579,1.9778,2.0038,2.0394,2.0575,2.0665,2.0665,2.0665,2.0665,2.0665,2.0665,2.0665,2.0665,2.0665,2.0665,2.0741,2.0943,2.1075,2.1214,2.149,2.1709,2.1806,2.1124,2.0974,2.1155,2.0364,2.0137,2.0221,1.9903,1.9711,1.9577,1.945,1.945,1.9386,1.92,1.9078,1.9078,1.9078,1.9078,1.9078,1.9078,1.9078,1.9078,1.9078,1.9078,1.9078,1.9078,1.9006,1.8897,1.8722,1.8541,1.8606,1.9197,1.8983,1.9037,2.0132,2.004,1.9924,2.027,2.0054,1.9675,1.9092,1.8944,1.8868,1.8723,1.8685,1.8774,1.9094,2.0468,2.146,2.177,2.2722,2.3297,2.3297,2.305,2.2904,2.2904,2.2904,2.3032,2.3297,2.3297,2.3435,2.3758,2.3886,2.395,1.4894,1.546,1.5747,1.6205,1.6706,1.7092,1.7092,1.7219,1.7237,1.6875,1.667,1.6573,1.6652,1.6742,1.7074,1.7877,1.8221,1.8553,1.9012,1.8994,1.8909,1.8837,1.8891,1.8909,0.0,0.0,0.0,1.9512,1.973,2.0002,2.0267,2.0527,2.0665,2.0665,2.0665,2.0665,2.0665,2.0665,2.0665,2.0665,2.0665,2.0735,2.0873,2.1075,2.1283,2.1421,2.1697,2.1904,2.1947,2.1263,2.1181,2.1364,2.0503,2.0219,2.0221,1.9903,1.9711,1.9577,1.9577,1.9577,1.9577,1.9456,1.9398,1.9264,1.9264,1.92,1.9078,1.9078,1.9078,1.9078,1.9078,1.9078,1.9078,1.9078,1.9078,1.903,1.8861,1.8752,1.8889,1.9447,1.9142,1.9239,2.064,2.1089,2.1246,2.1246,2.1112,2.0798,2.0152,2.0139,2.0082,1.9801,1.9753,1.974,1.982,2.1132,2.2047,2.2249,2.3188,2.3758,2.3758,2.3519,2.3382,2.3382,2.3382,2.351,2.3758,2.3758,2.3895,2.4202,2.4202,2.4202,1.5372,1.5728,1.6133,1.6899,1.7092,1.7092,1.7092,1.7068,1.6899,1.635,1.6217,1.6115,0.0,0.0,1.6519,1.7298,1.769,1.8173,1.8963,1.8861,1.8801,0.0,0.0,0.0,0.0,0.0,0.0,1.947,0.0,2.0002,2.0267,2.0527,2.0665,2.0665,2.0665,2.0665,2.0665,2.0665,2.0665,2.0665,2.0735,2.0873,2.1214,2.1214,2.149,2.1835,2.1835,2.2042,2.2284,2.1684,2.1481,2.1456,2.0778,2.0167,1.9724,1.9979,1.9909,1.9641,1.9641,1.9641,1.9641,1.9979,1.9845,1.9577,1.9641,1.9386,1.9142,1.9142,1.9142,1.9136,1.9078,1.9078,1.9078,1.9078,1.9078,1.9078,1.9136,1.8879,1.9011,1.9992,1.9094,1.9001,2.1606,2.2616,2.3014,2.3014,2.307,2.2614,2.1331,2.1945,2.2235,2.1576,2.1473,2.1515,2.1732,2.2241,2.2778,2.3279,2.3895,2.4202,2.4202,2.4202,2.4202,2.4202,2.4202,2.4202,2.4202,2.4202,2.4202,2.4202,2.4202,2.4202,1.5596,1.6278,1.6833,1.7038,1.7092,1.7092,1.7092,1.6779,1.6338,1.5807,1.539,1.4974,0.0,0.0,0.0,1.6489,1.7485,0.0,1.8988,1.9018,0.0,1.9403,0.0,1.9374,1.9652,1.9682,0.0,0.0,1.9845,2.0002,2.0267,2.0527,2.0665,2.0665,2.0665,2.0665,2.0665,2.0665,2.0665,2.0665,2.0943,2.1144,2.1214,2.176,2.2104,2.2173,2.2523,2.2654,2.2722,2.2232,2.2098,2.2078,2.1132,2.0719,2.0573,2.0247,2.0043,2.0036,2.0291,2.0024,1.9641,1.9711,1.9641,1.9641,1.9909,1.9909,1.9781,1.952,1.945,1.9386,1.9136,1.9078,1.9078,1.9078,1.9078,1.92,1.945,1.9209,1.948,2.1252,2.1864,2.2299,2.3018,2.3073,2.3127,2.3576,2.3689,2.3376,2.2606,2.2537,2.2583,2.2841,2.2397,2.2237,2.2689,2.2934,2.3129,2.3279,2.3895,2.4202,2.4202,2.4202,2.4202,2.4202,2.4202,2.4202,2.4202,2.4202,2.4202,2.4202,2.4202,2.4202,1.6235,1.6833,1.7267,1.7267,1.7177,1.6996,1.6646,1.6241,1.5686,1.4811,1.4395,0.0,1.3477,1.4153,1.5052,0.0,0.0,0.0,1.8794,1.9006,1.9175,0.0,1.953,0.0,1.9863,1.9887,1.9935,0.0,2.0062,2.0122,2.0273,2.0527,2.0665,2.0665,2.0665,2.0665,2.0665,2.0665,2.0735,2.0943,2.1075,2.1352,2.1691,2.2104,2.2379,2.2585,2.2791,2.2928,2.2866,2.2654,2.2481,2.2324,2.1633,2.1215,2.0929,2.0458,2.0234,2.0106,2.0297,2.01,1.9839,1.9966,1.9833,1.9641,1.9839,1.9781,1.9654,1.9577,1.9577,1.9577,1.9526,1.9526,1.9526,1.9526,1.9526,1.9775,2.0513,2.0576,2.0863,2.2468,2.3515,2.4055,2.3743,2.3934,2.4094,2.4264,2.4295,2.4184,2.3848,2.3612,2.3588,2.3775,2.3443,2.3334,2.3722,2.3822,2.3883,2.3966,2.4277,2.4395,2.4211,2.4202,2.4202,2.4202,2.4202,2.4202,2.4202,2.4202,2.4202,2.4202,2.4202,2.4303,1.6942,1.7286,1.7485,1.7485,1.7231,1.6797,1.606,1.5578,1.4938,1.3719,0.0,1.32,1.2693,1.3314,1.4244,1.5276,0.0,1.7503,1.8535,1.8939,1.9223,1.9495,1.9555,1.9682,1.9959,1.9989,2.0086,2.0315,2.0327,2.0327,2.0327,2.0545,2.0665,2.0665,2.0735,2.0735,2.0735,2.0804,2.1012,2.1283,2.1352,2.1691,2.231,2.2379,2.2585,2.2928,2.2928,2.2928,2.2928,2.2928,2.2712,2.2445,2.2118,2.1634,2.111,2.079,2.0482,2.0234,2.0234,2.017,2.0234,2.0482,2.0221,1.9705,1.9705,1.952,1.9328,1.9514,1.9577,1.9641,1.9973,2.0164,2.0291,2.0354,2.0475,2.0969,2.2139,2.2507,2.2857,2.3718,2.4607,2.5003,2.4424,2.4956,2.5314,2.5018,2.4923,2.4953,2.5008,2.4898,2.4722,2.4522,2.4444,2.4496,2.4738,2.4763,2.4749,2.4876,2.4858,2.4744,2.4376,2.4367,2.4367,2.4367,2.4367,2.4367,2.4367,2.4367,2.4367,2.4367,2.4367,2.456,1.6942,1.7286,1.7485,1.7485,1.696,1.6344,1.5976,1.5004,0.0,0.0,1.2837,1.2427,1.2113,1.3073,1.4183,1.5034,1.6435,1.7714,1.8565,1.9096,1.9501,0.0,2.0008,2.0243,2.0509,2.0533,0.0,0.0,2.0599,2.0599,2.0599,2.0641,2.0665,2.0665,2.0937,2.1144,2.1144,2.1421,2.1628,2.1697,2.1966,2.2173,2.231,2.2654,2.2859,2.2928,2.2928,0.0,2.2928,2.2928,2.2901,2.2732,2.2191,2.1957,2.1778,2.1182,2.0982,2.0919,2.0919,2.0736,2.0545,2.0609,2.0545,2.0418,2.0418,2.0418,2.0227,1.9769,1.9577,1.9641,1.9641,2.0519,2.1391,2.1706,2.2563,2.3474,2.397,2.4733,2.5285,2.5197,2.5764,2.6202,2.6067,2.5714,2.557,2.5998,2.5772,2.5743,2.619,2.5404,2.4982,2.5426,2.5135,2.5192,2.5698,2.545,2.5283,2.5271,2.5323,2.5234,2.5212,2.5212,2.5212,2.5212,2.5212,2.5212,2.5212,2.5212,2.5212,2.5212,2.5212,2.5249,1.7153,1.7388,1.7485,1.7485,1.6887,1.6115,1.5433,0.0,0.0,0.0,1.2048,1.1784,1.1546,1.2475,0.0,1.4171,1.5499,1.6827,1.7907,1.8396,0.0,1.9784,1.9996,2.0231,0.0,2.0665,2.0735,2.0943,2.0943,2.0943,2.0943,2.1151,2.1283,2.1283,2.1421,2.149,2.149,2.1697,2.1904,2.2035,2.2242,2.2379,2.2654,2.2791,2.2928,2.2928,2.2928,2.2928,2.2928,2.2928,2.2928,2.2819,2.2385,2.2118,2.1937,2.1496,2.1243,2.1109,2.1109,2.1475,2.1908,2.1908,2.1159,2.0354,2.0354,2.0354,2.0475,2.1026,2.0899,2.0906,2.2069,2.2632,2.3014,2.3504,2.4602,2.5582,2.5766,2.6702,2.7513,2.7375,2.7604,2.7733,2.7538,2.7191,2.6986,2.7047,2.6742,2.6608,2.6894,2.6207,2.5852,2.6136,2.5973,2.6018,2.6289,2.6114,2.5966,2.5745,2.5727,2.5635,2.5433,2.5424,2.5424,2.5424,2.5424,2.5424,2.5424,2.5424,2.5424,2.5424,2.5424,2.5534,1.7255,1.7443,1.7473,1.7412,1.6791,1.5922,1.4865,1.396,0.0,0.0,1.1441,1.1357,1.1194,0.0,1.2771,0.0,1.4618,1.5897,0.0,0.0,0.0,0.0,0.0,0.0,2.0623,2.0735,0.0,2.1214,2.1352,2.1421,2.1352,2.1628,2.1766,2.1766,2.1904,2.1904,2.1904,2.1973,2.2173,2.2448,2.2448,2.2585,2.2928,2.2928,2.2928,2.2928,2.2928,2.2928,2.2928,2.2928,2.2928,2.2901,2.2532,2.2438,2.2404,2.2104,2.1988,2.1915,2.1915,2.2654,2.3512,2.3512,2.2459,2.1159,2.1032,2.1032,2.1278,2.257,2.2514,2.2522,2.4432,2.474,2.481,2.5668,2.665,2.7444,2.7444,2.8241,2.8984,2.8984,2.8984,2.8883,2.8572,2.8452,2.8287,2.8005,2.762,2.7306,2.7306,2.6958,2.6719,2.6719,2.6637,2.6591,2.6591,2.6591,2.6444,2.6168,2.6149,2.6012,2.5647,2.5681,2.5681,2.5681,2.5681,2.5681,2.5681,2.5681,2.5681,2.5681,2.5681,2.5846,1.6984,1.7298,1.7424,1.7189,1.6525,1.5644,1.4582,0.0,0.0,1.1663,1.1329,1.1182,1.1411,1.1724,1.2409,0.0,0.0,1.5692,0.0,0.0,0.0,0.0,0.0,0.0,2.0641,2.1012,2.1144,2.1214,2.1829,2.2035,2.1766,2.1766,2.1766,2.1766,2.2104,2.2242,2.2242,2.2585,2.2791,2.2859,2.2859,2.2859,2.2928,2.2928,2.2928,2.2928,2.2928,2.2928,0.0,2.2928,2.2928,2.2901,2.2532,2.2963,2.3768,2.342,2.385,2.4625,2.4625,2.4748,2.481,2.481,2.4687,2.4494,2.4163,2.4093,2.4031,2.39,2.3846,2.3908,2.4401,2.5399,2.6702,2.8241,2.8737,2.8797,2.8797,2.8916,2.8984,2.8984,2.8984,2.8975,2.8938,2.8627,2.8379,2.8342,2.7976,2.7767,2.7767,2.737,2.7123,2.7123,2.6802,2.6591,2.6591,2.6591,2.6573,2.6536,2.6527,2.6518,2.6481,2.6481,2.6481,2.6481,2.6481,2.6481,2.6481,2.6481,2.6481,2.6481,2.6481,2.649,1.6762,1.7165,1.7418,1.7159,1.6483,1.5565,1.434,0.0,1.2433,1.1473,1.119,1.1148,1.1256,1.1465,1.1976,1.3019,1.3723,1.4655,1.6066,0.0,0.0,0.0,0.0,0.0,0.0,0.0,2.1346,2.1829,2.2379,2.2585,2.2454,2.2454,2.2454,2.2454,2.2585,2.2654,2.2654,2.2797,2.2928,2.2928,2.2928,2.2928,2.2928,2.2928,2.2928,2.2928,2.2928,2.2928,0.0,2.2928,2.2928,2.2983,2.3669,2.3987,2.4114,2.4789,2.5031,2.4994,2.4994,2.5546,2.6216,2.6216,2.6771,2.7073,2.5346,2.4794,2.4917,2.5644,2.5529,2.5538,2.6875,2.7615,2.8173,2.8856,2.8984,2.8984,2.8984,2.8984,2.8984,2.8984,2.8984,2.8984,2.8984,2.8856,2.8746,2.8746,2.8407,2.8141,2.8141,2.7783,2.75,2.7205,2.682,2.6591,2.6591,2.6591,2.6591,2.6591,2.6591,2.6591,2.6591,2.6591,2.6591,2.6591,2.6591,2.6591,2.6591,2.6591,2.6591,2.6591,2.6591,2.6591,1.6545,1.6954,1.7183,1.6916,1.6363,1.5512,0.0,1.3169,1.2403,1.1335,1.1111,1.1111,1.1111,1.1303,1.1763,1.2559,1.3213,1.4084,1.5384,1.6119,0.0,0.0,0.0,1.9423,0.0,2.1208,2.176,2.2448,2.2722,2.2928,2.2928,2.2928,2.2928,2.2928,2.2928,2.2928,2.2928,2.2928,2.2928,2.2928,2.2928,2.2928,2.2928,2.2928,2.2928,2.2928,2.2928,2.2928,0.0,2.2928,2.3133,2.3597,2.4609,2.5077,2.5334,2.6352,2.6466,2.6156,2.6156,2.6771,2.7564,2.7564,2.8241,2.8677,2.6771,2.6156,2.6407,2.7323,2.7263,2.7211,2.8618,2.8984,2.8984,2.8984,2.8984,2.8984,2.8984,2.8984,2.8984,2.8984,2.8984,2.8984,2.8984,2.8984,2.8984,2.8984,2.8746,2.8572,2.8572,2.8205,2.7847,2.7572,2.7077,2.6719,2.66,2.6591,2.6591,2.6591,2.6591,2.6591,2.6591,2.6591,2.6591,2.6591,2.6591,2.6591,2.6591,2.6591,2.6591,2.6591,2.6591,2.6591,1.6333,1.6684,1.6623,1.6404,1.6079,1.5398,1.3541,1.291,1.2403,1.1335,1.1111,1.1111,1.1111,1.1303,1.1748,1.2568,1.3393,1.4359,1.562,1.6546,0.0,0.0,0.0,1.9162,2.0385,2.1613,2.2448,2.2859,2.2928,0.0,2.2928,2.2928,2.2928,2.2928,2.2928,2.2928,2.2928,2.2928,2.2928,2.2928,2.2928,2.2928,2.2928,2.2928,2.2928,2.2928,2.2928,2.2928,0.0,2.2928,2.3734,2.5008,2.5008,2.6249,2.8072,2.8072,2.8474,2.8984,2.8984,2.8984,2.8984,2.8984,2.8984,2.8984,2.8984,2.8984,2.8984,2.8984,2.8984,2.8984,2.8984,2.8984,2.8984,2.8984,2.8984,2.8984,2.8984,2.8984,2.8984,2.8984,2.8984,2.8984,2.8984,2.8984,2.8984,2.8984,2.8975,2.8975,2.8975,2.8627,2.8388,2.8388,2.7655,2.7013,2.6619,2.6591,2.6591,2.6591,2.6591,2.6591,2.6591,2.6591,2.6591,2.6591,2.6591,2.6591,2.6591,2.6591,2.6591,2.6591,2.6591,2.6591,1.4893,1.55,1.5934,1.5232,1.5006,1.4606,1.3286,1.2925,1.2641,1.1715,1.1409,1.1298,1.1298,1.1371,1.1895,1.3361,1.4066,0.0,0.0,0.0,0.0,1.7947,1.9462,2.0739,0.0,0.0,2.2448,2.2859,2.2928,2.2928,2.2928,2.2928,2.2928,2.2928,2.2928,2.2928,2.2928,2.2928,2.2928,2.2928,2.2928,2.2928,2.2928,2.2928,2.2928,2.2928,2.3938,2.4338,2.4406,2.539,2.6054,2.6522,2.7535,2.8019,2.8197,2.9172,2.9306,2.8984,2.8984,2.8984,2.8984,2.8984,2.8984,2.8984,2.8984,2.8984,2.8984,2.8984,2.8984,2.8984,2.8984,2.8984,2.8984,2.8984,2.8984,2.8984,2.8984,2.8984,2.8984,2.8984,2.8984,2.8984,2.8984,2.8984,2.8984,2.8984,2.8984,2.8984,2.8984,2.8874,2.8691,2.8425,2.8159,2.7737,2.705,2.6747,2.6591,2.6591,2.6591,2.6591,2.6591,2.6591,2.6591,2.6591,2.6591,2.6591,2.6591,2.6591,2.6591,2.6591,2.6591,2.6591,0.0,1.4679,1.5029,1.446,1.4333,1.4066,1.3007,1.2779,1.2609,1.1859,1.1595,1.1521,1.1521,1.1608,1.2098,1.3374,1.4,0.0,0.0,0.0,0.0,1.8315,0.0,0.0,0.0,2.2323,2.2654,2.2866,2.2928,2.2928,2.2928,2.2928,2.2928,2.2928,2.2928,2.2928,2.2928,2.2928,2.2928,2.2928,2.2928,2.2928,2.2928,2.2928,2.3201,2.3734,2.4602,2.527,0.0,2.6714,2.7453,2.7974,2.8785,2.9011,2.8958,2.9703,2.9544,2.8984,2.8984,2.8984,2.8984,2.8984,2.8984,2.8984,2.8984,2.8984,2.8984,2.8984,2.8984,2.8984,2.8984,2.8984,2.8984,2.8984,2.8984,2.8984,2.8984,2.8984,2.8984,2.8984,2.8984,2.8984,2.8984,2.8984,2.8984,2.8984,2.8984,2.8984,2.8984,2.8984,2.8883,2.8645,2.8489,2.8187,2.7682,2.726,2.7031,2.7031,2.7031,2.6967,2.682,2.6811,2.6738,2.6591,2.6591,2.6591,2.6591,2.6591,2.6591,2.6591,2.6591,2.6591,0.0,1.417,0.0,1.3968,1.3974,1.3736,1.2726,1.2514,0.0,1.1858,1.1744,1.1719,1.1801,1.198,1.2324,1.2967,1.3561,0.0,0.0,1.6523,0.0,0.0,2.048,0.0,2.1601,2.241,2.2928,2.2928,2.2928,2.2928,2.2928,2.2928,2.2928,2.2928,2.2928,2.2928,2.2928,2.2928,2.2928,2.2928,2.2996,2.3065,2.3065,2.3133,2.3931,0.0,2.527,2.6061,2.7246,2.7379,2.8188,2.9435,2.9,2.9392,3.0149,2.9727,2.9324,2.8984,2.8984,2.8984,2.8984,2.8984,2.8984,2.8984,2.8984,2.8984,2.8984,2.8984,2.8984,2.8984,2.8984,2.8984,2.8984,2.8984,2.8984,2.8984,2.8984,2.8984,2.8984,2.8984,2.8984,2.8984,2.8984,2.8984,2.8984,2.8984,2.8984,2.8984,2.8984,2.8984,2.8984,2.8984,2.8654,2.8434,2.8434,2.8022,2.7822,2.7822,2.7822,2.7656,2.7233,2.7215,2.705,2.6683,2.6674,2.6674,2.6674,2.6674,2.6674,2.6674,2.6674,2.6674,1.1997,0.0,1.3028,1.2802,1.2915,1.2968,0.0,1.2533,1.2631,1.223,1.204,1.2071,1.2518,1.2486,1.2947,1.4629,0.0,0.0,1.7003,0.0,0.0,2.0773,2.1437,2.1924,2.2483,2.2786,2.2928,2.2928,2.2928,2.2928,2.2928,2.2928,2.2928,2.2928,2.2928,2.2928,2.2928,2.2928,2.2928,2.2928,2.4006,2.4542,2.4535,2.5592,2.6321,2.6655,2.78,2.8468,2.8863,2.9982,3.0576,3.0881,3.0483,3.0292,3.0149,2.9727,2.9324,2.8984,2.8984,2.8984,2.8984,2.8984,2.8984,2.8984,2.8984,2.8984,2.8984,2.8984,2.8984,2.8984,2.8984,2.8984,2.8984,2.8984,2.8984,2.8984,2.8984,2.8984,2.8984,2.8984,2.8984,2.8984,2.8984,2.8984,2.8984,2.8984,2.8984,2.8984,2.8984,2.8984,2.8984,2.8984,2.8902,2.8847,2.8847,2.8187,2.7822,2.7822,2.7822,2.7776,2.7684,2.7684,2.7581,2.749,2.7546,2.7546,2.7546,2.7546,2.7546,2.7546,2.7546,2.7546,1.1149,1.2007,1.275,1.2583,1.277,1.2958,1.2759,0.0,0.0,0.0,0.0,0.0,1.2942,1.2805,0.0,0.0,1.5376,0.0,0.0,0.0,2.027,2.1156,2.1536,2.2251,0.0,2.3535,2.3708,2.4499,2.3863,2.3391,2.3391,2.2795,2.2519,2.2652,2.333,2.3398,2.2928,2.3536,2.387,2.387,2.5263,2.5927,2.5994,2.6722,2.7453,2.8122,2.8928,2.9665,3.0325,3.1111,3.1267,3.1066,3.0671,3.0268,2.9865,2.9452,2.9168,2.8984,2.8984,2.8984,2.8984,2.8984,2.8984,2.8984,2.8984,2.8984,2.8984,2.8984,2.8984,2.8984,2.8984,2.8984,2.8984,2.8984,2.8984,2.8984,2.8984,2.8984,2.8984,2.8984,2.8984,2.8984,2.8984,2.8984,2.8984,2.8984,2.8984,2.8984,2.8984,2.8984,2.8984,2.8984,2.8984,2.8984,2.8984,2.8581,2.8324,2.8324,2.8324,2.8242,2.8058,2.8058,2.7967,2.7822,2.7822,2.7822,2.7822,2.7822,2.7822,2.7822,2.7822,2.7822,1.1055,1.1986,1.2837,1.2737,1.2979,1.3267,1.322,0.0,0.0,0.0,0.0,0.0,0.0,1.3239,0.0,0.0,0.0,0.0,1.8442,1.9871,2.077,2.109,2.1543,0.0,2.4342,2.4348,2.4875,2.6306,2.5115,2.4324,2.4324,2.3217,2.2679,2.2933,2.4129,2.4325,2.3392,2.4687,2.5338,2.5338,2.6788,2.7445,2.7445,2.7643,2.8452,2.96,2.954,0.0,3.1277,3.1222,3.1002,3.0662,3.0259,2.9883,2.9525,2.9131,2.8984,2.8984,2.8984,2.8984,2.8984,2.8984,2.8984,2.8984,2.8984,2.8984,2.8984,2.8984,2.8984,2.8984,2.8984,2.8984,2.8984,2.8984,2.8984,2.8984,2.8984,2.8984,2.8984,2.8984,2.8984,2.8984,2.8984,2.8984,2.8984,2.8984,2.8984,2.8984,2.8984,2.8984,2.8984,2.8984,2.8984,2.8984,2.8984,2.8984,2.8984,2.8984,2.8984,2.8838,2.8498,2.8489,2.8315,2.8015,2.8005,2.8005,2.8005,2.8005,2.8005,2.8005,2.8005,2.8005,1.1558,1.2425,1.3013,1.2498,1.2979,1.3473,1.3267,0.0,0.0,0.0,0.0,0.0,0.0,1.4479,1.5032,0.0,0.0,1.8725,0.0,0.0,2.0895,2.1419,0.0,2.3449,2.4036,2.4978,2.5736,2.5975,2.5743,2.5592,2.5592,2.5391,2.535,2.5339,2.5597,2.5621,2.5416,2.63,2.6781,2.6788,2.8262,2.8937,2.9003,3.0186,3.0843,3.1028,0.0,3.0683,3.0855,3.0516,3.0341,3.025,2.9828,2.9626,2.9525,2.9131,2.8984,2.8984,2.8984,2.8984,2.8984,2.8984,2.8984,2.8984,2.8984,2.8984,2.8984,2.8984,2.8984,2.8984,2.8984,2.8984,2.8984,2.8984,2.8984,2.8984,2.8984,2.8984,2.8984,2.8984,2.8984,2.8984,2.8984,2.8984,2.8984,2.8984,2.8984,2.8984,2.8984,2.8984,2.8984,2.8984,2.8984,2.8984,2.8984,2.8984,2.8984,2.8984,2.8984,2.8957,2.8893,2.8893,2.8865,2.8801,2.8801,2.8801,2.8801,2.8801,2.8801,2.8801,2.8801,2.8801,1.1082,1.2074,1.2931,1.265,1.346,1.4322,1.4188,1.3915,0.0,0.0,0.0,0.0,0.0,0.0,1.578,1.7417,0.0,2.0057,2.1334,2.1149,2.1561,0.0,0.0,2.3981,2.5778,2.627,2.686,2.7818,2.7018,2.6467,2.6467,2.5782,2.5494,2.5692,2.6441,2.6917,2.7115,2.8222,2.8383,2.7667,2.9113,2.9777,2.984,3.0483,3.0745,3.0726,0.0,3.047,3.0461,3.0277,3.0066,2.9837,2.9644,2.9443,2.9232,2.9048,2.8984,2.8984,2.8984,2.8984,2.8984,2.8984,2.8984,2.8984,2.8984,2.8984,2.8984,2.8984,2.8984,2.8984,2.8984,2.8984,2.8984,2.8984,2.8984,2.8984,2.8984,2.8984,2.8984,2.8984,2.8984,2.8984,2.8984,2.8984,2.8984,2.8984,2.8984,2.8984,2.8984,2.8984,2.8984,2.8984,2.8984,2.8984,2.8984,2.8984,2.8984,2.8984,2.8984,2.8984,2.8984,2.8984,2.8984,2.8984,2.8984,2.8984,2.8984,2.8984,2.8984,2.8984,2.8984,2.8984,1.0948,1.1819,1.273,1.2945,0.0,1.4874,1.5149,1.4716,0.0,0.0,0.0,0.0,0.0,1.5822,0.0,1.8549,1.9681,2.0856,2.2476,2.1756,2.2097,2.4687,2.4124,2.4595,2.7223,2.7488,2.7997,2.9346,2.8222,2.7444,2.7444,2.6468,2.6043,2.6323,2.738,2.8079,2.8313,2.94,2.9491,2.8583,2.968,3.0204,3.0204,3.0204,3.0204,3.0195,3.0094,3.0057,3.0048,2.9956,2.9727,2.9434,2.9434,2.925,2.8984,2.8984,2.8984,2.8984,2.8984,2.8984,2.8984,2.8984,2.8984,2.8984,2.8984,2.8984,2.8984,2.8984,2.8984,2.8984,2.8984,2.8984,2.8984,2.8984,2.8984,2.8984,2.8984,2.8984,2.8984,2.8984,2.8984,2.8984,2.8984,2.8984,2.8984,2.8984,2.8984,2.8984,2.8984,2.8984,2.8984,2.8984,2.8984,2.8984,2.8984,2.8984,2.8984,2.8984,2.8984,2.8984,2.8984,2.8984,2.8984,2.8984,2.8984,2.8984,2.8984,2.8984,2.8984,2.8984,2.8984,2.8984,1.1957,1.2258,1.2532,1.3327,1.3868,1.4436,1.5518,1.5317,0.0,1.6293,0.0,0.0,0.0,1.7522,1.8617,1.9579,2.0247,2.1231,2.2809,0.0,2.2097,2.4687,2.4933,2.5431,2.6874,2.814,2.8934,2.9021,2.8934,2.8856,2.8856,2.8737,2.8746,2.8773,2.8842,2.8911,2.8947,2.9007,2.9391,3.0071,3.0133,3.0204,3.0204,3.0204,3.0204,3.0176,2.9791,2.9617,2.9589,2.9223,2.9048,2.9021,2.9021,2.9012,2.8984,2.8984,2.8984,2.8984,2.8984,2.8984,2.8984,2.8984,2.8984,2.8984,2.8984,2.8984,2.8984,2.8984,2.8984,2.8984,2.8984,2.8984,2.8984,2.8984,2.8984,2.8984,2.8984,2.8984,2.8984,2.8984,2.8984,2.8984,2.8984,2.8984,2.8984,2.8984,2.8984,2.8984,2.8984,2.8984,2.8984,2.8984,2.8984,2.8984,2.8984,2.8984,2.8984,2.8984,2.8984,2.8984,2.8984,2.8984,2.8984,2.8984,2.8984,2.8984,2.8984,2.8984,2.8984,2.8984,2.8984,2.8984,1.1396,1.2164,1.2946,1.3287,1.4008,0.0,0.0,1.6086,1.6603,1.7375,1.7455,0.0,0.0,0.0,1.8778,1.9659,2.1001,2.2472,2.4078,2.3822,2.4494,2.7203,2.6771,2.6771,2.8122,2.8677,2.8984,2.8984,2.8984,2.8984,2.8984,2.8984,2.8984,2.8984,2.8984,2.8984,2.8984,2.8984,2.914,2.9443,2.9443,2.9443,2.9443,2.9443,2.9443,2.9434,2.9278,2.9204,2.9195,2.9039,2.8984,2.8984,2.8984,2.8984,2.8984,2.8984,2.8984,2.8984,2.8984,2.8984,2.8984,2.8984,2.8984,2.8984,2.8984,2.8984,2.8984,2.8984,2.8984,2.8984,2.8984,2.8984,2.8984,2.8984,2.8984,2.8984,2.8984,2.8984,2.8984,2.8984,2.8984,2.8984,2.8984,2.8984,2.8984,2.8984,2.8984,2.8984,2.8984,2.8984,2.8984,2.8984,2.8984,2.8984,2.8984,2.8984,2.8984,2.8984,2.8984,2.8984,2.8984,2.8984,2.8984,2.8984,2.8984,2.8984,2.8984,2.8984,2.8984,2.8984,2.8984,2.8984,1.1296,1.2144,1.3086,1.3186,0.0,0.0,1.5932,1.6573,1.7315,1.8384,1.8395,1.8268,1.8268,0.0,0.0,0.0,2.1729,2.3427,2.5383,2.524,2.5973,2.8677,2.7813,2.7504,2.8856,2.8984,2.8984,2.8984,2.8984,2.8984,2.8984,2.8984,2.8984,2.8984,2.8984,2.8984,2.8984,2.8984,2.8984,2.8984,2.8984,2.8984,2.8984,2.8984,2.8984,2.8984,2.8984,2.8984,2.8984,2.8984,2.8984,2.8984,2.8984,2.8984,2.8984,2.8984,2.8984,2.8984,2.8984,2.8984,2.8984,2.8984,2.8984,2.8984,2.8984,2.8984,2.8984,2.8984,2.8984,2.8984,2.8984,2.8984,2.8984,2.8984,2.8984,2.8984,2.8984,2.8984,2.8984,2.8984,2.8984,2.8984,2.8984,2.8984,2.8984,2.8984,2.8984,2.8984,2.8984,2.8984,2.8984,2.8984,2.8984,2.8984,2.8984,2.8984,2.8984,2.8984,2.8984,2.8984,2.8984,2.8984,2.8984,2.8984,2.8984,2.8984,2.8984,2.8984,2.8984,2.8984,2.8984,2.8984,1.1986,1.2342,1.2871,0.0,0.0,0.0,1.6453,1.672,1.7308,1.9379,1.9339,1.8931,1.8931,1.9172,0.0,2.154,2.2568,2.3993,2.665,2.5851,2.6034,2.8677,2.7813,2.7573,2.8856,2.8984,2.8984,2.8984,2.8984,2.8984,2.8984,2.8984,2.8984,2.8984,2.8984,2.8984,2.8984,2.8984,2.8984,2.8984,2.8984,2.8984,2.8984,2.8984,2.8984,2.8984,2.8984,2.8984,2.8984,2.8984,2.8984,2.8984,2.8984,2.8984,2.8984,2.8984,2.8984,2.8984,2.8984,2.8984,2.8984,2.8984,2.8984,2.8984,2.8984,2.8984,2.8984,2.8984,2.8984,2.8984,2.8984,2.8984,2.8984,2.8984,2.8984,2.8984,2.8984,2.8984,2.8984,2.8984,2.8984,2.8984,2.8984,2.8984,2.8984,2.8984,2.8984,2.8984,2.8984,2.8984,2.8984,2.8984,2.8984,2.8984,2.8984,2.8984,2.8984,2.8984,2.8984,2.8984,2.8984,2.8984,2.8984,2.8984,2.8984,2.8984,2.8984,2.8984,2.8984,2.8984,2.8984,2.8984,1.1986,1.2797,0.0,1.4062,0.0,0.0,0.0,1.7809,0.0,0.0,1.9967,1.978,1.9579,1.9613,0.0,2.1809,2.3247,2.483,2.6737,2.7444,2.8122,2.8916,2.8677,2.8549,2.8984,2.8984,2.8984,2.8984,2.8984,2.8984,2.8984,2.8984,2.8984,2.8984,2.8984,2.8984,2.8984,2.8984,2.8984,2.8984,2.8984,2.8984,2.8984,2.8984,2.8984,2.8984,2.8984,2.8984,2.8984,2.8984,2.8984,2.8984,2.8984,2.8984,2.8984,2.8984,2.8984,2.8984,2.8984,2.8984,2.8984,2.8984,2.8984,2.8984,2.8984,2.8984,2.8984,2.8984,2.8984,2.8984,2.8984,2.8984,2.8984,2.8984,2.8984,2.8984,2.8984,2.8984,2.8984,2.8984,2.8984,2.8984,2.8984,2.8984,2.8984,2.8984,2.8984,2.8984,2.8984,2.8984,2.8984,2.8984,2.8984,2.8984,2.8984,2.8984,2.8984,2.8984,2.8984,2.8984,2.8984,2.8984,2.8984,2.8984,2.8984,2.8984,2.8984,2.8984,2.8984,2.8984,2.8984,2.8984,1.2525,1.3487,0.0,1.4937,1.6106,1.742,1.8203,0.0,0.0,0.0,2.0556,2.0727,2.0254,2.0924,0.0,2.2976,2.4515,2.6096,2.7598,2.8489,2.8984,2.8984,2.8984,2.8984,2.8984,2.8984,2.8984,2.8984,2.8984,2.8984,2.8984,2.8984,2.8984,2.8984,2.8984,2.8984,2.8984,2.8984,2.8984,2.8984,2.8984,2.8984,2.8984,2.8984,2.8984,2.8984,2.8984,2.8984,2.8984,2.8984,2.8984,2.8984,2.8984,2.8984,2.8984,2.8984,2.8984,2.8984,2.8984,2.8984,2.8984,2.8984,2.8984,2.8984,2.8984,2.8984,2.8984,2.8984,2.8984,2.8984,2.8984,2.8984,2.8984,2.8984,2.8984,2.8984,2.8984,2.8984,2.8984,2.8984,2.8984,2.8984,2.8984,2.8984,2.8984,2.8984,2.8984,2.8984,2.8984,2.8984,2.8984,2.8984,2.8984,2.8984,2.8984,2.8984,2.8984,2.8984,2.8984,2.8984,2.8984,2.8984,2.8984,2.8984,2.8984,2.8984,2.8984,2.8984,2.8984,2.8984,2.8984,2.8984,1.3293,0.0,0.0,1.5752,1.6613,0.0,1.8711,1.943,2.0018,2.0248,0.0,2.1558,2.1115,2.2743,2.4257,2.4719,2.6069,2.7444,2.8797,2.8984,2.8984,2.8984,2.8984,2.8984,2.8984,2.8984,2.8984,2.8984,2.8984,2.8984,2.8984,2.8984,2.8984,2.8984,2.8984,2.8984,2.8984,2.8984,2.8984,2.8984,2.8984,2.8984,2.8984,2.8984,2.8984,2.8984,2.8984,2.8984,2.8984,2.8984,2.8984,2.8984,2.8984,2.8984,2.8984,2.8984,2.8984,2.8984,2.8984,2.8984,2.8984,2.8984,2.8984,2.8984,2.8984,2.8984,2.8984,2.8984,2.8984,2.8984,2.8984,2.8984,2.8984,2.8984,2.8984,2.8984,2.8984,2.8984,2.8984,2.8984,2.8984,2.8984,2.8984,2.8984,2.8984,2.8984,2.8984,2.8984,2.8984,2.8984,2.8984,2.8984,2.8984,2.8984,2.8984,2.8984,2.8984,2.8984,2.8984,2.8984,2.8984,2.8984,2.8984,2.8984,2.8984,2.8984,2.8984,2.8984,2.8984,2.8984,2.8984,2.8984,1.2864,1.397,0.0,0.0,1.7542,1.8671,1.9158,2.0104,2.0967,2.1217,2.1099,2.1481,2.3286,2.3467,2.4055,2.6152,2.678,2.7444,2.8797,2.8984,2.8984,2.8984,2.8984,2.8984,2.8984,2.8984,2.8984,2.8984,2.8984,2.8984,2.8984,2.8984,2.8984,2.8984,2.8984,2.8984,2.8984,2.8984,2.8984,2.8984,2.8984,2.8984,2.8984,2.8984,2.8984,2.8984,2.8984,2.8984,2.8984,2.8984,2.8984,2.8984,2.8984,2.8984,2.8984,2.8984,2.8984,2.8984,2.8984,2.8984,2.8984,2.8984,2.8984,2.8984,2.8984,2.8984,2.8984,2.8984,2.8984,2.8984,2.8984,2.8984,2.8984,2.8984,2.8984,2.8984,2.8984,2.8984,2.8984,2.8984,2.8984,2.8984,2.8984,2.8984,2.8984,2.8984,2.8984,2.8984,2.8984,2.8984,2.8984,2.8984,2.8984,2.8984,2.8984,2.8984,2.8984,2.8984,2.8984,2.8984,2.8984,2.8984,2.8984,2.8984,2.8984,2.8984,2.8984,2.8984,2.8984,2.8984,2.8984,2.8984,1.3432,0.0,0.0,1.6998,0.0,2.0192,1.9547,2.078,2.2124,2.2242,2.2617,2.3198,2.394,2.4924,2.589,2.6619,2.7382,2.8182,2.8916,2.8984,2.8984,2.8984,2.8984,2.8984,2.8984,2.8984,2.8984,2.8984,2.8984,2.8984,2.8984,2.8984,2.8984,2.8984,2.8984,2.8984,2.8984,2.8984,2.8984,2.8984,2.8984,2.8984,2.8984,2.8984,2.8984,2.8984,2.8984,2.8984,2.8984,2.8984,2.8984,2.8984,2.8984,2.8984,2.8984,2.8984,2.8984,2.8984,2.8984,2.8984,2.8984,2.8984,2.8984,2.8984,2.8984,2.8984,2.8984,2.8984,2.8984,2.8984,2.8984,2.8984,2.8984,2.8984,2.8984,2.8984,2.8984,2.8984,2.8984,2.8984,2.8984,2.8984,2.8984,2.8984,2.8984,2.8984,2.8984,2.8984,2.8984,2.8984,2.8984,2.8984,2.8984,2.8984,2.8984,2.8984,2.8984,2.8984,2.8984,2.8984,2.8984,2.8984,2.8984,2.8984,2.8984,2.8984,2.8984,2.8984,2.8984,2.8984,2.8984,2.8984,0.0,0.0,1.662,1.7873,1.9986,0.0,1.9939,2.1484,2.3239,2.3303,2.4217,2.4907,2.4447,2.6347,2.7678,2.6757,2.7871,2.8801,2.8874,2.8883,2.8911,2.8975,2.8984,2.8984,2.8984,2.8984,2.8984,2.8984,2.8984,2.8984,2.8984,2.8984,2.8984,2.8984,2.8984,2.8984,2.8984,2.8984,2.8984,2.8984,2.8984,2.8984,2.8984,2.8984,2.8984,2.8984,2.8984,2.8984,2.8984,2.8984,2.8984,2.8984,2.8984,2.8984,2.8984,2.8984,2.8984,2.8984,2.8984,2.8984,2.8984,2.8984,2.8984,2.8984,2.8984,2.8984,2.8984,2.8984,2.8984,2.8984,2.8984,2.8984,2.8984,2.8984,2.8984,2.8984,2.8984,2.8984,2.8984,2.8984,2.8984,2.8984,2.8984,2.8984,2.8984,2.8984,2.8984,2.8984,2.8984,2.8984,2.8984,2.8984,2.8984,2.8984,2.8984,2.8984,2.8984,2.8984,2.8984,2.8984,2.8984,2.8984,2.8984,2.8984,2.8984,2.8984,2.8984,2.8984,2.8984,2.8984,2.8984,2.8984,0.0,0.0,0.0,0.0,2.0069,2.107,0.0,0.0,2.4149,0.0,2.4104,2.431,2.6374,2.6408,2.649,2.7429,2.7827,2.8058,2.8425,2.8471,2.8599,2.8938,2.8984,2.8984,2.8984,2.8984,2.8984,2.8984,2.8984,2.8984,2.8984,2.8984,2.8984,2.8984,2.8984,2.8984,2.8984,2.8984,2.8984,2.8984,2.8984,2.8984,2.8984,2.8984,2.8984,2.8984,2.8984,2.8984,2.8984,2.8984,2.8984,2.8984,2.8984,2.8984,2.8984,2.8984,2.8984,2.8984,2.8984,2.8984,2.8984,2.8984,2.8984,2.8984,2.8984,2.8984,2.8984,2.8984,2.8984,2.8984,2.8984,2.8984,2.8984,2.8984,2.8984,2.8984,2.8984,2.8984,2.8984,2.8984,2.8984,2.8984,2.8984,2.8984,2.8984,2.8984,2.8984,2.8984,2.8984,2.8984,2.8984,2.8984,2.8984,2.8984,2.8984,2.8984,2.8984,2.8984,2.8984,2.8984,2.8984,2.8984,2.8984,2.8984,2.8984,2.8984,2.8984,2.8984,2.8984,2.8984,2.8984,2.8984,1.4483,0.0,0.0,0.0,0.0,0.0,0.0,0.0,2.4748,2.4218,2.449,2.5267,2.6628,2.6704,2.6796,2.7378,2.7675,2.7886,2.8012,2.804,2.8104,2.8336,2.8355,2.8397,2.8627,2.8654,2.8746,2.8966,2.8984,2.8984,2.8984,2.8984,2.8984,2.8984,2.8984,2.8984,2.8984,2.8984,2.8984,2.8984,2.8984,2.8984,2.8984,2.8984,2.8984,2.8984,2.8984,2.8984,2.8984,2.8984,2.8984,2.8984,2.8984,2.8984,2.8984,2.8984,2.8984,2.8984,2.8984,2.8984,2.8984,2.8984,2.8984,2.8984,2.8984,2.8984,2.8984,2.8984,2.8984,2.8984,2.8984,2.8984,2.8984,2.8984,2.8984,2.8984,2.8984,2.8984,2.8984,2.8984,2.8984,2.8984,2.8984,2.8984,2.8984,2.8984,2.8984,2.8984,2.8984,2.8984,2.8984,2.8984,2.8984,2.8984,2.8984,2.8984,2.8984,2.8984,2.8984,2.8984,2.8984,2.8984,2.8984,2.8984,2.8984,2.8984,2.8984,2.8984,2.8984,2.8984,2.8984,2.8984,0.0,0.0,0.0,0.0,0.0,0.0,0.0,0.0,2.4908,0.0,2.5003,2.5957,2.6215,2.6692,2.7031,2.7031,2.727,2.7499,2.7656,2.7675,2.7711,2.7813,2.7822,2.795,2.8205,2.8242,2.8352,2.8645,2.8673,2.8718,2.8828,2.8838,2.8883,2.8975,2.8984,2.8984,2.8984,2.8984,2.8984,2.8984,2.8984,2.8984,2.8984,2.8984,2.8984,2.8984,2.8984,2.8984,2.8984,2.8984,2.8984,2.8984,2.8984,2.8984,2.8984,2.8984,2.8984,2.8984,2.8984,2.8984,2.8984,2.8984,2.8984,2.8984,2.8984,2.8984,2.8984,2.8984,2.8984,2.8984,2.8984,2.8984,2.8984,2.8984,2.8984,2.8984,2.8984,2.8984,2.8984,2.8984,2.8984,2.8984,2.8984,2.8984,2.8984,2.8984,2.8984,2.8984,2.8984,2.8984,2.8984,2.8984,2.8984,2.8984,2.8984,2.8984,2.8984,2.8984,2.8984,2.8984,2.8984,2.8984,2.8984,2.8984,2.8984,2.8984,2.8984,2.8984,2.8984,2.8984,2.8984,2.8984,0.0,0.0,0.0,0.0,0.0,0.0,0.0,0.0,0.0,2.5155,2.5381,2.546,2.5479,2.6087,2.6619,2.6619,2.6637,2.6784,2.716,2.7205,2.7343,2.7776,2.7822,2.7831,2.7849,2.7849,2.7868,2.7886,2.7886,2.8003,2.8407,2.8425,2.8599,2.8975,2.8984,2.8984,2.8984,2.8984,2.8984,2.8984,2.8984,2.8984,2.8984,2.8984,2.8984,2.8984,2.8984,2.8984,2.8984,2.8984,2.8984,2.8984,2.8984,2.8984,2.8984,2.8984,2.8984,2.8984,2.8984,2.8984,2.8984,2.8984,2.8984,2.8984,2.8984,2.8984,2.8984,2.8984,2.8984,2.8984,2.8984,2.8984,2.8984,2.8984,2.8984,2.8984,2.8984,2.8984,2.8984,2.8984,2.8984,2.8984,2.8984,2.8984,2.8984,2.8984,2.8984,2.8984,2.8984,2.8984,2.8984,2.8984,2.8984,2.8984,2.8984,2.8984,2.8984,2.8984,2.8984,2.8984,2.8984,2.8984,2.8984,2.8984,2.8984,2.8984,2.8984,2.8984,2.8984,2.8984,2.8984,2.8984,0.0,0.0,0.0,0.0,0.0,0.0,0.0,2.2523,2.3538,2.4088,2.4409,2.4725,2.4992,2.5647,2.6188,2.6188,2.6408,2.6637,2.6784,2.6793,2.6848,2.6995,2.7013,2.7105,2.7361,2.7389,2.749,2.7803,2.7822,2.7829,2.7985,2.7994,2.8058,2.8254,2.8462,2.8728,2.8984,2.8984,2.8984,2.8984,2.8984,2.8984,2.8984,2.8984,2.8984,2.8984,2.8984,2.8984,2.8984,2.8984,2.8984,2.8984,2.8984,2.8984,2.8984,2.8984,2.8984,2.8984,2.8984,2.8984,2.8984,2.8984,2.8984,2.8984,2.8984,2.8984,2.8984,2.8984,2.8984,2.8984,2.8984,2.8984,2.8984,2.8984,2.8984,2.8984,2.8984,2.8984,2.8984,2.8984,2.8984,2.8984,2.8984,2.8984,2.8984,2.8984,2.8984,2.8984,2.8984,2.8984,2.8984,2.8984,2.8984,2.8984,2.8984,2.8984,2.8984,2.8984,2.8984,2.8984,2.8984,2.8984,2.8984,2.8984,2.8984,2.8984,2.8984,2.8984,2.8984,2.8984,2.8984,2.8984,1.3745,0.0,0.0,0.0,0.0,0.0,0.0,0.0,2.2318,2.3133,2.3666,2.4033,2.4317,2.5023,2.5663,2.5791,2.6168,2.638,2.638,2.6499,2.6591,2.6591,2.6591,2.6692,2.6949,2.6976,2.7086,2.7408,2.7427,0.0,2.762,2.762,2.7684,2.7822,2.804,2.8379,2.8783,2.8783,2.8856,2.8984,2.8984,2.8984,2.8984,2.8984,2.8984,2.8984,2.8984,2.8984,2.8984,2.8984,2.8984,2.8984,2.8984,2.8984,2.8984,2.8984,2.8984,2.8984,2.8984,2.8984,2.8984,2.8984,2.8984,2.8984,2.8984,2.8984,2.8984,2.8984,2.8984,2.8984,2.8984,2.8984,2.8984,2.8984,2.8984,2.8984,2.8984,2.8984,2.8984,2.8984,2.8984,2.8984,2.8984,2.8984,2.8984,2.8984,2.8984,2.8984,2.8984,2.8984,2.8984,2.8984,2.8984,2.8984,2.8984,2.8984,2.8984,2.8984,2.8984,2.8984,2.8984,2.8984,2.8984,2.8984,2.8984,2.8984,2.8984,2.8984,2.8984,2.8984,2.8984,2.8984,0.0,0.0,0.0,0.0,0.0,0.0,0.0,0.0,2.0854,2.251,2.3151,2.3425,2.3471,2.418,2.4858,2.5304,2.5718,2.5993,2.5993,2.6307,2.6564,2.6564,2.6582,2.6591,2.6591,2.6591,2.6591,2.6591,2.6591,2.6756,2.7141,2.716,2.7343,2.7794,2.7803,2.8005,2.837,2.8388,2.859,2.8966,2.8975,2.8984,2.8984,2.8984,2.8984,2.8984,2.8984,2.8984,2.8984,2.8984,2.8984,2.8984,2.8984,2.8984,2.8984,2.8984,2.8984,2.8984,2.8984,2.8984,2.8984,2.8984,2.8984,2.8984,2.8984,2.8984,2.8984,2.8984,2.8984,2.8984,2.8984,2.8984,2.8984,2.8984,2.8984,2.8984,2.8984,2.8984,2.8984,2.8984,2.8984,2.8984,2.8984,2.8984,2.8984,2.8984,2.8984,2.8984,2.8984,2.8984,2.8984,2.8984,2.8984,2.8984,2.8984,2.8984,2.8984,2.8984,2.8984,2.8984,2.8984,2.8984,2.8984,2.8984,2.9044,2.9044,2.9044,2.8984,2.8984,2.8984,2.8984,2.8984,1.3277,0.0,0.0,0.0,0.0,0.0,0.0,0.0,0.0,2.1163,2.1484,2.1678,2.2849,2.3251,2.3544,2.3987,2.4886,2.5589,2.5589,2.5938,2.6186,2.6186,2.6408,2.6591,2.6591,2.6591,2.6591,0.0,2.6591,2.6637,2.6747,2.6747,2.693,2.7325,2.7399,2.7536,2.793,2.8242,2.8452,2.8563,2.8847,2.8984,2.8984,2.8984,2.8984,2.8984,2.8984,2.8984,2.8984,2.8984,2.8984,2.8984,2.8984,2.8984,2.8984,2.8984,2.8984,2.8984,2.8984,2.8984,2.8984,2.8984,2.8984,2.8984,2.8984,2.8984,2.8984,2.8984,2.8984,2.8984,2.8984,2.8984,2.8984,2.8984,2.8984,2.8984,2.8984,2.8984,2.8984,2.8984,2.8984,2.8984,2.8984,2.8984,2.8984,2.8984,2.8984,2.8984,2.8984,2.8984,2.8984,2.8984,2.8984,2.8984,2.8984,2.8984,2.8984,2.8984,2.8984,2.8984,2.8984,2.8984,2.8984,2.8984,2.9686,3.003,3.003,2.9331,2.8984,2.8984,2.8984,2.8984,0.0,0.0,0.0,0.0,0.0,0.0,1.7284,1.7449,0.0,0.0,2.0567,2.0872,2.2163,2.2538,2.2776,2.3187,2.3846,2.4537,2.5051,2.5515,2.5764,2.5764,2.5931,2.6142,2.6307,2.6325,2.6399,2.6573,2.6591,2.6591,2.6591,2.6591,2.6692,2.6921,2.693,2.7123,2.7574,2.7765,2.7967,2.8141,2.8544,2.8737,2.8746,2.8911,2.8984,2.8984,2.8984,2.8984,2.8984,2.8984,2.8984,2.8984,2.8984,2.8984,2.8984,2.8984,2.8984,2.8984,2.8984,2.8984,2.8984,2.8984,2.8984,2.8984,2.8984,2.8984,2.8984,2.8984,2.8984,2.8984,2.8984,2.8984,2.8984,2.8984,2.8984,2.8984,2.8984,2.8984,2.8984,2.8984,2.8984,2.8984,2.8984,2.8984,2.8984,2.8984,2.8984,2.8984,2.8984,2.8984,2.8984,2.8984,2.8984,2.8984,2.8984,2.8984,2.8984,2.8984,2.8984,2.8984,2.8984,2.8984,2.9153,2.9568,3.0098,3.0616,3.0956,3.0431,2.9962,2.9568,2.9163,2.8984,0.0,0.0,0.0,0.0,0.0,0.0,1.7779,1.7513,1.7312,0.0,1.9842,2.0328,2.1193,2.1678,2.208,2.2501,2.2684,2.3197,2.4473,2.4986,2.5304,2.535,2.5396,2.5561,2.5911,2.5947,2.6104,2.6426,2.649,2.6536,2.6591,2.6591,2.6591,2.6591,2.6591,2.6756,2.7105,2.716,2.7352,2.7767,2.8122,2.8352,2.8407,2.8755,2.8938,2.8984,2.8984,2.8984,2.8984,2.8984,2.8984,2.8984,2.8984,2.8984,2.8984,2.8984,2.8984,2.8984,2.8984,2.8984,2.8984,2.8984,2.8984,2.8984,2.8984,2.8984,2.8984,2.8984,2.8984,2.8984,2.8984,2.8984,2.8984,2.8984,2.8984,2.8984,2.8984,2.8984,2.8984,2.8984,2.8984,2.8984,2.8984,2.8984,2.8984,2.8984,2.8984,2.8984,2.8984,2.8984,2.8984,2.8984,2.8984,2.8984,2.8984,2.8984,2.8984,2.8984,2.8984,2.9044,2.9153,2.9163,2.9627,3.0558,3.0675,3.1189,3.2092,3.192,3.1353,3.0558,2.9568,2.9163,1.766,0.0,0.0,0.0,0.0,0.0,1.5973,1.5863,1.6221,0.0,1.7303,1.7551,1.9036,1.9622,2.0035,2.0406,2.1293,2.2346,2.3563,2.4134,2.4569,2.4858,2.5179,2.5451,2.5534,2.5534,2.5571,2.5601,2.5957,2.6287,2.6573,2.6591,2.6591,2.6591,2.6591,2.6628,2.6701,2.7013,2.7215,2.7297,2.7701,2.8067,2.8397,2.8471,2.8682,2.8984,2.8984,2.8984,2.8984,2.8984,2.8984,2.8984,2.8984,2.8984,2.8984,2.8984,2.8984,2.8984,2.8984,2.8984,2.8984,2.8984,2.8984,2.8984,2.8984,2.8984,2.8984,2.8984,2.8984,2.8984,2.8984,2.8984,2.8984,2.8984,2.8984,2.8984,2.8984,2.8984,2.8984,2.8984,2.8984,2.8984,2.8984,2.8984,2.8984,2.8984,2.8984,2.8984,2.8984,2.8984,2.8984,2.8984,2.8984,2.8984,2.8984,2.8984,2.8984,2.8984,2.8984,2.934,3.0089,3.0157,3.0548,3.1526,3.2207,3.3016,3.3942,3.2493,3.169,3.1516,3.0548,3.0157,1.9152,0.0,0.0,1.8009,0.0,0.0,0.0,1.6138,1.634,1.7559,1.7174,1.7101,1.8705,1.9008,1.9136,1.9549,2.0466,2.1293,2.1906,2.2914,2.3629,2.3849,2.4042,2.4317,2.4771,2.4808,2.4983,2.5387,2.5607,2.5901,2.6306,2.627,2.6371,2.6582,2.6591,2.6591,2.6591,2.6784,2.6885,2.6885,2.7288,2.7581,2.7801,2.8214,2.8498,2.87,2.8893,2.8984,2.8984,2.8984,2.8984,2.8984,2.8984,2.8984,2.8984,2.8984,2.8984,2.8984,2.8984,2.8984,2.8984,2.8984,2.8984,2.8984,2.8984,2.8984,2.8984,2.8984,2.8984,2.8984,2.8984,2.8984,2.8984,2.8984,2.8984,2.8984,2.8984,2.8984,2.8984,2.8984,2.8984,2.8984,2.8984,2.8984,2.8984,2.8984,2.8984,2.8984,2.8984,2.8984,2.9163,2.9627,2.9686,2.9912,3.0372,3.0421,3.0421,3.0421,3.0421,3.0597,3.1063,3.1121,3.1516,3.2436,3.3356,3.4054,3.4524,3.392,3.3222,3.2436,3.1526,3.1227,0.0,0.0,0.0,0.0,0.0,1.8027,0.0,0.0,0.0,1.7908,1.7358,0.0,0.0,0.0,0.0,0.0,0.0,0.0,0.0,2.1302,0.0,2.2529,2.2693,2.3041,2.3788,2.3779,2.406,2.495,2.495,2.5142,2.5754,2.5929,2.6168,2.6454,2.6545,2.6591,2.6591,2.6591,2.6591,2.6591,2.6912,2.7105,2.7205,2.7939,2.8315,2.8416,2.881,2.8984,2.8984,2.8984,2.8984,2.8984,2.8984,2.8984,2.8984,2.8984,2.8984,2.8984,2.8984,2.8984,2.8984,2.8984,2.8984,2.8984,2.8984,2.8984,2.8984,2.8984,2.8984,2.8984,2.8984,2.8984,2.8984,2.8984,2.8984,2.8984,2.8984,2.8984,2.8984,2.8984,2.8984,2.8984,2.8984,2.8984,2.8984,2.8984,2.8984,2.9044,2.9281,2.9281,2.9627,3.0558,3.0675,3.0956,3.1747,3.1805,3.1805,3.1805,3.1805,3.1862,3.2035,3.2207,3.2664,3.3356,3.411,3.4524,3.4524,3.5113,3.4758,3.3515,3.2758,3.2633,0.0,0.0,0.0,0.0,1.9998,0.0,0.0,0.0,1.711,1.6211,0.0,0.0,0.0,0.0,0.0,0.0,0.0,0.0,1.7944,1.9246,2.0488,2.1236,2.1906,2.2428,2.252,2.2172,2.2446,2.3618,2.338,2.3721,2.4858,2.5635,2.603,2.6085,2.6389,2.6591,2.6591,2.6591,2.6591,2.6591,2.6637,2.6839,2.7196,2.7636,2.804,2.8416,2.881,2.8984,2.8984,2.8984,2.8984,2.8984,2.8984,2.8984,2.8984,2.8984,2.8984,2.8984,2.8984,2.8984,2.8984,2.8984,2.8984,2.8984,2.8984,2.8984,2.8984,2.8984,2.8984,2.8984,2.8984,2.8984,2.8984,2.8984,2.8984,2.8984,2.8984,2.8984,2.8984,2.8984,2.8984,2.8984,2.8984,2.8984,2.8984,2.8984,2.8984,2.9272,3.0147,3.0265,3.0606,3.1516,3.1632,3.169,3.1805,3.1805,3.1805,3.1805,3.1805,3.215,3.2949,3.3762,3.4233,3.4345,3.4468,3.4524,3.4524,3.5113,3.5312,3.5146,3.4714,3.4581,0.0,0.0,0.0,0.0,0.0,0.0,1.7798,0.0,1.7138,0.0,0.0,0.0,0.0,0.0,0.0,0.0,1.7073,0.0,0.0,0.0,1.8641,0.0,0.0,0.0,2.1548,2.165,2.2099,2.3078,2.2565,2.2887,2.4385,2.478,2.5286,2.5993,2.6186,2.6344,2.6591,2.6591,2.6591,2.6591,2.6591,2.6674,2.6848,2.7242,2.7646,2.8049,2.8462,2.8764,2.8984,2.8984,2.8984,2.8984,2.8984,2.8984,2.8984,2.8984,2.8984,2.8984,2.8984,2.8984,2.8984,2.8984,2.8984,2.8984,2.8984,2.8984,2.8984,2.8984,2.8984,2.8984,2.8984,2.8984,2.8984,2.8984,2.8984,2.8984,2.8984,2.8984,2.8984,2.8984,2.8984,2.8984,2.8984,2.8984,2.9153,2.9745,2.9804,3.0147,3.1063,3.1237,3.1584,3.2436,3.255,3.2778,3.331,3.3367,3.3367,3.3367,3.3367,3.3537,3.3885,3.4289,3.4524,3.4524,3.4524,3.468,3.5002,3.5609,3.6091,3.6363,3.5904,3.5904,2.1989,0.0,0.0,0.0,0.0,0.0,0.0,0.0,0.0,0.0,0.0,0.0,0.0,0.0,0.0,0.0,0.0,0.0,0.0,0.0,0.0,0.0,0.0,0.0,0.0,2.0653,2.1129,2.2163,2.1595,2.1942,2.3565,2.4018,2.4606,2.5488,2.5837,2.6159,2.6417,2.6527,2.6591,2.6591,2.6591,2.6591,2.66,2.6995,2.7445,2.784,2.8214,2.8618,2.8984,2.8984,2.8984,2.8984,2.8984,2.8984,2.8984,2.8984,2.8984,2.8984,2.8984,2.8984,2.8984,2.8984,2.8984,2.8984,2.8984,2.8984,2.8984,2.8984,2.8984,2.8984,2.8984,2.8984,2.8984,2.8984,2.8984,2.8984,2.8984,2.8984,2.8984,2.8984,2.9213,2.939,2.939,2.939,2.9627,3.0333,3.0616,3.1121,3.2035,3.215,3.2493,3.3413,3.347,3.3762,3.4468,3.4524,3.4524,3.4524,3.4524,3.4524,3.4524,3.4524,3.4524,3.4524,3.4524,3.4791,3.5378,3.5993,3.6592,3.7078,3.6862,3.697,0.0,0.0,0.0,1.9943,0.0,0.0,0.0,0.0,1.855,0.0,0.0,0.0,0.0,0.0,0.0,0.0,0.0,0.0,0.0,0.0,0.0,0.0,0.0,0.0,0.0,1.8678,1.8859,0.0,2.0177,2.0653,2.2254,2.351,2.422,2.4266,2.5396,2.6021,2.603,2.6389,2.6591,2.6591,2.6591,2.6591,2.66,2.6995,2.7445,2.784,2.8214,2.8618,2.8984,2.8984,2.8984,2.8984,2.8984,2.8984,2.8984,2.8984,2.8984,2.8984,2.8984,2.8984,2.8984,2.8984,2.8984,2.8984,2.8984,2.8984,2.8984,2.8984,2.8984,2.8984,2.8984,2.8984,2.8984,2.8984,2.8984,2.8984,2.8984,2.8984,2.8984,2.8984,2.9745,3.0333,3.0333,3.0333,3.0392,3.0382,3.1179,3.2092,3.2949,3.3063,3.3413,3.4345,3.4468,3.4468,3.4524,3.4524,3.4524,3.4524,3.4524,3.4524,3.4524,3.4524,3.4524,3.4524,3.4524,3.4791,3.5378,3.5993,3.6592,3.7131,3.7667,3.7921,0.0,0.0,2.284,2.097,0.0,0.0,0.0,0.0,0.0,0.0,0.0,0.0,0.0,0.0,0.0,0.0,0.0,0.0,0.0,0.0,0.0,0.0,0.0,0.0,0.0,0.0,0.0,0.0,1.9751,0.0,2.2181,2.294,2.3602,2.4183,2.4872,2.5479,2.6002,2.6149,2.637,2.6591,2.6591,2.6591,2.6591,2.6729,2.7004,2.7454,2.7801,2.8214,2.8618,2.8874,2.8984,2.8984,2.8984,2.8984,2.8984,2.8984,2.8984,2.8984,2.8984,2.8984,2.8984,2.8984,2.8984,2.8984,2.8984,2.8984,2.8984,2.8984,2.8984,2.8984,2.8984,2.8984,2.8984,2.8984,2.8984,2.8984,2.8984,2.8984,2.9163,2.9804,3.0206,3.0616,3.1237,3.1805,3.2207,3.2207,3.2436,3.3006,3.3885,3.4054,3.4177,3.4468,3.4524,3.4524,3.4524,3.4524,3.4524,3.4524,3.4524,3.4524,3.4524,3.4524,3.4524,3.4524,3.4524,3.5013,3.5993,3.6211,3.6808,3.772,3.7921,3.7986,2.3197,2.3297,0.0,2.1659,2.1145,0.0,1.9061,0.0,1.9628,0.0,0.0,0.0,0.0,0.0,0.0,0.0,0.0,0.0,0.0,1.501,0.0,0.0,0.0,0.0,0.0,0.0,1.7724,1.9335,1.9118,0.0,0.0,2.2519,2.3151,2.3712,2.4418,2.5148,2.58,2.5938,2.6223,2.6591,2.6591,2.6591,2.6591,2.6591,2.6802,2.7196,2.7647,2.8003,2.8425,2.8819,2.8984,2.8984,2.8984,2.8984,2.8984,2.8984,2.8984,2.8984,2.8984,2.8984,2.8984,2.8984,2.8984,2.8984,2.8984,2.8984,2.8984,2.8984,2.8984,2.9044,2.9153,2.9103,2.9044,2.9153,2.9331,2.9509,2.9509,2.9736,3.0197,3.0781,3.1131,3.1526,3.215,3.3006,3.347,3.3176,3.3356,3.3875,3.4725,3.4847,3.4902,3.5124,3.5124,3.5124,3.5124,3.4958,3.4902,3.5124,3.4958,3.4902,3.5124,3.5124,3.5069,3.4847,3.5013,3.5499,3.632,3.6483,3.7078,3.7986,3.7986,3.7986]}]]